[[{"header":{"parameterUnit":"m.s-1","parameterCategory":1,"la1":30.6,"la2":28.766,"lo1":-90.7593,"lo2":-88.6598,"dx":0.0162,"dy":0.0183,"nx":116,"ny":114,"refTime":"2023-01-22T18:00:00:Z","depth":0,"parameterNumber":2,"parameterNumberName":"U-component_of_WINDS"},"data":[0.0,0.0,0.0,0.0,0.0,0.0,0.0,0.0,0.0,0.0,0.0,0.0,0.0,0.0,0.0,0.0,0.0,0.0,0.0,0.0,0.0,0.0,0.0,0.0,0.0,0.0,0.0,0.0,0.0,0.0,0.0,0.0,0.0,0.0,0.0,0.0,0.0,0.0,0.0,0.0,0.0,0.0,0.0,0.0,0.0,0.0,0.0,0.0,0.0,0.0,0.0,0.0,0.0,0.0,0.0,0.0,0.0,0.0,0.0,0.0,0.0,0.0,0.0,0.0,0.0,0.0,0.0,0.0,0.0,0.0,0.0,0.0,0.0,0.0,0.0,0.0,0.0,0.0,0.0,0.0,0.0,0.0,0.0,0.0,0.0,0.0,0.0,0.0,0.0,0.0,0.0,0.0,0.0,0.0,0.0,0.0,0.0,0.0,0.0,0.0,0.0,0.0,0.0,0.0,0.0,0.0,0.0,0.0,0.0,0.0,0.0,0.0,0.0,0.0,0.0,0.0,0.0,0.0,0.0,0.0,0.0,0.0,0.0,0.0,0.0,0.0,0.0,0.0,0.0,0.0,0.0,0.0,0.0,0.0,0.0,0.0,0.0,0.0,0.0,0.0,0.0,0.0,0.0,0.0,0.0,0.0,0.0,0.0,0.0,0.0,0.0,0.0,0.0,0.0,0.0,0.0,0.0,0.0,0.0,0.0,0.0,0.0,0.0,0.0,0.0,0.0,0.0,0.0,0.0,0.0,0.0,0.0,0.0,0.0,0.0,0.0,0.0,0.0,0.0,0.0,0.0,0.0,0.0,0.0,0.0,0.0,0.0,0.0,0.0,0.0,0.0,0.0,0.0,0.0,0.0,0.0,0.0,0.0,0.0,0.0,0.0,0.0,0.0,0.0,0.0,0.0,0.0,0.0,0.0,0.0,0.0,0.0,0.0,0.0,0.0,0.0,0.0,0.0,0.0,0.0,0.0,0.0,0.0,0.0,0.0,0.0,0.0,0.0,0.0,0.0,0.0,0.0,0.0,0.0,0.0,0.0,0.0,0.0,0.0,0.0,0.0,0.0,0.0,0.0,0.0,0.0,0.0,0.0,0.0,0.0,0.0,0.0,0.0,0.0,0.0,0.0,0.0,0.0,0.0,0.0,0.0,0.0,0.0,0.0,0.0,0.0,0.0,0.0,0.0,0.0,0.0,0.0,0.0,0.0,0.0,0.0,0.0,0.0,0.0,0.0,0.0,0.0,0.0,0.0,0.0,0.0,0.0,0.0,0.0,0.0,0.0,0.0,0.0,0.0,0.0,0.0,0.0,0.0,0.0,0.0,0.0,0.0,0.0,0.0,0.0,0.0,0.0,0.0,0.0,0.0,0.0,0.0,0.0,0.0,0.0,0.0,0.0,0.0,0.0,0.0,0.0,0.0,0.0,0.0,0.0,0.0,0.0,0.0,0.0,0.0,0.0,0.0,0.0,0.0,0.0,0.0,0.0,0.0,0.0,0.0,0.0,0.0,0.0,0.0,0.0,0.0,0.0,0.0,0.0,0.0,0.0,0.0,0.0,0.0,0.0,0.0,0.0,0.0,0.0,0.0,0.0,0.0,0.0,0.0,0.0,0.0,0.0,0.0,0.0,0.0,0.0,0.0,0.0,0.0,0.0,0.0,0.0,0.0,0.0,0.0,0.0,0.0,0.0,0.0,0.0,0.0,0.0,0.0,0.0,0.0,0.0,0.0,0.0,0.0,0.0,0.0,0.0,0.0,0.0,0.0,0.0,0.0,0.0,0.0,0.0,0.0,0.0,0.0,0.0,0.0,0.0,0.0,0.0,0.0,0.0,0.0,0.0,0.0,0.0,0.0,0.0,0.0,0.0,0.0,0.0,0.0,0.0,0.0,0.0,0.0,0.0,0.0,0.0,0.0,0.0,0.0,0.0,0.0,0.0,0.0,0.0,0.0,0.0,0.0,0.0,0.0,0.0,0.0,0.0,0.0,0.0,0.0,0.0,0.0,0.0,0.0,0.0,0.0,0.0,0.0,0.0,0.0,0.0,0.0,0.0,0.0,0.0,0.0,0.0,0.0,0.0,0.0,0.0,0.0,0.0,0.0,0.0,0.0,0.0,0.0,0.0,0.0,0.0,0.0,0.0,0.0,0.0,0.0,0.0,0.0,0.0,0.0,0.0,0.0,0.0,0.0,0.0,0.0,0.0,0.0,0.0,0.0,0.0,0.0,0.0,0.0,0.0,0.0,0.0,0.0,0.0,0.0,0.0,0.0,0.0,0.0,0.0,0.0,0.0,0.0,0.0,0.0,0.0,0.0,0.0,0.0,0.0,0.0,0.0,0.0,0.0,0.0,0.0,0.0,0.0,0.0,0.0,0.0,0.0,0.0,0.0,0.0,0.0,0.0,0.0,0.0,0.0,0.0,0.0,0.0,0.0,0.0,0.0,0.0,0.0,0.0,0.0,0.0,0.0,0.0,0.0,0.0,0.0,0.0,0.0,0.0,0.0,0.0,0.0,0.0,0.0,0.0,0.0,0.0,0.0,0.0,0.0,0.0,0.0,0.0,0.0,0.0,0.0,0.0,0.0,0.0,0.0,0.0,0.0,0.0,0.0,0.0,0.0,0.0,0.0,0.0,0.0,0.0,0.0,0.0,0.0,0.0,0.0,0.0,0.0,0.0,0.0,0.0,0.0,0.0,0.0,0.0,0.0,0.0,0.0,0.0,0.0,0.0,0.0,0.0,0.0,0.0,0.0,0.0,0.0,0.0,0.0,0.0,0.0,0.0,0.0,0.0,0.0,0.0,0.0,0.0,0.0,0.0,0.0,0.0,0.0,0.0,0.0,0.0,0.0,0.0,0.0,0.0,0.0,0.0,0.0,0.0,0.0,0.0,0.0,0.0,0.0,0.0,0.0,0.0,0.0,0.0,0.0,0.0,0.0,0.0,0.0,0.0,0.0,0.0,0.0,0.0,0.0,0.0,0.0,0.0,0.0,0.0,0.0,0.0,0.0,0.0,0.0,0.0,0.0,0.0,0.0,0.0,0.0,0.0,0.0,0.0,0.0,0.0,0.0,0.0,0.0,0.0,0.0,0.0,0.0,0.0,0.0,0.0,0.0,0.0,0.0,0.0,0.0,0.0,0.0,0.0,0.0,0.0,0.0,0.0,0.0,0.0,0.0,0.0,0.0,0.0,0.0,0.0,0.0,0.0,0.0,0.0,0.0,0.0,0.0,0.0,0.0,0.0,0.0,0.0,0.0,0.0,0.0,0.0,0.0,0.0,0.0,0.0,0.0,0.0,0.0,0.0,0.0,0.0,0.0,0.0,0.0,0.0,0.0,0.0,0.0,0.0,0.0,0.0,0.0,0.0,0.0,0.0,0.0,0.0,0.0,0.0,0.0,0.0,0.0,0.0,0.0,0.0,0.0,0.0,0.0,0.0,0.0,0.0,0.0,0.0,0.0,0.0,0.0,0.0,0.0,0.0,0.0,0.0,0.0,0.0,0.0,0.0,0.0,0.0,0.0,0.0,0.0,0.0,0.0,0.0,0.0,0.0,0.0,0.0,0.0,0.0,0.0,0.0,0.0,0.0,0.0,0.0,0.0,0.0,0.0,0.0,0.0,0.0,0.0,0.0,0.0,0.0,0.0,0.0,0.0,0.0,0.0,0.0,0.0,0.0,0.0,0.0,0.0,0.0,0.0,0.0,0.0,0.0,0.0,0.0,0.0,0.0,0.0,0.0,0.0,0.0,0.0,0.0,0.0,0.0,0.0,0.0,0.0,0.0,0.0,0.0,0.0,0.0,0.0,0.0,0.0,0.0,0.0,0.0,0.0,0.0,0.0,0.0,0.0,0.0,0.0,0.0,0.0,0.0,0.0,0.0,0.0,0.0,0.0,0.0,0.0,0.0,0.0,0.0,0.0,0.0,0.0,0.0,0.0,0.0,0.0,0.0,0.0,0.0,0.0,0.0,0.0,0.0,0.0,0.0,0.0,0.0,0.0,0.0,0.0,0.0,0.0,0.0,0.0,0.0,0.0,0.0,0.0,0.0,0.0,0.0,0.0,0.0,0.0,0.0,0.0,0.0,0.0,0.0,0.0,0.0,0.0,0.0,0.0,0.0,0.0,0.0,0.0,0.0,0.0,0.0,0.0,0.0,0.0,0.0,0.0,0.0,0.0,0.0,0.0,0.0,0.0,0.0,0.0,0.0,0.0,0.0,0.0,0.0,0.0,0.0,0.0,0.0,0.0,0.0,0.0,0.0,0.0,0.0,0.0,0.0,0.0,0.0,0.0,0.0,0.0,0.0,0.0,0.0,0.0,0.0,0.0,0.0,0.0,0.0,0.0,0.0,0.0,0.0,0.0,0.0,0.0,0.0,0.0,0.0,0.0,0.0,0.0,0.0,0.0,0.0,0.0,0.0,0.0,0.0,0.0,0.0,0.0,0.0,0.0,0.0,0.0,0.0,0.0,0.0,0.0,0.0,0.0,0.0,0.0,0.0,0.0,0.0,0.0,0.0,0.0,0.0,0.0,0.0,0.0,0.0,0.0,0.0,0.0,0.0,0.0,0.0,0.0,0.0,0.0,0.0,0.0,0.0,0.0,0.0,0.0,0.0,0.0,0.0,0.0,0.0,0.0,0.0,0.0,0.0,0.0,0.0,0.0,0.0,0.0,0.0,0.0,0.0,0.0,0.0,0.0,0.0,0.0,0.0,0.0,0.0,0.0,0.0,0.0,0.0,0.0,0.0,0.0,0.0,0.0,0.0,0.0,0.0,0.0,0.0,0.0,0.0,0.0,0.0,0.0,0.0,0.0,0.0,0.0,0.0,0.0,0.0,0.0,0.0,0.0,0.0,0.0,0.0,0.0,0.0,0.0,0.0,0.0,0.0,0.0,0.0,0.0,0.0,0.0,0.0,0.0,0.0,0.0,0.0,0.0,0.0,0.0,0.0,0.0,0.0,0.0,0.0,0.0,0.0,0.0,0.0,0.0,0.0,0.0,0.0,0.0,0.0,0.0,0.0,0.0,0.0,0.0,0.0,0.0,0.0,0.0,0.0,0.0,0.0,0.0,0.0,0.0,0.0,0.0,0.0,0.0,0.0,0.0,0.0,0.0,0.0,0.0,0.0,0.0,0.0,0.0,0.0,0.0,0.0,0.0,0.0,0.0,0.0,0.0,0.0,0.0,0.0,0.0,0.0,0.0,0.0,0.0,0.0,0.0,0.0,0.0,0.0,0.0,0.0,0.0,0.0,0.0,0.0,0.0,0.0,0.0,0.0,0.0,0.0,0.0,0.0,0.0,0.0,0.0,0.0,0.0,0.0,0.0,0.0,0.0,0.0,0.0,0.0,0.0,0.0,0.0,0.0,0.0,0.0,0.0,0.0,0.0,0.0,0.0,0.0,0.0,0.0,0.0,0.0,0.0,0.0,0.0,0.0,0.0,0.0,0.0,0.0,0.0,0.0,0.0,0.0,0.0,0.0,0.0,0.0,0.0,0.0,0.0,0.0,0.0,0.0,0.0,0.0,0.0,0.0,0.0,0.0,0.0,0.0,0.0,0.0,0.0,0.0,0.0,0.0,0.0,0.0,0.0,0.0,0.0,0.0,0.0,0.0,0.0,0.0,0.0,0.0,0.0,0.0,0.0,0.0,0.0,0.0,0.0,0.0,0.0,0.0,0.0,0.0,0.0,0.0,0.0,0.0,0.0,0.0,0.0,0.0,0.0,0.0,0.0,0.0,0.0,0.0,0.0,0.0,0.0,0.0,0.0,0.0,0.0,0.0,0.0,0.0,0.0,0.0,0.0,0.0,0.0,0.0,0.0,0.0,0.0,0.0,0.0,0.0,0.0,0.0,0.0,0.0,0.0,0.0,0.0,0.0,0.0,0.0,0.0,0.0,0.0,0.0,0.0,0.0,0.0,0.0,0.0,0.0,0.0,0.0,0.0,0.0,0.0,0.0,0.0,0.0,0.0,0.0,0.0,0.0,0.0,0.0,0.0,0.0,0.0,0.0,0.0,0.0,0.0,0.0,0.0,0.0,0.0,0.0,0.0,0.0,0.0,0.0,0.0,0.0,0.0,0.0,0.0,0.0,0.0,0.0,3.1217,0.0,0.0,0.0,0.0,0.0,0.0,0.0,0.0,0.0,0.0,0.0,0.0,0.0,0.0,0.0,0.0,0.0,0.0,0.0,0.0,0.0,0.0,0.0,0.0,0.0,0.0,0.0,0.0,0.0,0.0,0.0,0.0,0.0,0.0,0.0,0.0,0.0,0.0,0.0,0.0,0.0,0.0,0.0,0.0,0.0,0.0,0.0,0.0,0.0,0.0,0.0,0.0,0.0,0.0,0.0,0.0,0.0,0.0,0.0,0.0,0.0,0.0,0.0,0.0,0.0,0.0,0.0,0.0,0.0,0.0,0.0,0.0,0.0,0.0,0.0,0.0,0.0,0.0,0.0,0.0,0.0,0.0,0.0,0.0,0.0,0.0,0.0,0.0,0.0,0.0,0.0,0.0,0.0,0.0,0.0,0.0,0.0,0.0,0.0,0.0,0.0,0.0,0.0,0.0,0.0,0.0,0.0,0.0,0.0,0.0,0.0,0.0,0.0,0.0,0.0,0.0,3.2084,0.0,0.0,0.0,0.0,0.0,0.0,0.0,0.0,0.0,0.0,0.0,0.0,0.0,0.0,0.0,0.0,0.0,0.0,0.0,0.0,0.0,0.0,0.0,0.0,0.0,0.0,0.0,0.0,0.0,0.0,0.0,0.0,0.0,0.0,0.0,0.0,0.0,0.0,0.0,0.0,0.0,0.0,0.0,0.0,2.8486,0.0,0.0,0.0,0.0,0.0,0.0,0.0,0.0,0.0,0.0,0.0,0.0,0.0,0.0,0.0,0.0,0.0,0.0,0.0,0.0,0.0,0.0,0.0,0.0,0.0,0.0,0.0,0.0,0.0,0.0,0.0,0.0,0.0,0.0,0.0,0.0,0.0,0.0,0.0,0.0,0.0,0.0,0.0,0.0,0.0,0.0,0.0,0.0,0.0,0.0,0.0,0.0,0.0,0.0,0.0,0.0,0.0,0.0,0.0,0.0,0.0,0.0,0.0,0.0,0.0,3.5058,3.4559,3.4409,3.4514,3.4898,3.5164,3.5172,0.0,0.0,0.0,0.0,0.0,0.0,0.0,0.0,0.0,0.0,0.0,0.0,0.0,0.0,0.0,0.0,0.0,0.0,0.0,0.0,0.0,0.0,0.0,0.0,0.0,0.0,0.0,0.0,0.0,0.0,0.0,0.0,0.0,0.0,0.0,0.0,0.0,0.0,0.0,0.0,0.0,0.0,0.0,3.0195,3.0258,0.0,0.0,0.0,0.0,0.0,0.0,0.0,0.0,0.0,0.0,0.0,0.0,0.0,0.0,0.0,0.0,0.0,0.0,0.0,0.0,0.0,0.0,0.0,0.0,0.0,0.0,0.0,0.0,0.0,0.0,0.0,0.0,0.0,0.0,0.0,0.0,0.0,0.0,0.0,0.0,0.0,0.0,2.9636,2.9711,0.0,0.0,0.0,0.0,0.0,0.0,0.0,0.0,0.0,0.0,0.0,0.0,0.0,0.0,3.3487,3.4742,3.5365,3.5305,3.7001,3.7778,3.7762,3.7705,3.7963,3.851,3.8003,0.0,3.4601,3.5059,0.0,0.0,0.0,0.0,0.0,0.0,0.0,0.0,0.0,0.0,0.0,0.0,0.0,0.0,0.0,0.0,0.0,0.0,0.0,0.0,0.0,0.0,0.0,0.0,0.0,0.0,0.0,0.0,0.0,0.0,0.0,0.0,0.0,0.0,0.0,0.0,0.0,0.0,0.0,0.0,0.0,0.0,0.0,0.0,0.0,0.0,0.0,0.0,0.0,0.0,0.0,0.0,0.0,0.0,0.0,0.0,0.0,0.0,0.0,0.0,0.0,0.0,0.0,0.0,0.0,0.0,0.0,0.0,0.0,0.0,0.0,0.0,0.0,0.0,0.0,0.0,0.0,0.0,0.0,0.0,0.0,0.0,0.0,0.0,0.0,3.0126,3.0483,3.1627,3.1679,3.1898,0.0,0.0,0.0,0.0,0.0,0.0,0.0,0.0,0.0,3.6022,3.6059,3.6088,3.6205,3.7556,3.7849,3.7091,3.8745,3.9317,3.8946,3.893,3.9108,3.9434,3.9493,3.8904,3.778,3.723,3.6837,3.6552,0.0,0.0,0.0,0.0,0.0,0.0,0.0,0.0,0.0,0.0,0.0,0.0,0.0,0.0,0.0,0.0,0.0,0.0,0.0,0.0,0.0,0.0,0.0,0.0,0.0,0.0,0.0,0.0,0.0,0.0,0.0,0.0,0.0,0.0,0.0,0.0,0.0,0.0,0.0,0.0,0.0,0.0,0.0,0.0,0.0,0.0,0.0,0.0,0.0,0.0,0.0,0.0,0.0,0.0,0.0,0.0,0.0,0.0,0.0,0.0,0.0,0.0,0.0,0.0,0.0,0.0,0.0,0.0,0.0,0.0,0.0,0.0,0.0,0.0,0.0,0.0,0.0,0.0,0.0,0.0,0.0,0.0,0.0,3.1298,3.1607,3.3233,3.3049,3.3081,0.0,0.0,0.0,0.0,0.0,0.0,3.6358,3.5991,3.6453,3.8035,3.8152,3.8307,3.8583,3.9813,3.9919,3.8957,4.013,4.0432,3.9934,3.9978,3.9978,4.0023,4.0491,4.0743,4.0662,3.9569,3.9016,3.8829,3.8366,3.8388,0.0,3.8925,3.9622,4.0432,0.0,0.0,0.0,0.0,0.0,0.0,0.0,0.0,0.0,0.0,0.0,0.0,0.0,0.0,0.0,0.0,0.0,0.0,0.0,0.0,0.0,0.0,0.0,0.0,0.0,0.0,0.0,0.0,0.0,0.0,0.0,0.0,0.0,0.0,0.0,0.0,0.0,0.0,0.0,0.0,0.0,0.0,0.0,0.0,0.0,0.0,0.0,0.0,0.0,0.0,0.0,0.0,0.0,0.0,0.0,0.0,0.0,0.0,0.0,0.0,0.0,0.0,0.0,0.0,0.0,0.0,0.0,0.0,0.0,0.0,0.0,0.0,0.0,0.0,0.0,0.0,0.0,0.0,0.0,3.3426,3.3455,0.0,0.0,0.0,0.0,3.7093,3.6675,3.7138,3.9111,3.9176,3.9515,4.0313,4.0318,4.0063,3.9437,4.0172,4.0459,4.0383,4.1033,4.1352,4.1295,4.1295,4.1295,4.1295,4.1352,4.1352,4.1352,4.1269,4.0877,4.0394,4.0335,3.9975,3.9547,4.0128,4.0415,4.0567,0.0,0.0,0.0,0.0,0.0,0.0,0.0,0.0,0.0,0.0,0.0,0.0,0.0,0.0,0.0,0.0,0.0,0.0,0.0,0.0,0.0,0.0,0.0,0.0,0.0,0.0,0.0,0.0,0.0,0.0,0.0,0.0,0.0,0.0,0.0,0.0,0.0,0.0,0.0,0.0,0.0,0.0,0.0,0.0,0.0,0.0,0.0,0.0,0.0,0.0,0.0,0.0,0.0,0.0,0.0,0.0,0.0,0.0,0.0,0.0,0.0,0.0,0.0,0.0,0.0,0.0,0.0,0.0,0.0,0.0,0.0,0.0,0.0,0.0,0.0,0.0,0.0,0.0,0.0,3.5248,3.4638,0.0,0.0,3.6921,3.7524,3.8611,3.8942,3.9548,4.0639,3.9909,3.9962,4.1033,4.0684,4.055,4.0727,4.1451,4.1563,4.1128,4.2292,4.2581,4.2206,4.264,4.2833,4.2833,4.2833,4.2833,4.2833,4.2833,4.2154,4.1107,4.1107,4.1213,4.1488,4.1697,4.2068,4.2522,0.0,0.0,0.0,0.0,0.0,0.0,0.0,0.0,0.0,0.0,0.0,0.0,0.0,0.0,0.0,0.0,0.0,0.0,0.0,0.0,0.0,0.0,0.0,0.0,0.0,0.0,0.0,0.0,0.0,0.0,0.0,0.0,0.0,0.0,0.0,0.0,0.0,0.0,0.0,0.0,0.0,0.0,3.6697,0.0,0.0,0.0,0.0,0.0,0.0,0.0,0.0,0.0,0.0,0.0,0.0,0.0,0.0,0.0,0.0,0.0,0.0,0.0,0.0,0.0,0.0,0.0,0.0,0.0,0.0,0.0,0.0,0.0,0.0,0.0,0.0,0.0,0.0,0.0,3.5482,3.6595,3.6181,3.6445,3.7907,3.8531,3.917,4.0025,4.0349,4.0857,4.1716,4.0967,4.1005,4.2096,4.173,4.173,4.2154,4.2651,4.2647,4.2195,4.3125,4.3372,4.2974,4.3432,4.3628,4.3628,4.3628,4.3628,4.3628,4.3628,4.3048,4.2154,4.2154,4.2452,4.2899,4.2899,4.3197,4.3628,0.0,0.0,0.0,0.0,0.0,0.0,0.0,0.0,0.0,0.0,0.0,0.0,0.0,0.0,0.0,0.0,0.0,0.0,0.0,0.0,0.0,0.0,0.0,0.0,0.0,0.0,0.0,0.0,0.0,0.0,0.0,0.0,0.0,0.0,0.0,0.0,0.0,0.0,0.0,0.0,0.0,0.0,3.7518,0.0,0.0,0.0,0.0,0.0,0.0,0.0,0.0,0.0,0.0,0.0,0.0,0.0,0.0,0.0,0.0,0.0,0.0,0.0,0.0,0.0,0.0,0.0,0.0,0.0,0.0,0.0,0.0,0.0,0.0,0.0,0.0,0.0,3.6657,3.6505,3.6759,3.7456,3.8093,3.8806,3.9395,3.9534,4.0071,4.1328,4.0925,4.1177,4.2444,4.2551,4.2883,4.3611,4.3628,4.3628,4.3628,4.3628,4.3628,4.3628,4.3645,4.3661,4.3661,4.3678,4.3694,4.3694,4.3694,4.3694,4.3694,4.3694,4.3694,4.3694,4.3645,4.3628,4.3628,4.3628,4.3628,4.3628,0.0,0.0,0.0,0.0,0.0,0.0,0.0,0.0,0.0,0.0,0.0,0.0,0.0,0.0,0.0,0.0,0.0,0.0,0.0,0.0,0.0,0.0,0.0,0.0,0.0,0.0,0.0,0.0,0.0,0.0,0.0,0.0,0.0,0.0,0.0,0.0,0.0,0.0,0.0,0.0,0.0,0.0,3.8387,0.0,0.0,0.0,0.0,0.0,0.0,0.0,0.0,0.0,0.0,0.0,0.0,0.0,0.0,0.0,0.0,0.0,0.0,0.0,0.0,0.0,0.0,0.0,0.0,0.0,0.0,0.0,0.0,0.0,0.0,0.0,0.0,3.9007,3.8624,3.8608,3.8982,4.0173,3.9638,3.963,4.0738,4.0967,4.133,4.2146,4.2525,4.2921,4.3313,4.333,4.3413,4.3611,4.3628,4.3628,4.3628,4.3628,4.3628,4.3628,4.4141,4.439,4.4423,4.4953,4.5202,4.5202,4.5202,4.5202,4.5202,4.5202,4.5202,4.5086,4.4042,4.3628,4.3628,4.3628,4.3628,4.3628,0.0,0.0,0.0,0.0,0.0,0.0,0.0,0.0,0.0,0.0,0.0,0.0,0.0,0.0,0.0,0.0,0.0,0.0,0.0,0.0,0.0,0.0,0.0,0.0,0.0,0.0,0.0,0.0,0.0,0.0,0.0,0.0,0.0,0.0,0.0,0.0,0.0,0.0,0.0,0.0,0.0,0.0,3.9228,3.8823,3.8924,3.9143,3.8606,3.8355,3.8304,3.8168,0.0,0.0,0.0,0.0,0.0,0.0,0.0,0.0,0.0,0.0,0.0,0.0,0.0,0.0,0.0,0.0,0.0,0.0,0.0,0.0,0.0,0.0,0.0,0.0,4.0238,4.0353,4.0647,4.0418,4.0516,4.1302,4.1004,4.1048,4.1815,4.2242,4.261,4.2923,4.338,4.3628,4.3628,4.3628,4.3628,4.3628,4.3628,4.3761,4.4075,4.4075,4.4224,4.4539,4.4953,4.5152,4.5168,4.5599,4.5798,0.0,4.5798,4.5798,4.5798,4.5798,4.5798,0.0,0.0,0.0,0.0,0.0,4.4522,4.4522,0.0,0.0,0.0,0.0,0.0,0.0,0.0,0.0,0.0,0.0,0.0,0.0,0.0,0.0,0.0,0.0,0.0,0.0,0.0,0.0,0.0,0.0,0.0,0.0,0.0,0.0,0.0,0.0,0.0,0.0,0.0,0.0,0.0,0.0,0.0,0.0,0.0,0.0,0.0,0.0,0.0,0.0,3.9901,4.0037,3.9935,3.9781,3.9849,3.9746,3.9537,3.9501,0.0,0.0,0.0,0.0,0.0,0.0,0.0,0.0,0.0,0.0,0.0,0.0,0.0,0.0,0.0,0.0,0.0,0.0,0.0,0.0,0.0,0.0,0.0,0.0,4.1541,4.1789,4.2535,4.2071,4.1674,4.1674,4.2253,4.2634,4.2634,4.3247,4.3628,4.3628,4.3628,4.3628,4.3628,0.0,0.0,0.0,0.0,4.4092,4.4804,4.4804,4.5135,4.5798,4.5864,4.5914,4.5914,4.5997,4.6046,4.6046,4.6046,4.6046,4.6046,4.6046,4.6046,4.603,4.5847,4.5798,4.5798,4.5798,4.5798,0.0,0.0,0.0,0.0,0.0,0.0,0.0,0.0,0.0,0.0,0.0,0.0,0.0,0.0,0.0,0.0,0.0,0.0,0.0,0.0,0.0,0.0,0.0,0.0,0.0,0.0,0.0,0.0,0.0,0.0,0.0,0.0,0.0,0.0,0.0,0.0,0.0,0.0,0.0,0.0,0.0,0.0,0.0,3.9901,3.9833,3.9884,3.9986,3.9833,3.9833,3.9935,3.959,3.9642,3.9746,3.9432,0.0,0.0,0.0,0.0,0.0,0.0,0.0,0.0,0.0,0.0,0.0,0.0,0.0,0.0,0.0,0.0,0.0,0.0,0.0,0.0,4.2146,4.2303,4.2568,4.3297,4.328,4.3197,4.3197,4.333,4.3413,4.3413,4.3545,4.3628,4.3628,4.3628,4.3628,4.3628,4.3628,0.0,4.4456,4.4473,4.4837,4.5566,4.5582,4.5649,4.5798,0.0,0.0,4.6709,4.7305,4.757,4.757,4.757,4.757,4.757,4.757,4.757,4.7454,4.6262,4.5798,4.5798,4.5798,4.5798,4.5798,0.0,0.0,0.0,0.0,0.0,0.0,0.0,0.0,0.0,0.0,0.0,0.0,0.0,0.0,0.0,0.0,0.0,0.0,0.0,0.0,0.0,0.0,0.0,0.0,0.0,0.0,0.0,0.0,0.0,0.0,0.0,0.0,0.0,0.0,0.0,0.0,0.0,0.0,0.0,0.0,0.0,0.0,4.0822,4.017,3.9935,3.9986,3.9833,3.9833,3.9884,3.9694,3.9642,3.9694,3.9537,3.9484,3.9501,0.0,0.0,0.0,0.0,0.0,0.0,0.0,0.0,0.0,0.0,0.0,0.0,0.0,0.0,4.1972,0.0,0.0,4.2634,4.3015,4.3065,4.3197,4.3578,4.3628,4.3628,4.3628,4.3628,4.3628,4.3628,4.3628,4.3628,4.3628,4.3959,4.4158,4.4158,4.4506,4.487,4.5235,4.5235,4.5599,4.6344,4.6344,4.6527,4.6908,4.7653,4.8001,4.8034,4.8763,4.911,4.911,4.911,4.911,4.911,4.911,4.911,4.9028,4.8299,4.7554,4.6891,4.6891,4.6891,4.6891,0.0,0.0,0.0,0.0,0.0,0.0,0.0,0.0,0.0,0.0,0.0,0.0,0.0,0.0,0.0,0.0,0.0,0.0,0.0,0.0,0.0,0.0,0.0,0.0,0.0,0.0,0.0,0.0,0.0,0.0,0.0,0.0,0.0,0.0,0.0,0.0,0.0,0.0,0.0,0.0,0.0,0.0,4.177,4.0828,4.0425,4.0321,4.0286,4.0217,4.0148,4.0165,4.0077,3.9971,4.006,4.0007,3.9934,3.9864,3.981,0.0,0.0,0.0,0.0,0.0,0.0,0.0,0.0,0.0,4.1674,4.1806,4.2319,4.2734,4.2734,4.323,4.3628,4.3628,4.3628,4.3628,4.3628,4.3628,4.3628,4.3628,4.3628,4.3628,4.3628,4.3628,4.3678,4.381,4.4357,4.4754,4.4903,4.5467,4.5864,4.5997,4.6013,4.6444,4.7322,4.7322,4.7703,4.8431,4.9044,4.9326,4.9342,4.9939,5.022,5.022,5.022,5.022,5.022,5.022,5.022,5.022,5.022,4.9475,4.8431,4.8431,4.8431,4.8431,0.0,0.0,0.0,0.0,0.0,0.0,0.0,0.0,0.0,0.0,0.0,0.0,0.0,0.0,0.0,0.0,0.0,0.0,0.0,0.0,0.0,0.0,0.0,0.0,0.0,0.0,0.0,0.0,0.0,0.0,0.0,0.0,0.0,0.0,0.0,0.0,0.0,0.0,0.0,0.0,0.0,0.0,4.1887,4.172,4.1762,4.1853,4.1707,4.1762,4.1799,4.1707,4.1653,4.1598,4.1488,4.145,4.1411,4.1249,0.0,4.1193,0.0,0.0,0.0,4.1392,4.1409,4.1591,0.0,0.0,4.2585,4.3247,4.3446,4.3495,4.3495,4.3562,4.3628,4.3628,4.3628,4.3628,4.3628,4.3628,4.3628,4.3628,4.3628,4.3628,4.3628,4.3628,4.3893,4.4522,4.4638,4.497,4.5632,4.5748,4.6096,4.6758,4.6775,4.7454,4.8845,4.8862,4.9226,4.9955,5.0055,5.0088,5.0088,5.0171,5.022,5.022,5.022,5.022,5.022,5.022,5.022,5.022,5.022,5.0121,4.9955,4.9955,4.9955,4.9955,0.0,0.0,0.0,0.0,0.0,0.0,0.0,0.0,0.0,0.0,0.0,0.0,0.0,0.0,0.0,0.0,0.0,0.0,0.0,0.0,0.0,0.0,0.0,0.0,0.0,0.0,0.0,0.0,0.0,0.0,0.0,0.0,0.0,0.0,0.0,0.0,0.0,0.0,0.0,0.0,0.0,0.0,4.2891,4.3022,4.3079,4.3019,4.2111,4.1866,0.0,0.0,4.1683,4.1649,4.1794,4.1683,4.1554,4.1554,4.1481,0.0,4.1939,0.0,0.0,0.0,4.27,4.2783,4.3098,4.3164,4.3247,4.3562,4.3628,4.3628,4.3628,4.3628,4.3628,0.0,4.3628,4.3628,4.3628,4.3628,4.3777,4.4191,4.4241,4.4241,4.4241,4.4241,4.4539,4.5268,4.5732,4.6096,4.6411,4.6841,4.7421,4.8166,4.8183,4.868,4.974,4.9756,4.9906,5.022,5.0634,5.0833,5.085,5.128,5.1479,5.1479,5.1479,5.1479,5.1479,5.1479,5.1479,5.1479,5.1479,5.1479,5.138,5.0535,5.022,5.022,0.0,0.0,0.0,0.0,0.0,0.0,0.0,0.0,0.0,0.0,0.0,0.0,0.0,0.0,0.0,0.0,0.0,0.0,0.0,0.0,0.0,0.0,0.0,0.0,0.0,0.0,0.0,0.0,0.0,0.0,0.0,0.0,0.0,0.0,0.0,0.0,0.0,0.0,0.0,0.0,0.0,0.0,4.3628,4.3881,4.3956,4.3764,4.2699,4.2372,0.0,0.0,4.2169,4.2079,4.2339,4.2282,4.2038,4.2152,4.2095,4.2137,4.2684,0.0,0.0,4.3628,4.3628,4.3628,4.3628,4.3628,4.3628,4.3628,4.3628,4.3628,4.3628,4.3628,0.0,4.3628,4.3628,4.3694,4.3893,4.391,4.4191,4.4903,4.4986,4.5069,4.5284,4.5102,4.5301,4.6046,4.6593,4.7073,4.7487,4.8017,4.8647,4.9392,4.9409,4.9773,5.0502,5.0502,5.0618,5.0817,5.133,5.1578,5.1595,5.2142,5.2373,5.2373,5.2373,5.2373,5.2373,5.2373,5.2373,5.2373,5.2373,5.2373,5.2258,5.1197,5.0817,5.0817,0.0,0.0,0.0,0.0,0.0,0.0,0.0,0.0,0.0,0.0,0.0,0.0,0.0,0.0,0.0,0.0,0.0,0.0,0.0,0.0,0.0,0.0,0.0,0.0,0.0,0.0,0.0,0.0,0.0,0.0,0.0,0.0,0.0,0.0,0.0,0.0,0.0,0.0,0.0,0.0,0.0,0.0,4.3628,4.3981,4.3998,4.3898,4.3848,0.0,0.0,0.0,4.3697,4.3562,4.3756,4.3697,0.0,4.3562,4.3562,0.0,0.0,0.0,4.3628,4.3628,4.3628,4.3628,4.3628,4.3628,4.3628,4.3628,4.3628,4.3628,4.3628,4.3628,4.3628,4.3628,4.3628,4.386,4.4556,4.4655,4.4937,4.5665,4.5765,4.6046,0.0,4.6179,4.6063,4.6808,4.6891,4.752,4.8961,4.9061,4.9409,5.0154,5.0187,5.0518,5.1231,5.1247,5.1612,5.2307,5.234,5.2357,5.2357,5.2373,5.2373,5.2373,5.2373,5.2373,5.2373,5.2373,5.2373,5.2373,5.2373,5.2373,5.2373,5.2324,5.2307,5.2307,0.0,0.0,0.0,0.0,0.0,0.0,0.0,0.0,0.0,0.0,0.0,0.0,0.0,0.0,0.0,0.0,0.0,0.0,0.0,0.0,0.0,0.0,0.0,0.0,0.0,0.0,0.0,0.0,0.0,0.0,0.0,0.0,0.0,0.0,0.0,0.0,0.0,0.0,0.0,0.0,0.0,0.0,4.3628,4.3747,4.3747,4.3704,0.0,0.0,0.0,0.0,0.0,0.0,4.3839,0.0,0.0,4.3628,0.0,0.0,0.0,0.0,4.3628,4.3628,4.3628,4.3628,4.3628,4.3628,4.3628,4.3628,4.3628,4.3628,4.3628,4.3628,4.3628,4.3628,4.4026,4.4423,4.4655,4.5102,4.5698,4.6444,4.6527,0.0,0.0,0.0,0.0,4.757,4.8084,4.858,4.9077,4.9574,5.0171,5.0899,5.0916,5.1264,5.1993,5.2009,5.2125,5.2373,5.2373,5.2373,5.2373,5.2373,5.2373,5.2373,5.2373,5.2373,5.2373,5.2373,5.2373,5.2373,5.2373,5.2373,5.2373,5.2373,5.2373,5.2373,0.0,0.0,0.0,0.0,0.0,0.0,0.0,0.0,0.0,0.0,0.0,0.0,0.0,0.0,0.0,0.0,0.0,0.0,0.0,0.0,0.0,0.0,0.0,0.0,0.0,0.0,0.0,0.0,0.0,0.0,0.0,0.0,0.0,0.0,0.0,0.0,0.0,0.0,0.0,0.0,0.0,0.0,4.3628,4.3747,4.3687,0.0,0.0,0.0,0.0,0.0,0.0,0.0,0.0,0.0,0.0,0.0,0.0,0.0,0.0,4.3628,4.3628,4.3628,4.3628,4.3628,4.3628,4.3628,4.3628,4.3628,4.3628,4.3694,4.3959,4.3992,4.4092,4.4357,4.4787,4.5185,4.5433,4.5881,4.646,4.7206,4.7537,0.0,0.0,0.0,0.0,4.8382,4.9077,4.9607,4.9872,5.0336,5.0916,5.1645,5.1661,5.1893,5.2373,5.2373,5.2373,5.2373,5.2373,5.2373,5.2373,5.2373,5.2373,5.2373,5.2373,5.2373,5.2407,5.2655,5.2754,5.2771,5.3036,5.3152,5.3152,5.3152,5.3152,5.3069,0.0,0.0,0.0,0.0,0.0,0.0,0.0,0.0,0.0,0.0,0.0,0.0,0.0,0.0,0.0,0.0,0.0,0.0,0.0,0.0,0.0,0.0,0.0,0.0,0.0,0.0,0.0,0.0,0.0,0.0,0.0,0.0,0.0,0.0,0.0,0.0,0.0,0.0,0.0,0.0,0.0,0.0,4.3578,4.3906,0.0,0.0,0.0,0.0,0.0,0.0,0.0,0.0,0.0,0.0,0.0,0.0,0.0,4.3628,4.3628,4.3628,4.3628,4.3628,4.3628,4.3628,4.3628,4.3628,4.3628,4.3628,4.3661,4.3893,0.0,0.0,4.497,4.5682,4.5814,4.6096,4.6792,4.6924,4.7222,0.0,0.0,0.0,0.0,0.0,0.0,4.9276,0.0,5.0568,5.1231,5.1313,5.1661,5.2357,5.2373,5.2373,5.2373,5.2373,5.2373,5.2373,5.2373,5.2407,5.244,5.244,5.2456,5.2489,5.2489,5.2489,5.2539,5.3202,5.3483,5.3549,5.4245,5.4527,5.4527,5.4527,5.4527,5.4328,0.0,0.0,0.0,0.0,0.0,0.0,0.0,0.0,0.0,0.0,0.0,0.0,0.0,0.0,0.0,0.0,0.0,0.0,0.0,0.0,0.0,0.0,0.0,0.0,0.0,0.0,0.0,0.0,0.0,0.0,0.0,0.0,0.0,0.0,0.0,0.0,0.0,0.0,0.0,0.0,0.0,0.0,4.2866,0.0,0.0,0.0,0.0,0.0,0.0,0.0,0.0,0.0,0.0,0.0,4.3628,0.0,0.0,4.3628,4.3628,4.3628,4.3628,4.3628,4.3628,4.3628,4.3628,4.3628,4.3628,4.3628,4.4042,4.4473,0.0,0.0,0.0,4.5765,4.6245,0.0,4.6874,4.7371,0.0,0.0,0.0,4.9326,4.9889,5.0585,0.0,0.0,5.0899,5.1082,5.1264,5.1794,5.2191,5.2373,5.2373,5.2373,5.2373,5.2373,5.2373,5.2373,5.2373,5.2655,5.3152,5.3152,5.345,5.3964,5.3964,5.3964,5.3997,5.4162,5.4245,5.4262,5.4444,5.4527,5.4527,5.4527,5.4527,5.4477,0.0,0.0,0.0,0.0,0.0,0.0,0.0,0.0,0.0,0.0,0.0,0.0,0.0,0.0,0.0,0.0,0.0,0.0,0.0,0.0,0.0,0.0,0.0,0.0,0.0,0.0,0.0,0.0,0.0,0.0,0.0,0.0,0.0,0.0,0.0,0.0,0.0,0.0,0.0,0.0,0.0,0.0,0.0,0.0,0.0,0.0,0.0,0.0,0.0,0.0,0.0,4.3628,4.3628,4.3628,4.3628,4.3628,0.0,4.3628,4.3628,4.3628,4.3628,4.3628,4.3628,4.3628,4.3628,4.3628,4.3711,4.4026,4.4406,0.0,0.0,0.0,0.0,0.0,0.0,0.0,4.7388,4.8017,4.8647,0.0,4.9674,0.0,5.0634,5.133,5.1761,0.0,5.1761,5.1761,5.1761,5.2158,5.2373,5.2373,5.2373,5.2373,5.2373,5.2672,5.2837,5.2837,5.3169,5.3516,5.3897,5.3897,5.4129,5.4527,0.0,5.4527,5.4543,5.4875,5.5007,5.5024,5.5355,5.5471,5.5471,5.5471,5.5471,5.5471,0.0,0.0,0.0,0.0,0.0,0.0,0.0,0.0,0.0,0.0,0.0,0.0,0.0,0.0,0.0,0.0,0.0,0.0,0.0,0.0,0.0,0.0,0.0,0.0,0.0,0.0,0.0,0.0,0.0,0.0,0.0,0.0,0.0,0.0,0.0,0.0,0.0,0.0,0.0,0.0,0.0,0.0,0.0,0.0,0.0,0.0,0.0,0.0,0.0,0.0,4.3628,4.3628,4.3628,4.3628,4.3628,4.3628,4.3628,4.3628,4.3628,4.3628,4.3628,4.3628,4.3628,4.3628,4.3628,4.3694,4.3943,4.4556,0.0,0.0,4.6659,0.0,4.7255,4.7901,0.0,4.8001,4.8001,4.863,4.9144,4.9243,5.0452,5.1313,5.1413,5.1993,5.2373,5.2373,5.2445,5.2445,5.2373,5.2373,5.2373,5.2373,5.2445,5.2495,5.2523,5.3119,5.3467,5.3566,5.4212,5.4576,5.4676,5.4676,5.4725,5.4808,0.0,0.0,5.4858,5.5504,5.5769,5.5819,5.6448,5.668,5.668,5.668,5.668,5.668,0.0,0.0,0.0,0.0,0.0,0.0,0.0,0.0,0.0,0.0,0.0,0.0,0.0,0.0,0.0,0.0,0.0,0.0,0.0,0.0,0.0,0.0,0.0,0.0,0.0,0.0,0.0,0.0,0.0,0.0,0.0,0.0,0.0,0.0,0.0,0.0,0.0,0.0,0.0,0.0,0.0,0.0,0.0,0.0,0.0,0.0,0.0,0.0,0.0,0.0,4.3628,4.3628,4.3628,4.3628,4.3628,4.3628,4.3628,4.3628,4.3628,4.3628,4.3628,4.3628,4.3628,4.3628,4.3628,4.4075,0.0,0.0,0.0,4.6593,4.6841,4.7404,0.0,4.7984,0.0,0.0,0.0,0.0,4.9342,0.0,0.0,0.0,0.0,0.0,0.0,0.0,0.0,0.0,5.239,5.2373,5.2373,5.2373,5.2499,5.2782,5.3218,5.3351,5.3715,5.4328,5.446,5.4841,5.5438,5.5438,5.5752,5.6316,0.0,0.0,5.6316,5.6448,5.6498,5.6514,5.663,5.668,5.668,5.668,5.668,5.668,0.0,0.0,0.0,0.0,0.0,0.0,0.0,0.0,0.0,0.0,0.0,0.0,0.0,0.0,0.0,0.0,0.0,0.0,0.0,0.0,0.0,0.0,0.0,0.0,0.0,0.0,0.0,0.0,0.0,0.0,0.0,0.0,0.0,0.0,0.0,0.0,0.0,0.0,0.0,0.0,0.0,0.0,0.0,0.0,0.0,0.0,0.0,0.0,0.0,0.0,4.3628,4.3628,4.3628,4.3628,4.3628,4.3628,4.3628,4.3628,4.3628,4.3628,4.3628,4.3628,4.3628,4.3628,4.3628,0.0,0.0,0.0,0.0,4.7007,4.7404,0.0,0.0,0.0,0.0,0.0,0.0,0.0,0.0,0.0,0.0,0.0,0.0,0.0,0.0,0.0,0.0,0.0,5.2499,5.2499,5.2611,5.2904,5.2975,5.3324,5.398,5.4378,5.4742,5.5106,5.5471,5.5835,5.6183,5.6183,5.6365,5.668,0.0,0.0,5.668,5.668,5.668,5.668,5.668,5.668,5.668,5.668,5.668,5.668,0.0,0.0,0.0,0.0,0.0,0.0,0.0,0.0,0.0,0.0,0.0,0.0,0.0,0.0,0.0,0.0,0.0,0.0,0.0,0.0,0.0,0.0,0.0,0.0,0.0,0.0,0.0,0.0,0.0,0.0,0.0,0.0,0.0,0.0,0.0,0.0,0.0,0.0,0.0,0.0,0.0,0.0,0.0,0.0,0.0,0.0,0.0,0.0,0.0,0.0,4.3628,4.3628,4.3628,4.3628,4.3628,4.3628,4.3628,4.3628,4.3628,4.3628,4.3628,4.3628,4.3628,4.3628,4.3628,4.4291,0.0,0.0,0.0,0.0,0.0,0.0,0.0,0.0,0.0,0.0,0.0,0.0,0.0,0.0,0.0,0.0,0.0,0.0,0.0,0.0,0.0,0.0,0.0,5.2857,5.3119,5.3632,5.3649,5.3997,5.4742,5.5338,5.5703,5.5852,5.6415,5.668,5.668,5.668,5.668,5.668,0.0,0.0,0.0,5.668,5.668,5.6713,5.6862,5.6928,5.6945,5.7094,5.716,5.716,0.0,0.0,0.0,0.0,0.0,0.0,0.0,0.0,0.0,0.0,0.0,0.0,0.0,0.0,0.0,0.0,0.0,0.0,0.0,0.0,0.0,0.0,0.0,0.0,0.0,0.0,0.0,0.0,0.0,0.0,0.0,0.0,0.0,0.0,0.0,0.0,0.0,0.0,0.0,0.0,0.0,0.0,0.0,0.0,0.0,0.0,0.0,0.0,0.0,0.0,0.0,4.3628,4.3628,4.3628,4.3628,4.3628,0.0,0.0,4.3628,4.3628,4.3628,4.3628,4.3628,4.3628,4.3628,0.0,0.0,0.0,4.6924,4.7918,0.0,0.0,0.0,0.0,0.0,0.0,0.0,0.0,0.0,0.0,0.0,0.0,0.0,0.0,0.0,0.0,0.0,0.0,0.0,5.3766,5.4028,5.4394,5.4559,5.4924,5.5521,5.5603,5.5951,5.6597,5.6663,5.668,5.668,5.668,5.668,5.668,0.0,0.0,0.0,5.668,5.668,5.6763,5.7425,5.769,5.7773,5.8436,5.8701,5.8701,0.0,0.0,0.0,0.0,0.0,0.0,0.0,0.0,0.0,0.0,0.0,0.0,0.0,0.0,0.0,0.0,0.0,0.0,0.0,0.0,0.0,0.0,0.0,0.0,0.0,0.0,0.0,0.0,0.0,0.0,0.0,0.0,0.0,0.0,0.0,0.0,0.0,0.0,0.0,0.0,0.0,0.0,0.0,0.0,0.0,0.0,0.0,0.0,0.0,0.0,0.0,0.0,4.3628,4.3628,0.0,0.0,4.3628,4.3628,4.3628,4.3628,4.3628,4.3628,4.3628,4.3628,4.3628,0.0,0.0,4.5798,4.6974,4.8001,4.8001,4.8001,0.0,0.0,0.0,0.0,0.0,0.0,0.0,0.0,0.0,0.0,0.0,0.0,0.0,0.0,0.0,0.0,0.0,5.4445,5.4722,5.5156,5.5264,5.5613,5.6266,5.6266,5.6398,5.668,5.668,5.668,5.668,5.668,5.668,5.668,0.0,0.0,0.0,5.716,5.7342,5.7425,5.8171,5.8452,5.8485,5.8784,5.8899,5.8899,0.0,0.0,0.0,0.0,0.0,0.0,0.0,0.0,0.0,0.0,0.0,0.0,0.0,0.0,0.0,0.0,0.0,0.0,0.0,0.0,0.0,0.0,0.0,0.0,0.0,0.0,0.0,0.0,0.0,0.0,0.0,0.0,0.0,0.0,0.0,0.0,0.0,0.0,0.0,0.0,0.0,0.0,0.0,0.0,0.0,0.0,0.0,0.0,0.0,0.0,0.0,0.0,0.0,0.0,0.0,0.0,4.3628,4.3628,4.3628,4.3628,4.3628,4.3628,4.3628,4.3628,0.0,0.0,0.0,4.5748,4.6792,4.7736,4.7968,4.8001,4.8001,4.8001,4.8001,4.8001,0.0,0.0,0.0,0.0,0.0,0.0,0.0,0.0,0.0,0.0,0.0,0.0,0.0,5.5264,5.5555,5.5918,5.5951,5.6183,5.668,5.668,5.668,5.668,5.668,5.668,5.668,5.668,5.668,0.0,0.0,0.0,0.0,5.7806,5.8121,5.8187,5.8933,5.9231,5.9247,5.9463,5.9545,5.9545,0.0,0.0,0.0,0.0,0.0,0.0,0.0,0.0,0.0,0.0,0.0,0.0,0.0,0.0,0.0,0.0,0.0,0.0,0.0,0.0,0.0,0.0,0.0,0.0,0.0,0.0,0.0,0.0,0.0,0.0,0.0,0.0,0.0,0.0,0.0,0.0,0.0,0.0,0.0,0.0,0.0,0.0,0.0,0.0,0.0,0.0,0.0,0.0,0.0,0.0,0.0,0.0,0.0,0.0,0.0,0.0,4.3628,4.3628,4.3628,4.3628,4.3628,4.3628,4.3628,4.3628,0.0,0.0,0.0,4.5632,4.6394,4.7123,4.7868,4.8001,4.8001,4.8001,4.8001,4.8001,4.8001,0.0,0.0,0.0,0.0,0.0,0.0,0.0,0.0,0.0,0.0,0.0,0.0,0.0,5.6663,5.668,5.668,5.668,5.668,5.668,5.668,5.668,5.668,5.668,5.668,5.668,0.0,0.0,0.0,0.0,0.0,5.8585,5.8883,5.8966,5.9694,5.9993,6.0075,6.0821,6.1086,6.1086,0.0,0.0,0.0,0.0,0.0,0.0,0.0,0.0,0.0,0.0,0.0,0.0,0.0,0.0,0.0,0.0,0.0,0.0,0.0,0.0,0.0,0.0,0.0,0.0,0.0,0.0,0.0,0.0,0.0,0.0,0.0,0.0,0.0,0.0,0.0,0.0,0.0,0.0,0.0,0.0,0.0,0.0,0.0,0.0,0.0,0.0,0.0,0.0,0.0,0.0,0.0,0.0,0.0,0.0,0.0,0.0,0.0,0.0,4.3628,4.3628,4.3628,4.3628,4.3628,4.3628,4.3628,0.0,0.0,0.0,0.0,4.7123,4.7868,4.8001,4.8001,4.8001,4.8001,4.8001,0.0,0.0,0.0,0.0,0.0,0.0,0.0,0.0,0.0,0.0,0.0,0.0,0.0,0.0,5.668,5.668,5.668,5.668,5.668,5.668,5.668,5.668,5.668,5.668,5.668,5.668,0.0,0.0,0.0,0.0,0.0,5.9347,5.9645,5.9728,6.0473,6.0755,6.0788,6.102,6.1102,6.1102,0.0,0.0,0.0,0.0,0.0,0.0,0.0,0.0,0.0,0.0,0.0,0.0,0.0,0.0,0.0,0.0,0.0,0.0,0.0,0.0,0.0,0.0,0.0,0.0,0.0,0.0,0.0,0.0,0.0,0.0,0.0,0.0,0.0,0.0,0.0,0.0,0.0,0.0,0.0,0.0,0.0,0.0,0.0,0.0,0.0,0.0,0.0,0.0,0.0,0.0,0.0,0.0,0.0,0.0,0.0,0.0,0.0,0.0,0.0,4.3628,4.3628,4.3628,4.3628,0.0,0.0,0.0,0.0,0.0,0.0,0.0,4.7819,4.8001,4.8001,4.8001,4.8001,4.8001,4.8001,0.0,0.0,0.0,0.0,0.0,0.0,0.0,0.0,0.0,0.0,0.0,0.0,0.0,5.668,5.668,5.668,5.6757,5.6834,5.6834,5.6834,5.6911,5.6834,5.6834,5.6851,0.0,0.0,0.0,0.0,0.0,0.0,6.0109,6.0423,6.0456,6.0937,6.1102,6.1102,6.1102,6.1102,6.1102,0.0,0.0,0.0,0.0,0.0,0.0,0.0,0.0,0.0,0.0,0.0,0.0,0.0,0.0,0.0,0.0,0.0,0.0,0.0,0.0,0.0,0.0,0.0,0.0,0.0,0.0,0.0,0.0,0.0,0.0,0.0,0.0,0.0,0.0,0.0,0.0,0.0,0.0,0.0,0.0,0.0,0.0,0.0,0.0,0.0,0.0,0.0,0.0,0.0,0.0,0.0,0.0,0.0,0.0,0.0,0.0,0.0,0.0,0.0,0.0,0.0,0.0,0.0,0.0,0.0,0.0,0.0,0.0,0.0,0.0,0.0,4.8001,4.8001,4.8001,4.8001,4.8001,4.8001,0.0,0.0,0.0,0.0,0.0,0.0,0.0,0.0,0.0,0.0,0.0,0.0,0.0,0.0,5.668,5.668,5.6757,5.6987,5.6987,5.7139,5.7289,5.7063,5.6987,5.702,5.7537,0.0,0.0,0.0,0.0,0.0,6.0821,6.1102,6.1102,6.1102,6.1102,6.1102,6.1102,6.1102,6.1102,0.0,0.0,0.0,0.0,0.0,0.0,0.0,0.0,0.0,0.0,0.0,0.0,0.0,0.0,0.0,0.0,0.0,0.0,0.0,0.0,0.0,0.0,0.0,0.0,0.0,0.0,0.0,0.0,0.0,0.0,0.0,0.0,0.0,0.0,0.0,0.0,0.0,0.0,0.0,0.0,0.0,0.0,0.0,0.0,0.0,0.0,3.9148,0.0,0.0,0.0,0.0,0.0,0.0,0.0,0.0,0.0,0.0,0.0,0.0,0.0,0.0,0.0,0.0,0.0,0.0,0.0,0.0,0.0,0.0,0.0,0.0,4.8001,4.8001,4.8001,4.8001,4.8001,4.8001,0.0,0.0,0.0,0.0,0.0,0.0,0.0,0.0,0.0,0.0,0.0,0.0,0.0,0.0,5.668,5.668,5.6757,5.6987,5.6987,5.7139,5.7289,5.6911,5.6834,5.702,5.7537,0.0,0.0,0.0,0.0,6.0854,6.1036,6.1102,6.1102,6.1102,6.1102,6.1102,6.1102,6.1102,6.1102,0.0,0.0,0.0,0.0,0.0,0.0,0.0,0.0,0.0,0.0,0.0,0.0,0.0,0.0,0.0,0.0,0.0,0.0,0.0,0.0,0.0,0.0,0.0,0.0,0.0,0.0,0.0,0.0,0.0,0.0,0.0,0.0,0.0,0.0,0.0,0.0,0.0,0.0,0.0,0.0,0.0,0.0,0.0,0.0,0.0,0.0,3.9077,3.9537,0.0,4.0696,4.1409,4.2137,0.0,0.0,0.0,0.0,0.0,0.0,0.0,0.0,0.0,0.0,0.0,0.0,0.0,0.0,0.0,0.0,0.0,0.0,0.0,0.0,0.0,4.8001,4.8001,0.0,0.0,0.0,0.0,0.0,0.0,0.0,0.0,0.0,0.0,0.0,0.0,0.0,0.0,0.0,0.0,0.0,5.6911,5.6987,5.6987,5.7063,5.7214,5.7439,5.7214,5.7322,5.7825,5.8347,0.0,0.0,0.0,0.0,6.1252,6.1252,6.1169,6.1102,6.1102,6.1102,6.1102,6.1102,6.1102,6.1102,0.0,0.0,0.0,0.0,0.0,0.0,0.0,0.0,0.0,0.0,0.0,0.0,0.0,0.0,0.0,0.0,0.0,0.0,0.0,0.0,0.0,0.0,0.0,0.0,0.0,0.0,0.0,0.0,0.0,0.0,0.0,0.0,0.0,0.0,0.0,0.0,0.0,0.0,0.0,0.0,0.0,0.0,0.0,0.0,0.0,0.0,0.0,0.0,0.0,4.0133,4.0845,4.1541,4.2286,0.0,0.0,0.0,0.0,0.0,0.0,0.0,0.0,4.3628,4.3628,0.0,0.0,0.0,0.0,0.0,0.0,0.0,0.0,0.0,0.0,0.0,0.0,0.0,0.0,0.0,0.0,0.0,0.0,0.0,0.0,0.0,0.0,0.0,0.0,0.0,0.0,0.0,0.0,0.0,5.7122,5.7289,5.6987,5.7214,5.7439,5.7662,5.7588,5.7992,5.8732,5.9259,0.0,0.0,0.0,0.0,6.1611,6.1611,6.1465,6.1252,6.1252,6.1169,6.1102,6.1102,6.1186,6.1334,0.0,0.0,0.0,0.0,0.0,0.0,0.0,0.0,0.0,0.0,0.0,0.0,0.0,0.0,0.0,0.0,0.0,0.0,0.0,0.0,0.0,0.0,0.0,0.0,0.0,0.0,0.0,0.0,0.0,0.0,0.0,0.0,0.0,0.0,0.0,0.0,0.0,0.0,0.0,0.0,0.0,0.0,0.0,0.0,0.0,0.0,0.0,0.0,0.0,3.9935,4.0845,4.1541,4.2286,0.0,0.0,0.0,0.0,0.0,4.3628,4.3628,4.3628,4.3628,4.3628,4.3628,0.0,0.0,0.0,0.0,0.0,0.0,0.0,0.0,0.0,0.0,0.0,0.0,0.0,0.0,0.0,0.0,0.0,0.0,0.0,0.0,0.0,0.0,0.0,0.0,0.0,0.0,0.0,0.0,5.7406,5.7463,5.6987,5.7364,5.7662,5.7881,5.7514,5.7825,5.8732,5.9259,5.9918,0.0,0.0,6.1997,6.2453,6.2453,6.2279,6.2122,6.2122,6.1692,6.1102,6.1102,6.1547,6.2201,0.0,0.0,0.0,0.0,0.0,0.0,0.0,0.0,0.0,0.0,0.0,0.0,0.0,0.0,0.0,0.0,0.0,0.0,0.0,0.0,0.0,0.0,0.0,0.0,0.0,0.0,0.0,0.0,0.0,0.0,0.0,0.0,0.0,0.0,0.0,0.0,0.0,0.0,0.0,0.0,0.0,0.0,0.0,0.0,0.0,0.0,0.0,0.0,0.0,0.0,4.0514,4.1475,4.1806,0.0,0.0,0.0,0.0,0.0,4.3628,4.3628,4.3628,4.3628,4.3628,0.0,0.0,0.0,0.0,0.0,0.0,0.0,0.0,0.0,0.0,0.0,0.0,0.0,0.0,0.0,0.0,0.0,0.0,0.0,0.0,0.0,0.0,0.0,0.0,0.0,0.0,0.0,0.0,0.0,5.8353,5.83,5.7775,5.8065,5.801,5.7735,5.7662,5.8457,6.0074,6.0342,6.1257,6.2798,0.0,6.3371,6.3501,6.3371,6.3222,6.3073,6.2905,6.2693,6.2324,6.2324,6.254,6.298,0.0,0.0,0.0,0.0,0.0,0.0,0.0,0.0,0.0,0.0,0.0,0.0,0.0,0.0,0.0,0.0,0.0,0.0,0.0,0.0,0.0,0.0,0.0,0.0,0.0,0.0,0.0,0.0,0.0,0.0,0.0,0.0,0.0,0.0,0.0,0.0,0.0,0.0,0.0,0.0,0.0,0.0,0.0,0.0,0.0,0.0,0.0,0.0,0.0,0.0,0.0,0.0,0.0,0.0,0.0,4.3628,4.3628,4.3628,4.3628,4.3628,4.3628,0.0,0.0,0.0,0.0,0.0,0.0,0.0,0.0,0.0,0.0,0.0,0.0,0.0,0.0,0.0,0.0,0.0,0.0,0.0,0.0,0.0,0.0,0.0,0.0,0.0,0.0,0.0,0.0,0.0,0.0,0.0,5.918,5.913,5.8598,5.8754,5.8545,5.792,5.8065,5.9316,6.1467,6.1467,6.2579,6.4601,6.4601,6.4583,6.4566,6.441,6.4201,6.3989,6.3829,6.3684,6.3466,6.3684,6.3684,6.3702,0.0,0.0,0.0,0.0,0.0,0.0,0.0,0.0,0.0,0.0,0.0,0.0,0.0,0.0,0.0,0.0,0.0,0.0,0.0,0.0,0.0,0.0,0.0,0.0,0.0,0.0,0.0,0.0,0.0,0.0,0.0,0.0,0.0,0.0,0.0,0.0,0.0,0.0,0.0,0.0,0.0,0.0,0.0,0.0,0.0,0.0,0.0,0.0,0.0,0.0,0.0,0.0,0.0,0.0,0.0,4.3628,4.3628,4.3628,4.3628,4.3628,4.3628,0.0,0.0,0.0,0.0,0.0,0.0,0.0,0.0,0.0,0.0,0.0,0.0,0.0,0.0,0.0,0.0,0.0,0.0,0.0,0.0,0.0,0.0,0.0,0.0,0.0,0.0,0.0,0.0,0.0,0.0,0.0,0.0,5.9661,5.913,5.9297,5.9163,5.8841,5.8823,6.0045,6.2235,6.2235,6.3076,6.4601,6.4601,6.4856,6.532,6.5338,6.5189,6.4972,6.4972,6.441,6.3791,6.4514,6.4652,6.4601,0.0,0.0,0.0,0.0,0.0,0.0,0.0,0.0,0.0,0.0,0.0,0.0,0.0,0.0,0.0,0.0,0.0,0.0,0.0,0.0,0.0,0.0,0.0,0.0,0.0,0.0,0.0,0.0,0.0,0.0,0.0,0.0,0.0,0.0,0.0,0.0,0.0,0.0,0.0,0.0,0.0,0.0,0.0,0.0,0.0,0.0,0.0,0.0,0.0,0.0,0.0,0.0,0.0,0.0,0.0,4.3628,4.3628,4.3628,4.3628,4.3628,4.3628,0.0,0.0,0.0,0.0,0.0,0.0,0.0,0.0,0.0,0.0,0.0,0.0,0.0,0.0,0.0,0.0,0.0,0.0,0.0,0.0,0.0,0.0,0.0,0.0,0.0,0.0,0.0,0.0,0.0,0.0,0.0,0.0,6.0477,6.003,6.003,6.0156,6.0202,5.9756,6.0774,6.2949,6.2949,6.4073,6.5967,6.5967,6.611,6.6251,6.6172,6.603,6.5967,6.5905,6.5568,6.5141,6.5504,6.5457,6.5427,0.0,0.0,0.0,0.0,0.0,0.0,0.0,0.0,0.0,0.0,0.0,0.0,0.0,0.0,0.0,0.0,0.0,0.0,0.0,0.0,0.0,0.0,0.0,0.0,0.0,0.0,0.0,0.0,0.0,0.0,0.0,0.0,0.0,0.0,0.0,0.0,0.0,0.0,0.0,0.0,0.0,0.0,0.0,0.0,0.0,0.0,0.0,0.0,0.0,0.0,0.0,0.0,0.0,0.0,0.0,0.0,4.3628,4.3687,4.3687,4.3747,4.3747,4.3747,0.0,0.0,0.0,0.0,0.0,0.0,0.0,0.0,0.0,0.0,0.0,0.0,0.0,0.0,0.0,0.0,0.0,0.0,0.0,0.0,0.0,0.0,0.0,0.0,0.0,0.0,0.0,0.0,0.0,0.0,0.0,0.0,6.0765,6.0825,6.1022,6.1257,6.1116,6.1978,6.3741,6.401,6.5053,6.6804,6.6804,6.6804,6.6804,6.6668,6.659,6.659,6.647,6.633,6.6128,6.6128,6.6083,6.5976,0.0,0.0,0.0,0.0,0.0,0.0,0.0,0.0,0.0,0.0,0.0,0.0,0.0,0.0,0.0,0.0,0.0,0.0,0.0,0.0,0.0,0.0,0.0,0.0,0.0,0.0,0.0,0.0,0.0,0.0,0.0,0.0,0.0,0.0,0.0,0.0,0.0,0.0,0.0,0.0,0.0,0.0,0.0,0.0,0.0,0.0,0.0,0.0,0.0,0.0,0.0,0.0,0.0,0.0,0.0,4.3628,4.3763,4.3898,4.3898,4.3998,4.4097,0.0,0.0,0.0,0.0,0.0,0.0,0.0,0.0,0.0,0.0,0.0,0.0,0.0,0.0,0.0,0.0,0.0,0.0,0.0,0.0,0.0,0.0,0.0,0.0,0.0,0.0,0.0,0.0,0.0,0.0,0.0,0.0,0.0,6.131,6.1615,6.1802,6.1802,6.2765,6.3617,6.4414,6.5229,6.6044,6.6804,6.6804,6.6804,6.6804,6.6804,6.6804,6.6804,6.6804,6.6668,6.6512,6.6512,6.6409,6.6287,0.0,0.0,0.0,0.0,0.0,0.0,0.0,0.0,0.0,0.0,0.0,0.0,0.0,0.0,0.0,0.0,0.0,0.0,0.0,0.0,0.0,0.0,0.0,0.0,0.0,0.0,0.0,0.0,0.0,0.0,0.0,0.0,0.0,0.0,0.0,0.0,0.0,0.0,0.0,0.0,0.0,0.0,0.0,0.0,0.0,0.0,0.0,0.0,0.0,0.0,0.0,0.0,0.0,0.0,0.0,4.3628,4.3628,4.3704,4.3839,0.0,0.0,0.0,0.0,0.0,0.0,0.0,0.0,0.0,0.0,0.0,0.0,0.0,0.0,0.0,0.0,0.0,0.0,0.0,0.0,0.0,0.0,0.0,0.0,0.0,0.0,0.0,0.0,0.0,0.0,0.0,0.0,0.0,0.0,0.0,6.1672,6.1746,6.1858,6.1987,6.3382,6.416,6.4414,6.5229,6.6044,6.6804,6.6804,6.6804,6.6804,6.6804,6.6804,6.6804,6.6804,6.6668,6.6512,6.6512,6.6409,6.6287,0.0,0.0,0.0,0.0,0.0,0.0,0.0,0.0,0.0,0.0,0.0,0.0,0.0,0.0,0.0,0.0,0.0,0.0,0.0,0.0,0.0,0.0,0.0,0.0,0.0,0.0,0.0,0.0,0.0,0.0,0.0,0.0,0.0,0.0,0.0,0.0,0.0,0.0,0.0,0.0,0.0,0.0,0.0,0.0,0.0,0.0,0.0,0.0,0.0,0.0,0.0,0.0,0.0,0.0,0.0,4.3805,4.3864,4.3906,0.0,0.0,0.0,0.0,0.0,0.0,0.0,0.0,0.0,0.0,0.0,0.0,0.0,0.0,0.0,0.0,0.0,0.0,0.0,0.0,0.0,0.0,0.0,0.0,0.0,0.0,0.0,0.0,0.0,0.0,0.0,0.0,0.0,0.0,0.0,0.0,6.1802,6.1858,6.2058,6.2494,6.378,6.4559,6.4903,6.5718,6.6333,6.6804,6.6804,6.6804,6.6804,6.6804,6.6804,6.6804,6.6804,6.6745,6.659,6.659,6.6548,6.6488,0.0,0.0,0.0,0.0,0.0,0.0,0.0,0.0,0.0,0.0,0.0,0.0,0.0,0.0,0.0,0.0,0.0,0.0,0.0,0.0,0.0,0.0,0.0,0.0,0.0,0.0,0.0,0.0,0.0,0.0,0.0,0.0,0.0,0.0,0.0,0.0,0.0,0.0,0.0,0.0,0.0,0.0,0.0,0.0,0.0,0.0,0.0,0.0,0.0,0.0,0.0,0.0,0.0,0.0,4.4097,4.4097,4.4212,0.0,0.0,0.0,0.0,0.0,0.0,0.0,0.0,0.0,0.0,0.0,0.0,0.0,0.0,0.0,0.0,0.0,0.0,0.0,0.0,0.0,0.0,0.0,0.0,0.0,0.0,0.0,0.0,0.0,0.0,0.0,0.0,0.0,0.0,0.0,0.0,0.0,6.1802,6.1969,6.2404,0.0,6.4015,6.4812,6.5627,6.6442,6.6804,6.6804,6.6804,6.6804,6.6804,6.6804,6.6804,6.6804,6.6804,6.6804,6.6804,6.6804,6.6804,6.6804,0.0,0.0,0.0,0.0,0.0,0.0,0.0,0.0,0.0,0.0,0.0,0.0,0.0,0.0,0.0,0.0,0.0,0.0,0.0,0.0,0.0,0.0,0.0,0.0,0.0,0.0,0.0,0.0,0.0,0.0,0.0,0.0,0.0,0.0,0.0,0.0,0.0,0.0,0.0,0.0,0.0,0.0,0.0,0.0,0.0,0.0,0.0,0.0,0.0,0.0,0.0,0.0,4.4105,4.4155,4.4253,4.4155,4.4097,0.0,0.0,0.0,0.0,0.0,0.0,0.0,0.0,0.0,0.0,0.0,0.0,0.0,0.0,0.0,0.0,0.0,0.0,0.0,0.0,0.0,0.0,0.0,0.0,0.0,0.0,0.0,0.0,0.0,0.0,0.0,0.0,0.0,0.0,0.0,0.0,6.1969,6.1969,6.1969,6.2404,0.0,6.4015,6.4812,6.5627,6.6442,6.6804,6.6804,6.6804,6.6804,6.6804,6.6804,6.6804,6.6804,6.6804,6.6804,6.6804,6.6804,6.6804,6.6804,0.0,0.0,0.0,0.0,0.0,0.0,0.0,0.0,0.0,0.0,0.0,0.0,0.0,0.0,0.0,0.0,0.0,0.0,0.0,0.0,0.0,0.0,0.0,0.0,0.0,0.0,0.0,0.0,0.0,0.0,0.0,0.0,0.0,0.0,0.0,0.0,0.0,0.0,0.0,0.0,0.0,0.0,0.0,0.0,0.0,0.0,0.0,0.0,0.0,0.0,0.0,0.0,0.0,0.0,4.444,4.4344,4.4344,0.0,0.0,0.0,0.0,0.0,0.0,0.0,0.0,0.0,0.0,0.0,0.0,0.0,0.0,0.0,0.0,0.0,0.0,0.0,0.0,0.0,0.0,0.0,0.0,0.0,0.0,0.0,0.0,0.0,0.0,0.0,0.0,0.0,0.0,0.0,6.1913,6.2023,6.2023,6.2023,6.2603,6.3762,6.4196,6.5011,6.6188,6.6605,6.6804,6.6804,6.6804,6.6804,6.6804,6.6804,6.6804,6.6804,6.6804,6.6804,6.6804,6.6804,6.6804,6.6804,0.0,0.0,0.0,0.0,0.0,0.0,0.0,0.0,0.0,0.0,0.0,0.0,0.0,0.0,0.0,0.0,0.0,0.0,0.0,0.0,0.0,0.0,0.0,0.0,0.0,0.0,0.0,0.0,0.0,0.0,0.0,0.0,0.0,0.0,0.0,0.0,0.0,0.0,0.0,0.0,0.0,0.0,0.0,0.0,0.0,0.0,0.0,0.0,0.0,0.0,0.0,0.0,0.0,0.0,4.4587,4.4587,4.4587,4.4587,0.0,0.0,0.0,0.0,0.0,0.0,0.0,0.0,0.0,0.0,0.0,0.0,0.0,0.0,0.0,0.0,0.0,0.0,0.0,0.0,0.0,0.0,0.0,0.0,0.0,0.0,0.0,0.0,0.0,0.0,0.0,0.0,6.1969,6.1858,6.1969,6.2023,6.2023,6.2023,6.282,6.4396,6.4667,6.55,6.6804,6.6804,6.6804,6.6804,6.6804,6.6804,6.6804,6.6804,6.6804,6.6804,6.6804,6.6804,6.6804,6.6804,6.6804,6.6804,0.0,0.0,0.0,0.0,0.0,0.0,0.0,0.0,0.0,0.0,0.0,0.0,0.0,0.0,0.0,0.0,0.0,0.0,0.0,0.0,0.0,0.0,0.0,0.0,0.0,0.0,0.0,0.0,0.0,0.0,0.0,0.0,0.0,0.0,0.0,0.0,0.0,0.0,0.0,0.0,0.0,0.0,0.0,0.0,0.0,0.0,0.0,0.0,0.0,0.0,0.0,0.0,0.0,0.0,0.0,0.0,0.0,0.0,0.0,0.0,0.0,0.0,0.0,0.0,0.0,0.0,0.0,0.0,0.0,0.0,0.0,0.0,0.0,0.0,0.0,0.0,0.0,0.0,0.0,0.0,0.0,0.0,0.0,0.0,0.0,0.0,0.0,0.0,0.0,6.2023,6.2023,6.1969,6.2023,6.2023,6.2023,6.2023,6.282,6.4414,6.5808,6.6587,6.6804,6.6804,6.6804,6.6804,6.6804,6.6804,6.6804,6.6804,6.6804,6.6804,6.6804,6.6804,6.6804,6.6804,6.6804,6.6804,0.0,0.0,0.0,0.0,0.0,0.0,0.0,0.0,0.0,0.0,0.0,0.0,0.0,0.0,0.0,0.0,0.0,0.0,0.0,0.0,0.0,0.0,0.0,0.0,0.0,0.0,0.0,0.0,0.0,0.0,0.0,3.9437,3.9385,0.0,0.0,0.0,0.0,0.0,0.0,0.0,0.0,0.0,0.0,0.0,0.0,0.0,0.0,0.0,0.0,0.0,0.0,0.0,0.0,0.0,0.0,0.0,0.0,0.0,0.0,0.0,0.0,0.0,0.0,0.0,0.0,0.0,0.0,0.0,0.0,0.0,0.0,0.0,0.0,0.0,0.0,0.0,0.0,0.0,0.0,0.0,0.0,0.0,0.0,0.0,0.0,0.0,0.0,0.0,6.1951,6.2023,6.2023,6.2023,6.2023,6.2023,6.2023,6.2023,6.282,6.4414,6.6025,6.6804,6.6804,6.6804,6.6804,6.6804,6.6804,6.6804,6.6804,6.6804,6.6804,6.6804,6.6804,6.6804,6.6804,6.6804,6.6804,6.6804,0.0,0.0,0.0,0.0,0.0,0.0,0.0,0.0,0.0,0.0,0.0,0.0,0.0,0.0,0.0,0.0,0.0,0.0,0.0,0.0,0.0,0.0,0.0,0.0,0.0,0.0,0.0,0.0,0.0,0.0,4.007,4.007,4.0172,0.0,4.095,0.0,0.0,0.0,0.0,0.0,0.0,0.0,0.0,0.0,0.0,0.0,0.0,0.0,0.0,0.0,0.0,0.0,0.0,0.0,0.0,0.0,0.0,0.0,0.0,0.0,0.0,0.0,0.0,0.0,0.0,0.0,0.0,0.0,0.0,0.0,0.0,0.0,0.0,0.0,0.0,0.0,0.0,0.0,0.0,0.0,0.0,0.0,0.0,0.0,0.0,0.0,0.0,0.0,6.1969,6.2023,6.2023,6.2023,6.2023,6.2023,6.2023,6.2422,6.3219,6.4414,6.6025,6.6804,6.6804,6.6804,6.6804,6.6804,6.6804,6.6804,6.6804,6.6804,6.6804,6.6804,6.6804,6.6804,6.6804,6.6804,6.6804,6.6804,0.0,0.0,0.0,0.0,0.0,0.0,0.0,0.0,0.0,0.0,0.0,0.0,0.0,0.0,0.0,0.0,0.0,0.0,0.0,0.0,0.0,0.0,0.0,0.0,0.0,0.0,0.0,0.0,0.0,0.0,4.007,4.007,4.046,4.1136,4.1187,4.1593,4.2286,0.0,0.0,0.0,0.0,0.0,0.0,0.0,0.0,0.0,0.0,0.0,0.0,0.0,0.0,0.0,0.0,0.0,0.0,0.0,0.0,0.0,0.0,0.0,0.0,0.0,0.0,0.0,0.0,0.0,0.0,0.0,0.0,0.0,0.0,0.0,0.0,0.0,0.0,0.0,0.0,0.0,0.0,0.0,0.0,0.0,0.0,0.0,0.0,0.0,0.0,0.0,6.1969,6.2023,6.2023,6.2023,6.2023,6.2023,6.2023,6.3508,6.4305,6.4414,6.6025,6.6804,6.6804,6.6804,6.6804,6.6804,6.6804,6.6804,6.6804,6.6804,6.6804,6.6804,6.6804,6.6804,6.6804,6.6804,6.6804,6.6804,0.0,0.0,0.0,0.0,0.0,0.0,0.0,0.0,0.0,0.0,0.0,0.0,0.0,3.7043,3.7686,3.8159,0.0,0.0,0.0,0.0,0.0,0.0,0.0,0.0,0.0,0.0,0.0,0.0,0.0,4.007,4.0087,4.0578,4.095,4.1221,4.1694,4.232,4.3064,4.3842,0.0,0.0,0.0,0.0,0.0,0.0,0.0,0.0,0.0,0.0,0.0,0.0,0.0,0.0,0.0,0.0,0.0,0.0,0.0,0.0,0.0,0.0,0.0,0.0,0.0,0.0,0.0,0.0,0.0,0.0,0.0,0.0,0.0,0.0,0.0,0.0,0.0,0.0,0.0,0.0,0.0,0.0,0.0,0.0,0.0,0.0,0.0,0.0,0.0,0.0,6.2005,6.2023,6.2023,6.2023,6.2023,6.2023,6.2023,6.3599,6.4396,6.4414,6.6025,6.6804,6.6804,6.6804,6.6804,6.6804,6.6804,6.6804,6.6804,6.6804,6.6804,6.6804,6.6804,6.6804,6.6804,6.6804,6.6804,6.6804,0.0,0.0,0.0,0.0,0.0,0.0,0.0,0.0,0.0,0.0,0.0,0.0,0.0,0.0,3.8565,3.9292,3.98,4.007,4.007,0.0,0.0,0.0,0.0,0.0,0.0,0.0,0.0,0.0,0.0,0.0,0.0,0.0,4.1339,4.1593,4.2337,0.0,0.0,0.0,0.0,4.4587,0.0,0.0,4.4587,0.0,0.0,0.0,0.0,0.0,0.0,0.0,0.0,0.0,0.0,0.0,0.0,0.0,0.0,0.0,0.0,0.0,0.0,0.0,0.0,0.0,0.0,0.0,0.0,0.0,0.0,0.0,0.0,0.0,0.0,0.0,0.0,0.0,0.0,0.0,0.0,0.0,0.0,0.0,0.0,0.0,0.0,0.0,0.0,0.0,6.2023,6.2023,6.2023,6.2023,6.2023,6.2023,6.2023,6.3599,6.4396,6.4414,6.6025,6.6804,6.6804,6.6804,6.6804,6.6804,6.6804,6.6804,6.6804,6.6804,6.6804,6.6804,6.6804,6.6804,6.6804,6.6804,6.6804,6.6804,0.0,0.0,0.0,0.0,0.0,0.0,0.0,0.0,0.0,0.0,0.0,0.0,0.0,0.0,0.0,4.007,4.0121,4.0121,4.0121,4.0121,0.0,0.0,0.0,0.0,0.0,0.0,0.0,0.0,0.0,0.0,0.0,0.0,4.1644,0.0,4.3115,4.3453,4.3504,0.0,0.0,4.4587,0.0,4.4587,0.0,0.0,0.0,0.0,4.4587,4.4587,0.0,0.0,0.0,0.0,0.0,0.0,0.0,0.0,0.0,0.0,0.0,0.0,0.0,0.0,0.0,0.0,0.0,0.0,0.0,0.0,0.0,0.0,0.0,0.0,0.0,0.0,0.0,0.0,0.0,0.0,0.0,0.0,0.0,0.0,0.0,0.0,0.0,0.0,0.0,6.1987,6.2023,6.2023,6.2023,6.2023,6.2023,6.2023,6.2023,6.3599,6.4396,6.4414,6.6025,6.6804,6.6804,6.6804,6.6804,6.6804,6.6804,6.6804,6.6804,6.6804,6.6804,6.6804,6.6804,6.6804,6.6804,6.6804,6.6804,6.6804,0.0,0.0,0.0,0.0,0.0,0.0,0.0,0.0,0.0,0.0,0.0,0.0,0.0,4.0374,4.073,4.0594,4.0628,4.0628,4.0628,4.0303,4.007,4.007,4.007,4.007,0.0,0.0,0.0,0.0,0.0,0.0,0.0,0.0,0.0,0.0,4.391,4.4265,4.4265,4.4485,0.0,0.0,0.0,4.4587,0.0,0.0,0.0,0.0,0.0,4.4587,0.0,0.0,4.4587,4.4587,0.0,0.0,0.0,0.0,0.0,0.0,4.5703,0.0,0.0,0.0,0.0,0.0,0.0,0.0,0.0,0.0,0.0,0.0,0.0,0.0,0.0,0.0,0.0,0.0,0.0,0.0,0.0,0.0,0.0,0.0,0.0,0.0,0.0,0.0,6.0557,6.1408,6.1987,6.2023,6.2023,6.2023,6.2023,6.2023,6.2023,6.3599,6.4396,6.4414,6.6025,6.6804,6.6804,6.6804,6.6804,6.6804,6.6804,6.6804,6.6804,6.6804,6.6804,6.6804,6.6804,6.6804,6.6804,6.6804,6.6804,6.6804,0.0,0.0,0.0,0.0,0.0,0.0,0.0,0.0,0.0,0.0,0.0,0.0,0.0,4.1218,4.1393,4.1094,4.1094,4.1094,4.1094,4.0659,4.0402,4.0402,4.0402,4.0402,4.0402,0.0,0.0,0.0,0.0,0.0,0.0,0.0,0.0,0.0,0.0,0.0,0.0,0.0,0.0,0.0,4.4682,0.0,0.0,4.4682,4.4626,0.0,0.0,0.0,4.4626,4.4814,4.4906,0.0,0.0,0.0,0.0,0.0,0.0,0.0,0.0,0.0,0.0,0.0,0.0,0.0,0.0,5.1329,0.0,0.0,0.0,0.0,0.0,0.0,0.0,0.0,0.0,0.0,0.0,0.0,0.0,0.0,0.0,0.0,0.0,0.0,0.0,0.0,6.0357,6.1172,6.1969,6.2023,6.2023,6.2023,6.2023,6.2023,6.2023,6.3599,6.4396,6.4414,6.6025,6.6804,6.6804,6.6804,6.6804,6.6804,6.6804,6.6804,6.6804,6.6804,6.6804,6.6804,6.6804,6.6804,6.6804,6.6804,6.6804,6.6804,0.0,0.0,0.0,0.0,0.0,0.0,0.0,0.0,0.0,0.0,0.0,0.0,0.0,4.1613,4.1613,4.1569,4.1569,4.1622,4.171,4.1279,4.1052,4.1138,4.1138,4.1185,4.1185,4.0528,0.0,0.0,0.0,0.0,0.0,0.0,0.0,0.0,0.0,0.0,0.0,0.0,0.0,4.4737,4.4776,4.4737,0.0,0.0,4.4776,0.0,4.4822,4.4895,4.5005,4.5491,4.5649,0.0,0.0,0.0,0.0,0.0,4.6133,0.0,0.0,0.0,0.0,0.0,0.0,0.0,5.1449,5.1669,5.1768,0.0,0.0,0.0,0.0,0.0,0.0,0.0,0.0,0.0,0.0,0.0,0.0,0.0,0.0,0.0,0.0,0.0,5.8601,5.9416,6.0303,6.1172,6.1969,6.2023,6.2023,6.2023,6.2023,6.2023,6.2023,6.3508,6.4305,6.4414,6.5935,6.6714,6.6804,6.6804,6.6804,6.6804,6.6804,6.6804,6.6804,6.6804,6.6804,6.6804,6.6804,6.6804,6.6804,6.6804,6.6804,6.6804,0.0,0.0,0.0,0.0,0.0,0.0,0.0,0.0,0.0,0.0,0.0,0.0,0.0,0.0,4.2498,4.2115,4.2056,4.2341,4.2981,4.2608,4.2619,4.3249,4.3423,4.3469,4.3469,4.3366,4.3437,0.0,0.0,0.0,0.0,0.0,0.0,0.0,0.0,0.0,0.0,0.0,0.0,4.5267,4.4961,0.0,0.0,4.4886,4.5106,4.5389,4.6204,4.6724,4.7166,0.0,4.8061,4.801,0.0,0.0,0.0,0.0,0.0,0.0,0.0,0.0,0.0,0.0,0.0,0.0,5.2048,5.1951,5.1768,0.0,0.0,0.0,0.0,0.0,0.0,0.0,0.0,0.0,0.0,0.0,0.0,0.0,0.0,0.0,0.0,0.0,5.7768,5.8565,5.9995,6.1172,6.1969,6.2023,6.2023,6.2023,6.2023,6.2023,6.2023,6.2947,6.3744,6.4396,6.5374,6.617,6.6804,6.6804,6.6804,6.6804,6.6804,6.6804,6.6804,6.6804,6.6804,6.6804,6.6804,6.6804,6.6804,6.6804,6.6804,6.6804,0.0,0.0,0.0,0.0,0.0,0.0,0.0,0.0,0.0,0.0,0.0,0.0,0.0,0.0,0.0,4.3328,4.3628,4.4043,4.4462,4.4056,4.396,4.4395,4.4456,4.4517,4.4517,4.4525,4.4721,4.5062,0.0,0.0,0.0,0.0,0.0,0.0,0.0,0.0,0.0,0.0,4.5672,4.5765,4.5223,0.0,4.6152,4.6048,4.6517,4.7274,4.7711,4.8232,4.8704,4.9067,4.9162,0.0,0.0,4.8788,4.8536,0.0,4.9171,4.9611,0.0,0.0,0.0,5.1795,0.0,0.0,0.0,5.2275,5.2114,0.0,0.0,0.0,0.0,0.0,0.0,0.0,0.0,0.0,0.0,0.0,0.0,0.0,0.0,0.0,0.0,0.0,5.7695,5.8909,6.0122,6.1172,6.1969,6.2023,6.2023,6.2023,6.2023,6.2023,6.2023,6.2802,6.3599,6.4396,6.5211,6.6025,6.6804,6.6804,6.6804,6.6804,6.6804,6.6804,6.6804,6.6804,6.6804,6.6804,6.6804,6.6804,6.6804,6.6804,6.6804,6.6804,0.0,0.0,0.0,0.0,0.0,0.0,0.0,0.0,0.0,0.0,0.0,0.0,0.0,0.0,0.0,0.0,0.0,4.5617,0.0,0.0,4.5328,4.5472,4.5531,4.5531,4.5531,4.5572,4.5838,4.6404,0.0,0.0,0.0,0.0,0.0,0.0,0.0,0.0,0.0,0.0,0.0,4.6775,0.0,4.6706,4.7766,4.7618,4.8187,4.9096,4.9401,4.9844,5.0308,5.0317,0.0,5.0199,5.0153,4.974,0.0,0.0,0.0,0.0,0.0,0.0,0.0,0.0,0.0,5.1884,0.0,0.0,0.0,0.0,0.0,0.0,0.0,0.0,0.0,0.0,0.0,0.0,0.0,0.0,0.0,0.0,0.0,0.0,0.0,0.0,5.7804,5.9271,6.0122,6.0937,6.1752,6.1933,6.2023,6.2023,6.2023,6.2023,6.2023,6.2639,6.3436,6.4396,6.5048,6.5862,6.6804,6.6804,6.6804,6.6804,6.6804,6.6804,6.6804,6.6804,6.6804,6.6804,6.6804,6.6804,6.6804,6.6804,6.6804,6.6804,0.0,0.0,0.0,0.0,0.0,0.0,0.0,0.0,0.0,0.0,0.0,0.0,0.0,0.0,0.0,0.0,0.0,0.0,4.6624,0.0,0.0,4.7642,4.7758,4.7816,4.7816,4.7876,4.7913,4.7962,4.7547,0.0,0.0,0.0,0.0,0.0,4.6753,0.0,0.0,0.0,4.8472,0.0,4.8996,4.8526,0.0,4.8795,4.9328,4.9857,5.1183,5.2163,5.2767,0.0,5.2619,5.2576,0.0,5.2381,0.0,0.0,0.0,0.0,0.0,0.0,0.0,0.0,5.2387,0.0,0.0,0.0,0.0,0.0,0.0,0.0,0.0,0.0,0.0,0.0,0.0,0.0,0.0,0.0,0.0,0.0,0.0,0.0,0.0,0.0,0.0,5.8474,5.9289,6.0104,6.0901,6.1625,6.2023,6.2023,6.2023,6.2023,6.2023,6.2114,6.2911,6.4396,6.4486,6.5319,6.6804,6.6804,6.6804,6.6804,6.6804,6.6804,6.6804,6.6804,6.6804,6.6804,6.6804,6.6804,6.6804,6.6804,6.6804,6.6804,0.0,0.0,0.0,0.0,0.0,0.0,0.0,0.0,0.0,0.0,0.0,0.0,0.0,0.0,0.0,0.0,0.0,0.0,0.0,0.0,0.0,4.8172,4.8247,4.8247,4.8247,4.8286,4.8286,4.8247,4.8093,0.0,0.0,0.0,0.0,0.0,4.8107,0.0,4.9054,0.0,0.0,0.0,0.0,0.0,0.0,5.0466,5.0977,5.1864,5.2462,5.2913,5.3206,0.0,5.3042,0.0,0.0,0.0,0.0,0.0,0.0,0.0,0.0,0.0,0.0,0.0,0.0,0.0,0.0,0.0,5.2498,0.0,0.0,0.0,0.0,0.0,0.0,0.0,0.0,0.0,0.0,0.0,0.0,0.0,0.0,0.0,0.0,0.0,0.0,0.0,0.0,5.947,6.0738,6.1136,6.1534,6.2005,6.2023,6.2023,6.2023,6.2023,6.2585,6.3708,6.4178,6.4993,6.6116,6.6587,6.6804,6.6804,6.6804,6.6804,6.6804,6.6804,6.6804,6.6804,6.6804,6.6804,6.6804,6.6804,6.6804,6.6804,0.0,0.0,0.0,0.0,0.0,0.0,4.3543,4.4108,4.4547,0.0,0.0,0.0,4.6121,4.6689,0.0,0.0,0.0,4.8247,0.0,0.0,4.8306,0.0,0.0,0.0,0.0,4.8306,4.8306,4.8306,4.8306,4.8306,0.0,0.0,0.0,0.0,0.0,4.9816,5.058,0.0,0.0,5.1261,5.2218,5.2608,5.2554,5.1981,5.2339,5.3206,5.3206,5.3206,5.3206,5.3206,5.3164,0.0,5.3042,0.0,0.0,0.0,0.0,0.0,5.2618,0.0,0.0,0.0,0.0,0.0,0.0,0.0,0.0,0.0,0.0,0.0,0.0,0.0,0.0,0.0,0.0,0.0,0.0,0.0,0.0,0.0,0.0,0.0,0.0,0.0,0.0,0.0,5.8275,0.0,6.0412,6.0683,6.119,6.1987,6.2023,6.2023,6.2023,6.2023,6.2404,6.32,6.4015,6.4812,6.5627,6.6442,6.6804,6.6804,6.6804,6.6804,6.6804,6.6804,6.6804,6.6804,6.6804,6.6804,6.6804,6.6804,6.6804,6.6804,0.0,4.3497,0.0,0.0,0.0,0.0,4.4455,4.4637,4.4984,0.0,0.0,0.0,0.0,0.0,0.0,0.0,0.0,4.8306,4.8306,0.0,4.8306,0.0,0.0,0.0,0.0,0.0,4.8306,4.8306,4.8306,4.8306,0.0,0.0,0.0,0.0,0.0,5.1206,5.1958,5.1935,5.2394,5.3127,5.3164,5.3164,5.3164,0.0,5.3146,5.3206,5.3206,0.0,0.0,5.3206,5.3206,0.0,0.0,0.0,0.0,0.0,0.0,0.0,0.0,0.0,0.0,0.0,0.0,0.0,0.0,0.0,5.2563,0.0,0.0,0.0,0.0,0.0,0.0,0.0,0.0,0.0,0.0,0.0,0.0,0.0,0.0,0.0,0.0,0.0,0.0,5.7243,5.7967,5.8764,5.9597,6.0394,6.119,6.1987,6.2023,6.2023,6.2023,6.2023,6.2404,6.32,6.4015,6.4812,6.5627,6.6442,6.6804,6.6804,6.6804,6.6804,6.6804,6.6804,6.6804,6.6804,6.6804,6.6804,6.6804,6.6804,6.6804,6.6804,0.0,0.0,0.0,0.0,0.0,0.0,4.5352,4.592,0.0,0.0,0.0,0.0,0.0,0.0,4.8012,0.0,0.0,4.8306,4.8306,4.8306,0.0,0.0,0.0,4.8306,0.0,0.0,4.8306,4.8306,4.8875,4.915,0.0,0.0,0.0,0.0,0.0,5.2032,0.0,0.0,0.0,0.0,0.0,5.3537,5.394,0.0,0.0,5.328,5.3812,5.3995,0.0,5.4601,5.4785,5.4785,5.4785,5.4785,5.4785,5.4635,5.4206,0.0,0.0,0.0,5.2806,5.2806,0.0,0.0,0.0,0.0,0.0,0.0,0.0,0.0,0.0,0.0,0.0,0.0,0.0,0.0,0.0,0.0,0.0,0.0,0.0,0.0,0.0,0.0,0.0,5.7188,5.7442,5.7967,0.0,5.9579,6.0375,6.119,6.1734,6.2023,6.2023,6.2023,6.215,6.2422,6.3762,6.4541,6.4848,6.6188,6.6804,6.6804,6.6804,6.6804,6.6804,6.6804,6.6804,6.6804,6.6804,6.6804,6.6804,6.6804,6.6804,6.6804,4.5902,0.0,0.0,0.0,0.0,0.0,0.0,0.0,0.0,0.0,4.7994,0.0,4.8306,0.0,4.8765,0.0,4.9022,4.9187,4.9187,4.893,0.0,4.8765,4.8471,0.0,0.0,0.0,0.0,4.8765,0.0,5.0013,0.0,0.0,0.0,0.0,0.0,0.0,0.0,0.0,5.3206,0.0,0.0,5.4106,0.0,0.0,5.4051,0.0,0.0,5.4821,5.4913,5.5427,5.5592,5.5592,5.5592,5.5592,5.5592,5.5503,5.5074,5.4671,5.4564,5.4198,0.0,0.0,5.3796,0.0,0.0,0.0,0.0,0.0,0.0,0.0,0.0,0.0,0.0,0.0,0.0,0.0,0.0,0.0,0.0,0.0,0.0,0.0,0.0,0.0,5.7188,5.7188,5.7188,5.755,0.0,0.0,5.9977,6.0774,6.1589,6.2023,6.2023,6.2023,6.2023,6.2041,6.3635,6.4396,6.445,6.6062,6.6804,6.6804,6.6804,6.6804,6.6804,6.6804,6.6804,6.6804,6.6804,6.6804,6.6804,6.6804,6.6804,6.6804,4.6012,0.0,0.0,0.0,4.6012,0.0,0.0,0.0,4.7443,0.0,4.8343,4.8361,4.8361,4.9132,4.9646,4.9646,5.0362,0.0,5.0802,5.0068,0.0,0.0,4.8875,4.8416,4.8416,0.0,0.0,0.0,0.0,0.0,0.0,0.0,0.0,0.0,5.2858,0.0,5.3206,5.3206,5.3225,5.3335,5.4142,5.4932,5.5647,5.5647,0.0,5.5702,5.5666,5.5647,5.5666,5.5702,5.5702,5.5702,5.5702,5.5702,5.5702,5.5702,5.5684,5.5647,5.5647,5.5611,5.5592,5.5592,0.0,0.0,0.0,0.0,5.5414,0.0,0.0,0.0,0.0,0.0,0.0,0.0,0.0,0.0,0.0,0.0,0.0,0.0,0.0,0.0,0.0,5.717,5.7188,5.7188,5.7188,0.0,0.0,0.0,0.0,6.0738,6.1534,6.1969,6.2023,6.2023,6.2023,6.2041,6.3635,6.4396,6.445,6.6062,6.6804,6.6804,6.6804,6.6804,6.6804,6.6804,6.6804,6.6804,6.6804,6.6804,6.6804,6.6804,6.6804,6.6804,4.772,4.7682,4.7682,0.0,4.7682,4.7755,0.0,0.0,0.0,0.0,4.8857,4.926,4.926,4.9994,5.049,5.049,5.0674,0.0,0.0,0.0,0.0,5.049,5.0288,5.016,5.016,5.038,0.0,5.049,0.0,0.0,5.1701,0.0,0.0,0.0,0.0,0.0,5.3206,5.3206,5.3555,5.4161,5.4968,5.5776,0.0,0.0,5.6859,5.7299,5.6712,5.6492,5.6583,5.7171,5.7373,5.7373,5.7373,5.7373,5.7373,5.7373,5.695,5.6492,5.6492,5.6051,5.5592,5.5592,5.5592,5.5592,0.0,0.0,0.0,0.0,0.0,0.0,0.0,0.0,0.0,0.0,0.0,0.0,0.0,0.0,0.0,0.0,0.0,0.0,5.6228,5.6844,5.7188,5.7188,5.7188,0.0,0.0,0.0,0.0,5.9887,6.0701,6.1408,6.2005,6.2023,6.2023,6.2041,6.3635,6.4396,6.445,6.6062,6.6804,6.6804,6.6804,6.6804,6.6804,6.6804,6.6804,6.6804,6.6804,6.6804,6.6804,6.6804,6.6804,6.6804,4.8382,0.0,0.0,4.8495,0.0,0.0,4.8532,0.0,0.0,4.903,4.9787,0.0,5.036,5.1232,5.1825,5.1825,5.2122,0.0,0.0,0.0,0.0,5.1316,5.1148,5.0945,5.0802,5.1132,0.0,5.1316,0.0,0.0,5.2527,0.0,0.0,0.0,0.0,5.3206,0.0,5.3592,5.4399,5.55,5.5941,0.0,0.0,5.7317,5.7611,5.7941,5.7483,5.7317,5.7391,5.785,5.7997,5.7997,5.7997,5.7997,5.7997,5.7997,5.7685,5.7317,5.7317,5.6987,5.6638,5.6638,5.6638,5.6638,5.6638,5.6638,5.6767,0.0,0.0,0.0,0.0,0.0,0.0,0.0,0.0,0.0,0.0,0.0,0.0,0.0,0.0,0.0,5.6037,5.6767,5.7188,5.7188,0.0,0.0,0.0,0.0,0.0,5.9579,6.0394,6.1208,6.2005,6.2023,6.2023,6.2041,6.3635,6.4396,6.445,6.6062,6.6804,6.6804,6.6804,6.6804,6.6804,6.6804,6.6804,6.6804,6.6804,6.6804,6.6804,6.6804,6.6804,6.6804,0.0,0.0,0.0,0.0,0.0,0.0,0.0,4.9492,0.0,5.0207,0.0,5.1543,5.1543,5.2645,5.3409,0.0,0.0,5.4477,5.4149,5.3767,5.3288,5.2559,5.2084,5.1601,5.1279,5.1848,0.0,0.0,0.0,0.0,5.3206,5.3206,0.0,0.0,0.0,0.0,0.0,5.4381,5.5519,0.0,5.6914,5.7373,5.7997,5.7997,5.7997,5.7997,5.7997,5.7997,5.7997,5.7997,5.7997,5.7997,5.7997,5.7997,5.7997,5.7997,5.7997,5.7997,5.7997,5.7997,5.7997,5.7997,5.7997,5.7997,5.7997,5.7997,5.7997,5.7997,5.7997,0.0,0.0,0.0,0.0,0.0,0.0,0.0,0.0,0.0,0.0,0.0,0.0,0.0,0.0,0.0,0.0,0.0,0.0,0.0,0.0,0.0,0.0,5.9579,6.0285,0.0,6.2005,0.0,6.2023,6.2041,6.3635,6.4396,6.445,6.6062,6.6804,6.6804,6.6804,6.6804,6.6804,6.6804,6.6804,6.6804,6.6804,6.6804,6.6804,6.6804,6.6804,6.6804,0.0,0.0,0.0,0.0,0.0,0.0,0.0,5.0787,5.0675,5.1396,5.224,0.0,5.2765,5.4165,5.5081,5.5081,5.587,0.0,0.0,0.0,0.0,5.5461,5.476,5.4177,5.3775,5.3261,5.3004,0.0,5.3133,5.3206,5.3206,5.3206,0.0,0.0,0.0,0.0,5.5225,5.6051,0.0,5.6877,5.7519,5.7868,5.7997,5.7997,5.7997,5.7997,5.7997,5.7997,5.7997,5.7997,5.7997,5.7997,5.7997,5.7997,5.7997,5.7997,5.7997,5.7997,5.7997,5.7997,5.7997,5.7997,5.7997,5.7997,5.7997,5.7997,5.7997,5.7997,5.7997,5.7997,5.7997,0.0,0.0,0.0,0.0,0.0,0.0,0.0,0.0,0.0,0.0,0.0,0.0,0.0,0.0,0.0,0.0,0.0,0.0,0.0,0.0,0.0,0.0,0.0,0.0,0.0,0.0,6.2041,6.3635,6.4396,6.445,6.6062,6.6804,6.6804,6.6804,6.6804,6.6804,6.6804,6.6804,6.6804,6.6804,6.6804,6.6804,6.6804,6.6804,6.6804,0.0,0.0,0.0,0.0,0.0,0.0,0.0,5.2948,0.0,5.3339,5.4101,5.4799,5.5214,5.6166,5.6732,5.6732,5.7111,5.7277,5.7078,5.7245,5.7097,5.6538,5.6326,0.0,5.5655,0.0,5.4981,5.4778,5.4778,5.4672,5.4436,5.4436,0.0,0.0,0.0,5.5464,0.0,0.0,0.0,5.7464,5.7831,5.7997,5.7997,5.7997,5.8253,5.8621,5.8621,5.8896,5.9116,5.8272,5.7997,5.7997,5.7997,5.7997,5.7997,5.7997,5.7997,5.7997,5.7997,5.7997,5.7997,5.7997,5.7997,5.7997,5.7997,5.7997,5.7997,5.7997,5.7997,5.7997,5.7997,5.7997,0.0,0.0,0.0,0.0,0.0,0.0,0.0,0.0,0.0,0.0,0.0,0.0,0.0,0.0,0.0,0.0,0.0,0.0,0.0,0.0,0.0,0.0,0.0,0.0,0.0,6.2041,6.3635,6.4396,6.445,6.6062,6.6804,6.6804,6.6804,6.6804,6.6804,6.6804,6.6804,6.6804,6.6804,6.6804,6.6804,6.6804,6.6804,6.6804,0.0,5.2122,0.0,0.0,5.2836,0.0,0.0,5.5282,5.5744,5.5246,5.5949,5.6728,5.7354,5.7863,5.8154,5.8154,5.8326,5.8301,5.7992,5.8273,5.8139,5.7457,5.7521,5.7408,5.7035,5.6885,5.6648,0.0,5.6251,5.5936,0.0,5.5544,0.0,0.0,0.0,0.0,0.0,0.0,5.7428,5.7997,5.7997,5.8107,5.8253,5.8253,5.8767,5.9483,5.9483,5.9869,6.0217,5.8933,5.851,5.851,5.851,5.851,5.851,5.851,5.851,5.851,5.851,5.851,5.8474,5.8309,5.8253,5.8217,5.8033,5.7997,5.7997,5.7997,5.7997,5.7997,5.7997,5.7997,0.0,0.0,0.0,0.0,0.0,0.0,0.0,0.0,0.0,0.0,0.0,0.0,0.0,0.0,0.0,0.0,5.7289,5.7257,0.0,0.0,0.0,6.0429,6.2005,0.0,6.2023,0.0,6.3635,6.4396,6.445,6.6062,6.6804,6.6804,6.6804,6.6804,6.6804,6.6804,6.6804,6.6804,6.6804,6.6804,6.6804,6.6804,6.6804,6.6804,0.0,0.0,0.0,0.0,0.0,0.0,0.0,5.7349,5.7371,5.6542,5.7191,5.7764,5.7859,5.8528,5.8994,5.8994,5.9701,6.016,6.0113,6.0141,5.9979,5.9531,5.8843,5.8297,5.7899,5.7167,5.6791,0.0,0.0,5.58,5.5037,5.5423,0.0,0.0,0.0,0.0,0.0,5.7886,5.7923,5.7997,5.7997,5.8437,5.9098,5.9098,5.9593,6.0291,6.0291,6.0346,6.0382,6.0236,6.0181,6.0181,6.0181,6.0181,6.0181,6.0181,6.0181,6.0181,6.0181,6.0181,6.0015,5.9281,5.9098,5.8914,5.8162,5.7997,5.7997,5.7997,5.7997,5.7997,5.7997,5.7997,5.7997,0.0,0.0,0.0,0.0,0.0,0.0,0.0,0.0,0.0,0.0,0.0,0.0,0.0,0.0,5.7601,5.7534,5.7455,5.8133,5.9717,0.0,6.062,6.2005,6.2114,0.0,6.2041,6.3635,6.4396,6.445,6.6062,6.6804,6.6804,6.6804,6.6804,6.6804,6.6804,6.6804,6.6804,6.6804,6.6804,6.6804,6.6804,6.6804,6.6804,0.0,0.0,0.0,0.0,0.0,0.0,0.0,5.8205,5.8498,5.8154,5.8402,5.8822,5.9338,5.9682,5.9873,5.9873,6.0198,6.0389,6.0389,6.0389,6.0313,6.0178,5.9854,5.9604,5.9444,5.9121,5.8837,0.0,0.0,5.8087,5.751,5.7711,0.0,0.0,0.0,5.7918,5.8033,5.8529,5.8731,5.8767,5.9263,5.963,5.9924,5.9924,6.0419,6.1117,6.1117,6.1429,6.1851,6.1851,6.1208,6.0401,6.0401,6.0401,6.0401,6.0401,6.0401,6.0401,6.0401,6.0401,6.0327,6.0015,5.9924,5.985,5.952,5.9446,5.9446,5.9446,5.9061,5.8731,5.8731,5.8327,5.7997,0.0,0.0,0.0,0.0,0.0,0.0,0.0,0.0,0.0,0.0,0.0,0.0,0.0,0.0,0.0,5.7601,5.7553,5.8232,5.9852,0.0,6.0723,6.2257,6.2203,6.244,6.2984,6.3964,6.4706,6.5309,6.6337,6.6845,6.6903,6.6903,6.6961,6.7058,6.6943,6.6903,6.6903,6.6863,6.6804,6.6804,6.6804,6.6804,6.6804,5.6907,0.0,5.7963,0.0,5.8249,5.8345,5.8593,5.9128,5.9491,5.9491,5.9491,5.972,6.0332,6.0389,6.0389,6.0389,6.0389,6.0389,6.0389,6.0389,6.0389,6.0389,6.0389,0.0,6.0389,6.0389,6.0266,5.9988,5.9874,0.0,0.0,0.0,0.0,0.0,5.8888,5.8807,5.8547,5.9255,5.9557,5.9612,6.0181,6.0548,6.075,6.075,6.1245,6.1942,6.1942,6.2328,6.2805,6.2805,6.2053,6.1117,6.1117,6.1117,6.1117,6.1117,6.1117,6.1117,6.1117,6.1117,6.1062,6.0805,6.075,6.0694,6.0456,6.0401,6.0401,6.0401,5.996,5.9557,5.9557,5.9098,5.8639,0.0,0.0,0.0,0.0,0.0,0.0,0.0,0.0,5.7997,5.7997,0.0,0.0,0.0,0.0,0.0,5.7745,5.7697,0.0,0.0,0.0,0.0,0.0,6.2362,6.2745,6.36,6.4202,6.4964,6.5858,6.658,6.6943,6.7058,6.7058,6.7097,6.7192,6.7097,6.7058,6.7058,6.6903,6.6845,6.6845,6.6804,6.6804,6.6845,5.7972,5.7939,5.8154,5.8956,5.909,5.9376,6.0236,6.037,6.037,6.037,6.037,6.0389,6.0389,6.0389,6.0389,6.0389,6.0389,6.0389,6.0389,6.0389,6.0389,0.0,0.0,6.0389,6.0389,6.0389,6.0389,6.0389,0.0,0.0,5.8597,0.0,5.8427,5.9197,5.9607,5.9751,5.9826,6.0204,6.0401,6.0401,6.0401,6.0878,6.1575,6.1575,6.2089,6.2805,6.2805,6.2805,6.2805,6.2805,6.2805,6.2787,6.2787,6.2787,6.2787,6.2787,6.2787,6.2787,6.2787,6.2787,6.2585,6.1777,6.1575,6.1374,6.0584,6.0401,6.0401,6.0401,6.0401,6.0401,6.0401,6.0382,6.0126,5.9318,0.0,0.0,0.0,0.0,0.0,0.0,5.7997,5.7997,5.7997,0.0,0.0,0.0,0.0,0.0,0.0,0.0,0.0,6.0152,6.0353,0.0,6.2397,6.2552,6.2954,6.36,6.4421,6.5223,6.6007,6.6827,6.721,6.721,6.721,6.721,6.721,6.721,6.721,6.7192,6.7058,6.7001,6.7001,6.6845,6.6903,6.7001,5.8892,5.9319,5.9764,6.0013,6.0015,6.0083,6.0351,6.0867,6.1211,6.1211,6.1745,6.2108,6.2108,6.1077,6.0389,0.0,6.0905,6.1211,0.0,6.1765,6.2108,6.2108,6.2108,6.2108,6.2108,6.2108,6.2108,6.2108,0.0,0.0,0.0,6.1412,6.1348,6.1306,6.1446,6.1338,6.1162,6.1823,6.2118,6.2132,6.2398,6.2669,6.2845,6.2549,6.2585,6.2805,6.2805,6.2805,6.2805,6.2805,6.2805,6.2805,6.2805,6.2805,6.2805,6.2805,6.2805,6.2805,6.2805,6.2805,6.275,6.2493,6.242,6.2365,6.2108,6.2053,6.2053,6.2053,6.1594,6.1208,6.1208,6.0768,6.0327,6.007,0.0,0.0,0.0,0.0,0.0,0.0,5.8327,5.7997,0.0,5.7997,0.0,0.0,0.0,0.0,0.0,0.0,0.0,0.0,6.0933,0.0,6.2654,6.2603,6.3298,6.4741,6.4802,6.5515,6.6827,6.7083,6.7266,6.7414,6.7414,6.747,6.7506,6.747,6.7414,6.7414,6.7229,6.7154,6.7154,6.7097,6.7097,6.7154,5.983,6.0195,6.0621,6.0901,6.0931,6.099,6.1287,6.1765,6.2089,6.2089,6.2567,6.2911,6.2911,6.1975,0.0,6.1344,6.1803,0.0,6.2089,6.2605,6.2911,6.2911,6.2911,6.2911,6.2911,0.0,0.0,6.2911,6.2911,6.2911,6.2911,6.2911,6.2754,6.2528,6.2682,6.2624,6.241,6.3067,6.3366,6.3383,6.3621,6.3649,6.3482,6.349,6.3413,6.3337,6.3631,6.3759,6.3759,6.3759,6.3759,6.3792,6.3954,6.3984,6.3825,6.3038,6.2935,6.3062,6.3062,6.3186,6.3308,6.3308,6.3308,6.3308,6.3308,6.3308,6.3308,6.3308,6.2882,6.253,6.253,6.2004,6.1458,6.1163,0.0,6.075,6.0438,0.0,0.0,0.0,0.0,0.0,0.0,5.8896,0.0,0.0,0.0,0.0,0.0,0.0,0.0,6.0823,6.1337,0.0,6.2805,6.3016,6.3859,6.5319,6.573,6.6409,6.7378,6.7378,6.7451,6.7597,6.7597,6.7633,6.7687,6.7579,6.7597,6.7524,6.7396,6.7341,6.7266,6.721,6.7266,6.7341,6.0882,6.0827,0.0,0.0,6.18,0.0,6.2777,6.2949,6.2987,6.2987,6.3045,6.3083,6.3083,6.3083,6.3083,6.3083,0.0,0.0,0.0,6.3045,6.3083,6.3083,6.3083,0.0,6.3083,6.3083,6.3083,6.3083,6.3083,6.3083,6.3083,6.3083,6.3083,6.3072,6.3465,6.3634,6.3657,6.403,6.4232,6.427,6.423,6.4023,6.3822,6.4558,6.4613,6.4338,6.511,6.5386,6.5386,6.5386,6.5386,6.5469,6.5914,6.6035,6.5645,6.364,6.3316,6.361,6.361,6.3841,6.4096,6.4096,6.4096,6.4096,6.4096,6.4096,6.4096,6.4096,6.4096,6.4096,6.4096,6.3803,6.3294,6.2487,6.2031,6.1459,6.0676,0.0,0.0,0.0,0.0,0.0,0.0,6.0401,6.0401,0.0,0.0,0.0,0.0,0.0,6.0878,6.1575,6.1649,6.2071,6.2897,6.3686,6.453,6.5411,6.6953,6.7687,6.7687,6.7687,6.7687,6.7687,6.7687,6.7687,6.7687,6.7687,6.7687,6.7687,6.7524,6.7488,6.7488,6.7322,6.7341,6.7488,0.0,0.0,6.2612,6.2744,6.2727,6.2729,6.2873,6.3465,6.3885,6.3885,6.442,6.4802,6.4802,6.4802,6.4802,6.4802,6.4248,6.3885,6.3885,6.4477,6.4802,6.4802,6.4802,6.4802,6.4802,6.4802,6.4802,6.4802,6.4802,6.4802,6.4802,6.4802,6.4802,6.4821,6.4901,6.4946,6.4965,6.5041,6.5465,6.6055,6.5703,6.588,6.637,6.6199,6.6106,6.6057,6.6201,6.6275,6.6275,6.6275,6.6275,6.6319,6.6448,6.6448,6.6373,6.5833,6.5352,6.4968,6.4968,6.4522,6.4096,6.4096,6.4096,6.4096,6.4096,6.4096,6.4096,6.4096,6.4096,6.4096,6.4096,6.4034,6.3813,6.3319,6.3121,6.2882,6.2304,6.1704,6.1318,0.0,6.0768,6.0401,6.0401,6.0401,6.0401,0.0,0.0,0.0,0.0,0.0,6.2053,6.1612,6.2199,6.2934,6.3778,6.3998,6.4806,6.6237,6.721,6.7687,6.7687,6.7687,6.7687,6.7687,6.7687,6.7687,6.7687,6.7687,6.7687,6.7687,6.7687,6.7633,6.7633,6.7633,6.7633,6.7633,6.3224,6.3276,6.3361,6.3686,6.3691,6.3742,6.4039,6.4469,6.4745,6.4745,6.5127,6.5394,6.5394,6.5394,6.5566,6.5967,6.5222,6.4745,6.4745,6.5165,6.5394,6.5394,6.5394,6.5394,6.5394,6.5394,6.5394,6.5394,6.5394,6.5394,6.5394,6.5394,6.5394,6.5394,6.5394,6.5624,6.5987,6.5987,6.6483,6.7247,6.6978,6.7037,6.7314,6.7429,6.7344,6.7236,6.7612,6.7743,6.7743,6.7743,6.7743,6.7804,6.8009,6.8049,6.8088,6.8281,6.7354,6.6275,6.6275,6.605,6.5762,6.5383,6.5004,6.4701,6.4701,6.4701,6.4701,6.4701,6.4701,6.4701,6.4701,6.4557,6.4369,6.4134,6.393,6.3674,6.3427,6.3037,6.2668,6.2493,6.2105,6.1706,6.1502,6.1502,6.1502,6.1502,0.0,0.0,6.2144,6.2567,6.2603,6.2163,6.2585,6.3227,6.409,6.4824,6.5815,6.7045,6.7485,6.7687,6.7687,6.7687,6.7687,6.7687,6.7687,6.7687,6.7687,6.7687,6.7687,6.7687,6.7687,6.7687,6.7687,6.7687,6.7687,6.7687,6.3666,6.3685,6.3911,6.4584,6.4646,6.4822,6.5427,6.558,6.5616,6.5616,6.573,6.5807,6.5826,6.5826,6.6082,6.6827,6.6197,6.5776,6.5776,6.5776,6.5776,6.5776,6.5776,6.5776,6.5776,6.5776,6.5776,6.5776,6.5776,6.5776,6.5776,6.5776,6.5776,6.5776,6.5776,6.6197,6.6885,6.6885,6.7343,6.8088,6.8088,6.7964,6.784,6.8506,6.8584,6.8361,6.9058,6.9303,6.9303,6.9303,6.9303,6.9344,6.9778,6.9872,6.9946,7.03,6.915,6.7745,6.7631,6.7726,6.7725,6.7056,6.6311,6.5757,6.5624,6.5605,6.5566,6.5433,6.5394,6.5394,6.5394,6.5136,6.4863,6.4829,6.4445,6.4195,6.4115,0.0,6.3994,6.3649,6.3535,6.3354,6.2935,6.2855,6.2805,6.2805,6.2805,0.0,0.0,6.2805,6.2879,6.3007,6.3007,6.3466,6.4439,6.5925,6.7008,6.7687,6.7687,6.7687,6.7687,6.7687,6.7687,6.7687,6.7687,6.7687,6.7687,6.7687,6.7687,6.7687,6.7687,6.7687,6.7687,6.7687,6.7687,6.7687,6.5359,6.5493,6.5507,6.5582,6.5601,6.5567,6.5504,6.6165,6.6643,6.6604,6.7276,6.7735,6.7695,6.7695,6.7703,6.7706,6.7591,6.7496,6.7496,6.7496,6.7496,6.7496,6.7496,6.7496,6.7496,6.7496,6.7496,6.7496,6.7496,6.7496,6.7496,6.7496,6.7496,6.7496,6.7496,6.7591,6.7706,6.7706,6.8203,6.9005,6.9005,6.9374,6.9919,7.0052,7.0057,7.0023,7.0156,7.0194,7.0194,7.0194,7.0194,7.0213,7.0281,7.03,7.0334,7.0367,7.0176,6.9747,6.9093,6.8419,6.7859,6.7725,6.761,6.7324,6.6655,6.6502,6.6292,6.5547,6.5394,6.5394,6.5394,6.5364,6.5201,6.4863,6.4739,6.4557,6.4155,0.0,6.4075,6.4016,6.3718,6.349,6.34,6.3014,6.2805,6.2805,6.2805,6.2805,6.2805,6.2805,6.3154,6.387,6.3888,6.4622,6.6109,6.7045,6.7577,6.7687,6.7687,6.7687,6.7687,6.7687,6.7687,6.7687,6.7687,6.7687,6.7687,6.7687,6.7687,6.7687,6.7687,6.7687,6.7687,6.7687,6.7687,6.7687,6.582,6.5897,6.5897,6.5846,6.6185,6.64,6.627,6.7017,6.7573,6.7504,6.7918,6.8196,6.8167,6.8138,6.828,6.864,6.8648,6.8839,6.9215,6.8394,6.7897,6.7897,6.7897,6.7897,6.7897,6.7897,6.7897,6.7897,6.7897,6.7897,6.7897,6.7897,6.7897,6.7897,6.7897,6.8145,6.8604,6.8604,6.9082,6.9846,6.9846,7.0075,7.04,7.04,7.04,7.04,7.04,7.04,7.04,7.04,7.04,7.04,7.04,7.04,7.04,7.04,7.04,7.0323,6.996,6.9234,6.8604,6.8604,6.8241,6.7802,6.7419,6.7343,6.7228,6.6827,6.6751,6.6617,6.6178,6.6101,6.5887,6.5245,6.5136,0.0,0.0,6.4791,6.472,6.4483,6.4292,6.4094,6.3846,6.3631,6.3498,6.3498,6.3308,6.339,6.3785,6.3616,6.3888,6.4714,6.5173,6.5742,6.6494,6.7283,6.7687,6.7687,6.7687,6.7687,6.7687,6.7687,6.7687,6.7687,6.7687,6.7687,6.7687,6.7687,6.7687,6.7687,6.7687,6.7687,6.7687,6.7687,6.7687,6.7687,6.6186,6.634,6.6474,6.6474,6.6942,6.7291,6.7227,6.7985,6.8513,6.8444,6.8685,6.8829,6.88,6.88,6.9021,6.9563,6.964,6.9858,7.0426,6.9279,6.8552,6.847,6.8521,6.8521,6.847,6.8521,6.8521,6.847,6.847,6.847,6.847,6.847,6.847,6.847,6.847,6.8852,6.9483,6.9483,6.9846,7.04,7.04,7.04,7.04,7.04,7.04,7.04,7.04,7.04,7.04,7.04,7.04,7.04,7.04,7.04,7.04,7.04,7.04,7.04,7.04,6.996,6.9483,6.9483,6.8986,6.8432,6.8241,6.8203,6.8126,6.7935,6.7897,6.7706,6.7095,6.698,6.677,6.6082,0.0,0.0,0.0,6.5987,6.5874,6.5555,6.5262,6.5008,6.4877,6.4569,6.4472,6.466,6.4406,6.4443,6.4976,6.469,6.4867,6.5558,6.6182,6.6586,6.6769,6.7375,6.7687,6.7687,6.7687,6.7687,6.7687,6.7687,6.7687,6.7687,6.7687,6.7687,6.7687,6.7687,6.7687,6.7687,6.7687,6.7687,6.7687,6.7687,6.7687,6.7687,6.7013,6.7667,6.8225,6.8225,6.8263,6.8275,6.8194,6.8998,6.9555,6.95,7.0209,7.0698,7.0614,7.0614,7.0623,7.0593,7.0593,7.0631,7.0688,7.0573,7.0406,7.0228,7.033,7.033,7.0228,7.033,7.033,7.0228,7.0228,7.0228,7.0228,7.0228,7.0228,7.0228,7.0228,7.0247,7.0323,7.0323,7.0362,7.04,7.04,7.04,7.04,7.04,7.04,7.04,7.04,7.04,7.04,7.04,7.04,7.04,7.04,7.04,7.04,7.04,7.04,7.04,7.04,7.0362,7.0323,7.0323,7.0266,7.0018,6.9273,6.9101,6.8871,6.8069,6.7897,6.7878,6.7821,6.7802,6.7782,6.7725,0.0,0.0,6.7706,6.7706,6.7706,6.7674,6.6615,6.6215,6.6974,6.599,6.5621,6.6353,6.6368,6.6256,6.5896,6.5868,6.6038,6.6384,6.6476,6.6861,6.7595,6.765,6.7687,6.7687,6.7687,6.7687,6.7687,6.7687,6.7687,6.7687,6.7687,6.7687,6.7687,6.7687,6.7687,6.7687,6.7687,6.7687,6.7687,6.7687,6.7687,6.7687,6.7917,6.8167,6.8398,6.8398,6.8859,6.9179,6.9039,6.9824,7.0409,7.0345,7.0651,7.0898,7.0871,7.0871,7.0834,7.0777,7.0777,7.0748,7.0688,7.0688,7.0658,7.0578,7.0628,7.0647,7.0597,7.0647,7.0647,7.0597,7.0597,7.0597,7.0597,7.0597,7.0597,7.0597,7.0597,7.0597,7.0597,7.0597,7.0597,7.0597,7.0597,7.0566,7.0522,7.0522,7.047,7.04,7.04,7.04,7.04,7.04,7.04,7.04,7.04,7.04,7.04,7.04,7.04,7.04,7.04,7.04,7.04,7.04,7.04,7.0323,7.0018,6.9941,6.9846,6.9521,6.9444,6.9292,6.8795,6.8699,6.8527,6.7993,0.0,6.7897,6.7897,6.7897,6.7897,6.7897,6.7477,6.7302,6.7626,6.7239,6.7059,6.7363,6.7165,6.7201,6.751,6.752,6.7536,6.7654,6.7421,6.7375,6.7687,6.7687,6.7687,6.7687,6.7687,6.7687,6.7687,6.7687,6.7687,6.7687,6.7687,6.7687,6.7687,6.7687,6.7687,6.7687,6.7687,6.7687,6.7687,6.7687,6.7687,6.7687,6.8821,6.9013,6.9186,6.9186,6.9687,7.0044,6.9931,7.0486,7.0871,7.0843,7.0871,7.0898,7.0898,7.0898,7.0871,7.0834,7.0815,7.0815,7.0777,7.0777,7.0748,7.0688,7.0718,7.0718,7.0688,7.0718,7.0718,7.0688,7.0688,7.0688,7.0688,7.0688,7.0688,7.0688,7.0688,7.0688,7.0688,7.0688,7.0688,7.0688,7.0688,7.0678,7.0616,7.0616,7.0566,7.0483,7.0483,7.0483,7.0483,7.0483,7.0483,7.0451,7.0451,7.0419,7.04,7.04,7.04,7.04,7.04,7.04,7.04,7.04,7.04,7.04,7.04,7.04,7.04,7.04,7.04,7.0228,6.9674,6.9578,6.9387,6.8776,6.868,6.868,6.868,6.868,6.868,6.868,6.8451,6.8413,6.8661,6.8451,6.8413,6.8661,6.8411,6.8465,6.8887,6.8728,6.8567,6.8394,6.8084,6.7863,6.7687,6.7687,6.7687,6.7687,6.7687,6.7687,6.7687,6.7687,6.7687,6.7687,6.7687,6.7687,6.7687,6.7687,6.7687,6.7687,6.7687,6.7687,6.7687,6.7687,6.7687,6.7687,6.9706,7.036,7.0898,7.0898,7.0898,7.0898,7.0898,7.0898,7.0898,7.0898,7.0898,7.0898,7.0898,7.0898,7.0898,7.0898,7.0898,7.0898,7.0898,7.0898,7.0843,7.0718,7.0777,7.0777,7.0688,7.0777,7.0777,7.0688,7.0688,7.0688,7.0688,7.0688,7.0688,7.0688,7.0688,7.0688,7.0688,7.0688,7.0688,7.0688,7.0688,7.0688,7.0688,7.0688,7.0688,7.0688,7.0688,7.0688,7.0688,7.0688,7.0647,7.0604,7.0604,7.0503,7.04,7.04,7.04,7.04,7.04,7.04,7.04,7.04,7.04,7.04,7.04,7.04,7.04,7.04,7.04,7.04,7.04,7.04,7.04,7.04,7.04,7.04,7.04,7.04,7.04,7.04,6.9693,6.9521,7.0323,6.9674,6.954,7.0342,7.04,7.0232,6.9834,6.9363,6.887,6.8442,6.8394,6.8185,6.7687,6.7687,6.7687,6.7687,6.7687,6.7687,6.7687,6.7687,6.7687,6.7687,6.7687,6.7687,6.7687,6.7687,6.7687,6.7687,6.7687,6.7687,6.7687,6.7687,6.7687,6.7687,7.0533,7.0744,7.0898,7.0898,7.0898,7.0898,7.0898,7.0898,7.0898,7.0898,7.0898,7.0898,7.0898,7.0898,7.0898,7.0898,7.0898,7.0898,7.0898,7.0898,7.0871,7.0843,7.0843,7.0843,7.0843,7.0843,7.0843,7.0843,7.0843,7.0843,7.0843,7.0843,7.0843,7.0843,7.0843,7.0843,7.0843,7.0843,7.0843,7.0843,7.0843,7.0815,7.0777,7.0777,7.0748,7.0688,7.0688,7.0688,7.0688,7.0688,7.0708,7.0678,7.0604,7.0554,7.0522,7.0419,7.04,7.04,7.04,7.04,7.04,7.04,7.04,7.04,7.04,7.04,7.04,7.04,7.04,7.04,7.04,7.04,7.04,7.04,7.04,7.04,7.04,7.04,7.04,7.04,7.019,7.0151,7.0381,7.019,7.0151,7.0381,7.04,7.0334,7.0213,6.9816,6.9544,6.9404,6.8734,6.8346,6.8166,6.7863,6.7687,6.7687,6.7687,6.7687,6.7687,6.7687,6.7687,6.7687,6.7687,6.7687,6.7687,6.7687,6.7687,6.7687,6.7687,6.7687,6.7687,6.7687,6.7687,6.7687,7.0898,7.0898,7.0898,7.0898,7.0898,7.0898,7.0898,7.0898,7.0898,7.0898,7.0898,7.0898,7.0898,7.0898,7.0898,7.0898,7.0898,7.0898,7.0898,7.0898,7.0898,7.0898,7.0898,7.0898,7.0898,7.0898,7.0898,7.0898,7.0898,7.0898,7.0898,7.0898,7.0898,7.0898,7.0898,7.0898,7.0898,7.0898,7.0898,7.0898,7.0898,7.0871,7.0843,7.0843,7.0815,7.0777,7.0777,7.0777,7.0777,7.0777,7.0777,7.0718,7.0647,7.0647,7.0616,7.0503,7.047,7.047,7.04,7.04,7.04,7.04,7.04,7.04,7.04,7.04,7.04,7.04,7.04,7.04,7.04,7.04,7.04,7.04,7.04,7.04,7.04,7.04,7.04,7.04,7.04,7.04,7.04,7.04,7.04,7.04,7.04,7.04,7.04,7.0179,6.9946,6.9797,6.9238,6.8799,6.8394,6.8134,6.7863,6.7687,6.7687,6.7687,6.7687,6.7687,6.7687,6.7687,6.7687,6.7687,6.7687,6.7687,6.7687,6.7687,6.7687,6.7687,6.7687,6.7687,6.7687,6.7687,7.0898,7.0898,7.0898,7.0898,7.0898,7.0898,7.0898,7.0898,7.0898,7.0898,7.0898,7.0898,7.0898,7.0898,7.0898,7.0898,7.0898,7.0898,7.0898,7.0898,7.0898,7.0898,7.0898,7.0898,7.0898,7.0898,7.0898,7.0898,7.0898,7.0898,7.0898,7.0898,7.0898,7.0898,7.0898,7.0898,7.0898,7.0898,7.0898,7.0898,7.0898,7.0898,7.0898,7.0898,7.0898,7.0898,7.0898,7.0898,7.0898,7.0898,7.0843,7.0806,7.0718,7.0718,7.0708,7.0635,7.0604,7.0585,7.0451,7.0451,7.0451,7.0451,7.0419,7.04,7.04,7.04,7.04,7.04,7.04,7.04,7.04,7.04,7.04,7.04,7.04,7.04,7.04,7.04,7.04,7.04,7.04,7.04,7.04,7.04,7.04,7.04,7.04,7.04,7.04,7.04,7.0213,6.9872,6.9797,6.9404,6.852,6.8442,6.8166,6.7687,6.7687,6.7687,6.7687,6.7687,6.7687,6.7687,6.7687,6.7687,6.7687,6.7687,6.7687,6.7687,6.7687,6.7687,6.7687,6.7687,6.7687,6.7687,7.0898,7.0898,7.0898,7.0898,7.0898,7.0898,7.0898,7.0898,7.0898,7.0898,7.0898,7.0898,7.0898,7.0898,7.0898,7.0898,7.0898,7.0898,7.0898,7.0898,7.0898,7.0898,7.0898,7.0898,7.0898,7.0898,7.0898,7.0898,7.0898,7.0898,7.0898,7.0898,7.0898,7.0898,7.0898,7.0898,7.0898,7.0898,7.0898,7.0898,7.0898,7.0898,7.0898,7.0898,7.0898,7.0898,7.0898,7.0898,7.0898,7.0898,7.0898,7.0871,7.0787,7.0777,7.0777,7.0688,7.0678,7.0658,7.0658,7.0609,7.0609,7.0609,7.0616,7.0522,7.0419,7.04,7.04,7.04,7.04,7.04,7.04,7.04,7.04,7.04,7.04,7.04,7.04,7.04,7.04,7.04,7.04,7.04,7.04,7.04,7.04,7.04,7.04,7.04,7.04,7.04,7.0367,7.0247,6.9946,6.9701,6.9485,6.8799,6.8166,6.7687,6.7687,6.7687,6.7687,6.7687,6.7687,6.7687,6.7687,6.7687,6.7687,6.7687,6.7687,6.7687,6.7687,6.7687,6.7687,6.7687,6.7687,6.7687,7.1192,7.1101,7.1048,7.1048,7.094,7.0898,7.0898,7.0898,7.0898,7.0898,7.0898,7.0898,7.0898,7.0898,7.0898,7.0898,7.0898,7.0898,7.0898,7.0898,7.0898,7.0898,7.0898,7.0898,7.0898,7.0898,7.0898,7.0898,7.0898,7.0898,7.0898,7.0898,7.0898,7.0898,7.0898,7.0898,7.0898,7.0898,7.0898,7.0898,7.0898,7.0898,7.0898,7.0898,7.0898,7.0898,7.0898,7.0898,7.0898,7.0898,7.0898,7.0898,7.0843,7.0843,7.0815,7.0777,7.0748,7.0748,7.0718,7.0688,7.0688,7.0688,7.0658,7.0647,7.0547,7.0483,7.0419,7.047,7.0451,7.04,7.04,7.04,7.04,7.04,7.04,7.04,7.04,7.04,7.04,7.04,7.04,7.04,7.04,7.04,7.04,7.04,7.04,7.04,7.04,7.04,7.04,7.04,7.0179,6.9982,6.9797,6.9321,6.8825,6.8346,6.7915,6.7687,6.7687,6.7687,6.7687,6.7687,6.7687,6.7687,6.7687,6.7687,6.781,6.8033,6.8033,6.8166,6.8346,6.8346,6.8346,6.8346,7.1501,7.1377,7.1238,7.1195,7.1072,7.0933,7.0898,7.0898,7.0898,7.0898,7.0898,7.0898,7.0898,7.0898,7.0898,7.0898,7.0898,7.0898,7.0898,7.0898,7.0898,7.0898,7.0898,7.0898,7.0898,7.0898,7.0898,7.0898,7.0898,7.0898,7.0898,7.0898,7.0898,7.0898,7.0898,7.0898,7.0898,7.0898,7.0898,7.0898,7.0898,7.0898,7.0898,7.0898,7.0898,7.0898,7.0898,7.0898,7.0898,7.0898,7.0898,7.0898,7.0898,7.0898,7.0898,7.0815,7.0834,7.0787,7.0748,7.0748,7.0748,7.0748,7.0718,7.0718,7.0718,7.0578,7.0483,7.0573,7.0503,7.0419,7.04,7.04,7.04,7.04,7.04,7.04,7.04,7.04,7.04,7.04,7.04,7.04,7.04,7.04,7.04,7.04,7.04,7.04,7.04,7.04,7.04,7.04,7.04,7.0247,6.9909,6.9834,6.9623,6.9238,6.8346,6.7948,6.7948,6.7948,6.7948,6.7948,6.7863,6.7863,6.7948,6.7863,6.8084,6.852,6.852,6.8753,6.9091,6.9091,6.9091,6.9091,7.1501,7.1484,7.1395,7.1238,7.1192,7.1101,7.0925,7.0898,7.0898,7.0898,7.0898,7.0898,7.0898,7.0898,7.0898,7.0898,7.0898,7.0898,7.0898,7.0898,7.0898,7.0898,7.0898,7.0898,7.0898,7.0898,7.0898,7.0898,7.0898,7.0898,7.0898,7.0898,7.0898,7.0898,7.0898,7.0898,7.0898,7.0898,7.0898,7.0898,7.0898,7.0898,7.0898,7.0898,7.0898,7.0898,7.0898,7.0898,7.0898,7.0898,7.0898,7.0898,7.0898,7.0898,7.0898,7.0898,7.0871,7.0871,7.0871,7.0871,7.0871,7.0871,7.0815,7.0787,7.0843,7.0758,7.0628,7.0604,7.0604,7.0554,7.0419,7.04,7.04,7.04,7.04,7.04,7.04,7.04,7.04,7.04,7.04,7.04,7.04,7.04,7.04,7.04,7.04,7.04,7.04,7.04,7.04,7.04,7.04,7.0367,7.0334,6.9982,6.9759,6.972,6.9195,6.8915,6.8915,6.8915,6.8915,6.887,6.8472,6.8538,6.887,6.8472,6.8567,6.9003,6.9003,6.9047,6.9091,6.9091,6.9091,6.9091,7.1779,7.1685,7.1582,7.149,7.1411,7.13,7.1101,7.1072,7.1042,7.0925,7.0898,7.0898,7.0898,7.0898,7.0898,7.0898,7.0898,7.0898,7.0898,7.0898,7.0898,7.0898,7.0898,7.0898,7.0898,7.0898,7.0898,7.0898,7.0898,7.0898,7.0898,7.0898,7.0898,7.0898,7.0898,7.0898,7.0898,7.0898,7.0898,7.0898,7.0898,7.0898,7.0898,7.0898,7.0898,7.0898,7.0898,7.0898,7.0898,7.0898,7.0898,7.0898,7.0898,7.0898,7.0898,7.0898,7.0898,7.0898,7.0898,7.0898,7.0898,7.0898,7.0871,7.0871,7.0898,7.0843,7.0777,7.0678,7.0647,7.0597,7.0451,7.0451,7.0503,7.0503,7.0451,7.0419,7.0503,7.0451,7.04,7.04,7.04,7.04,7.04,7.04,7.04,7.04,7.04,7.04,7.04,7.04,7.04,7.04,7.04,7.04,7.04,7.0213,7.0144,7.0144,6.9927,6.9585,6.9091,6.9091,6.9091,6.9091,6.887,6.8915,6.9091,6.8889,6.9047,6.9485,6.9485,6.9643,6.9834,6.9834,6.9834,6.9834]},{"header":{"parameterUnit":"m.s-1","parameterCategory":1,"la1":30.6,"la2":28.766,"lo1":-90.7593,"lo2":-88.6598,"dx":0.0162,"dy":0.0183,"nx":116,"ny":114,"refTime":"2023-01-22T18:00:00:Z","depth":0,"parameterNumber":3,"parameterNumberName":"V-component_of_WINDS"},"data":[0.0,0.0,0.0,0.0,0.0,0.0,0.0,0.0,0.0,0.0,0.0,0.0,0.0,0.0,0.0,0.0,0.0,0.0,0.0,0.0,0.0,0.0,0.0,0.0,0.0,0.0,0.0,0.0,0.0,0.0,0.0,0.0,0.0,0.0,0.0,0.0,0.0,0.0,0.0,0.0,0.0,0.0,0.0,0.0,0.0,0.0,0.0,0.0,0.0,0.0,0.0,0.0,0.0,0.0,0.0,0.0,0.0,0.0,0.0,0.0,0.0,0.0,0.0,0.0,0.0,0.0,0.0,0.0,0.0,0.0,0.0,0.0,0.0,0.0,0.0,0.0,0.0,0.0,0.0,0.0,0.0,0.0,0.0,0.0,0.0,0.0,0.0,0.0,0.0,0.0,0.0,0.0,0.0,0.0,0.0,0.0,0.0,0.0,0.0,0.0,0.0,0.0,0.0,0.0,0.0,0.0,0.0,0.0,0.0,0.0,0.0,0.0,0.0,0.0,0.0,0.0,0.0,0.0,0.0,0.0,0.0,0.0,0.0,0.0,0.0,0.0,0.0,0.0,0.0,0.0,0.0,0.0,0.0,0.0,0.0,0.0,0.0,0.0,0.0,0.0,0.0,0.0,0.0,0.0,0.0,0.0,0.0,0.0,0.0,0.0,0.0,0.0,0.0,0.0,0.0,0.0,0.0,0.0,0.0,0.0,0.0,0.0,0.0,0.0,0.0,0.0,0.0,0.0,0.0,0.0,0.0,0.0,0.0,0.0,0.0,0.0,0.0,0.0,0.0,0.0,0.0,0.0,0.0,0.0,0.0,0.0,0.0,0.0,0.0,0.0,0.0,0.0,0.0,0.0,0.0,0.0,0.0,0.0,0.0,0.0,0.0,0.0,0.0,0.0,0.0,0.0,0.0,0.0,0.0,0.0,0.0,0.0,0.0,0.0,0.0,0.0,0.0,0.0,0.0,0.0,0.0,0.0,0.0,0.0,0.0,0.0,0.0,0.0,0.0,0.0,0.0,0.0,0.0,0.0,0.0,0.0,0.0,0.0,0.0,0.0,0.0,0.0,0.0,0.0,0.0,0.0,0.0,0.0,0.0,0.0,0.0,0.0,0.0,0.0,0.0,0.0,0.0,0.0,0.0,0.0,0.0,0.0,0.0,0.0,0.0,0.0,0.0,0.0,0.0,0.0,0.0,0.0,0.0,0.0,0.0,0.0,0.0,0.0,0.0,0.0,0.0,0.0,0.0,0.0,0.0,0.0,0.0,0.0,0.0,0.0,0.0,0.0,0.0,0.0,0.0,0.0,0.0,0.0,0.0,0.0,0.0,0.0,0.0,0.0,0.0,0.0,0.0,0.0,0.0,0.0,0.0,0.0,0.0,0.0,0.0,0.0,0.0,0.0,0.0,0.0,0.0,0.0,0.0,0.0,0.0,0.0,0.0,0.0,0.0,0.0,0.0,0.0,0.0,0.0,0.0,0.0,0.0,0.0,0.0,0.0,0.0,0.0,0.0,0.0,0.0,0.0,0.0,0.0,0.0,0.0,0.0,0.0,0.0,0.0,0.0,0.0,0.0,0.0,0.0,0.0,0.0,0.0,0.0,0.0,0.0,0.0,0.0,0.0,0.0,0.0,0.0,0.0,0.0,0.0,0.0,0.0,0.0,0.0,0.0,0.0,0.0,0.0,0.0,0.0,0.0,0.0,0.0,0.0,0.0,0.0,0.0,0.0,0.0,0.0,0.0,0.0,0.0,0.0,0.0,0.0,0.0,0.0,0.0,0.0,0.0,0.0,0.0,0.0,0.0,0.0,0.0,0.0,0.0,0.0,0.0,0.0,0.0,0.0,0.0,0.0,0.0,0.0,0.0,0.0,0.0,0.0,0.0,0.0,0.0,0.0,0.0,0.0,0.0,0.0,0.0,0.0,0.0,0.0,0.0,0.0,0.0,0.0,0.0,0.0,0.0,0.0,0.0,0.0,0.0,0.0,0.0,0.0,0.0,0.0,0.0,0.0,0.0,0.0,0.0,0.0,0.0,0.0,0.0,0.0,0.0,0.0,0.0,0.0,0.0,0.0,0.0,0.0,0.0,0.0,0.0,0.0,0.0,0.0,0.0,0.0,0.0,0.0,0.0,0.0,0.0,0.0,0.0,0.0,0.0,0.0,0.0,0.0,0.0,0.0,0.0,0.0,0.0,0.0,0.0,0.0,0.0,0.0,0.0,0.0,0.0,0.0,0.0,0.0,0.0,0.0,0.0,0.0,0.0,0.0,0.0,0.0,0.0,0.0,0.0,0.0,0.0,0.0,0.0,0.0,0.0,0.0,0.0,0.0,0.0,0.0,0.0,0.0,0.0,0.0,0.0,0.0,0.0,0.0,0.0,0.0,0.0,0.0,0.0,0.0,0.0,0.0,0.0,0.0,0.0,0.0,0.0,0.0,0.0,0.0,0.0,0.0,0.0,0.0,0.0,0.0,0.0,0.0,0.0,0.0,0.0,0.0,0.0,0.0,0.0,0.0,0.0,0.0,0.0,0.0,0.0,0.0,0.0,0.0,0.0,0.0,0.0,0.0,0.0,0.0,0.0,0.0,0.0,0.0,0.0,0.0,0.0,0.0,0.0,0.0,0.0,0.0,0.0,0.0,0.0,0.0,0.0,0.0,0.0,0.0,0.0,0.0,0.0,0.0,0.0,0.0,0.0,0.0,0.0,0.0,0.0,0.0,0.0,0.0,0.0,0.0,0.0,0.0,0.0,0.0,0.0,0.0,0.0,0.0,0.0,0.0,0.0,0.0,0.0,0.0,0.0,0.0,0.0,0.0,0.0,0.0,0.0,0.0,0.0,0.0,0.0,0.0,0.0,0.0,0.0,0.0,0.0,0.0,0.0,0.0,0.0,0.0,0.0,0.0,0.0,0.0,0.0,0.0,0.0,0.0,0.0,0.0,0.0,0.0,0.0,0.0,0.0,0.0,0.0,0.0,0.0,0.0,0.0,0.0,0.0,0.0,0.0,0.0,0.0,0.0,0.0,0.0,0.0,0.0,0.0,0.0,0.0,0.0,0.0,0.0,0.0,0.0,0.0,0.0,0.0,0.0,0.0,0.0,0.0,0.0,0.0,0.0,0.0,0.0,0.0,0.0,0.0,0.0,0.0,0.0,0.0,0.0,0.0,0.0,0.0,0.0,0.0,0.0,0.0,0.0,0.0,0.0,0.0,0.0,0.0,0.0,0.0,0.0,0.0,0.0,0.0,0.0,0.0,0.0,0.0,0.0,0.0,0.0,0.0,0.0,0.0,0.0,0.0,0.0,0.0,0.0,0.0,0.0,0.0,0.0,0.0,0.0,0.0,0.0,0.0,0.0,0.0,0.0,0.0,0.0,0.0,0.0,0.0,0.0,0.0,0.0,0.0,0.0,0.0,0.0,0.0,0.0,0.0,0.0,0.0,0.0,0.0,0.0,0.0,0.0,0.0,0.0,0.0,0.0,0.0,0.0,0.0,0.0,0.0,0.0,0.0,0.0,0.0,0.0,0.0,0.0,0.0,0.0,0.0,0.0,0.0,0.0,0.0,0.0,0.0,0.0,0.0,0.0,0.0,0.0,0.0,0.0,0.0,0.0,0.0,0.0,0.0,0.0,0.0,0.0,0.0,0.0,0.0,0.0,0.0,0.0,0.0,0.0,0.0,0.0,0.0,0.0,0.0,0.0,0.0,0.0,0.0,0.0,0.0,0.0,0.0,0.0,0.0,0.0,0.0,0.0,0.0,0.0,0.0,0.0,0.0,0.0,0.0,0.0,0.0,0.0,0.0,0.0,0.0,0.0,0.0,0.0,0.0,0.0,0.0,0.0,0.0,0.0,0.0,0.0,0.0,0.0,0.0,0.0,0.0,0.0,0.0,0.0,0.0,0.0,0.0,0.0,0.0,0.0,0.0,0.0,0.0,0.0,0.0,0.0,0.0,0.0,0.0,0.0,0.0,0.0,0.0,0.0,0.0,0.0,0.0,0.0,0.0,0.0,0.0,0.0,0.0,0.0,0.0,0.0,0.0,0.0,0.0,0.0,0.0,0.0,0.0,0.0,0.0,0.0,0.0,0.0,0.0,0.0,0.0,0.0,0.0,0.0,0.0,0.0,0.0,0.0,0.0,0.0,0.0,0.0,0.0,0.0,0.0,0.0,0.0,0.0,0.0,0.0,0.0,0.0,0.0,0.0,0.0,0.0,0.0,0.0,0.0,0.0,0.0,0.0,0.0,0.0,0.0,0.0,0.0,0.0,0.0,0.0,0.0,0.0,0.0,0.0,0.0,0.0,0.0,0.0,0.0,0.0,0.0,0.0,0.0,0.0,0.0,0.0,0.0,0.0,0.0,0.0,0.0,0.0,0.0,0.0,0.0,0.0,0.0,0.0,0.0,0.0,0.0,0.0,0.0,0.0,0.0,0.0,0.0,0.0,0.0,0.0,0.0,0.0,0.0,0.0,0.0,0.0,0.0,0.0,0.0,0.0,0.0,0.0,0.0,0.0,0.0,0.0,0.0,0.0,0.0,0.0,0.0,0.0,0.0,0.0,0.0,0.0,0.0,0.0,0.0,0.0,0.0,0.0,0.0,0.0,0.0,0.0,0.0,0.0,0.0,0.0,0.0,0.0,0.0,0.0,0.0,0.0,0.0,0.0,0.0,0.0,0.0,0.0,0.0,0.0,0.0,0.0,0.0,0.0,0.0,0.0,0.0,0.0,0.0,0.0,0.0,0.0,0.0,0.0,0.0,0.0,0.0,0.0,0.0,0.0,0.0,0.0,0.0,0.0,0.0,0.0,0.0,0.0,0.0,0.0,0.0,0.0,0.0,0.0,0.0,0.0,0.0,0.0,0.0,0.0,0.0,0.0,0.0,0.0,0.0,0.0,0.0,0.0,0.0,0.0,0.0,0.0,0.0,0.0,0.0,0.0,0.0,0.0,0.0,0.0,0.0,0.0,0.0,0.0,0.0,0.0,0.0,0.0,0.0,0.0,0.0,0.0,0.0,0.0,0.0,0.0,0.0,0.0,0.0,0.0,0.0,0.0,0.0,0.0,0.0,0.0,0.0,0.0,0.0,0.0,0.0,0.0,0.0,0.0,0.0,0.0,0.0,0.0,0.0,0.0,0.0,0.0,0.0,0.0,0.0,0.0,0.0,0.0,0.0,0.0,0.0,0.0,0.0,0.0,0.0,0.0,0.0,0.0,0.0,0.0,0.0,0.0,0.0,0.0,0.0,0.0,0.0,0.0,0.0,0.0,0.0,0.0,0.0,0.0,0.0,0.0,0.0,0.0,0.0,0.0,0.0,0.0,0.0,0.0,0.0,0.0,0.0,0.0,0.0,0.0,0.0,0.0,0.0,0.0,0.0,0.0,0.0,0.0,0.0,0.0,0.0,0.0,0.0,0.0,0.0,0.0,0.0,0.0,0.0,0.0,0.0,0.0,0.0,0.0,0.0,0.0,0.0,0.0,0.0,0.0,0.0,0.0,0.0,0.0,0.0,0.0,0.0,0.0,0.0,0.0,0.0,0.0,0.0,0.0,0.0,0.0,0.0,0.0,0.0,0.0,0.0,0.0,0.0,0.0,0.0,0.0,0.0,0.0,0.0,0.0,0.0,0.0,0.0,0.0,0.0,0.0,0.0,0.0,0.0,0.0,0.0,0.0,0.0,0.0,0.0,0.0,0.0,0.0,0.0,0.0,0.0,0.0,0.0,0.0,0.0,0.0,0.0,0.0,0.0,0.0,0.0,0.0,0.0,0.0,0.0,0.0,0.0,0.0,0.0,0.0,0.0,0.0,0.0,0.0,0.0,0.0,0.0,0.0,0.0,0.0,0.0,0.0,0.0,0.0,0.0,0.0,0.0,0.0,0.0,0.0,0.0,0.0,0.0,0.0,0.0,0.0,0.0,0.0,0.0,0.0,0.0,0.0,0.0,0.0,0.0,0.0,0.0,0.0,0.0,0.0,0.0,0.0,0.0,0.0,0.0,0.0,0.0,0.0,0.0,0.0,0.0,0.0,0.0,0.0,0.0,0.0,0.0,0.0,0.0,0.0,0.0,0.0,0.0,0.0,0.0,0.0,0.0,0.0,-2.5166,0.0,0.0,0.0,0.0,0.0,0.0,0.0,0.0,0.0,0.0,0.0,0.0,0.0,0.0,0.0,0.0,0.0,0.0,0.0,0.0,0.0,0.0,0.0,0.0,0.0,0.0,0.0,0.0,0.0,0.0,0.0,0.0,0.0,0.0,0.0,0.0,0.0,0.0,0.0,0.0,0.0,0.0,0.0,0.0,0.0,0.0,0.0,0.0,0.0,0.0,0.0,0.0,0.0,0.0,0.0,0.0,0.0,0.0,0.0,0.0,0.0,0.0,0.0,0.0,0.0,0.0,0.0,0.0,0.0,0.0,0.0,0.0,0.0,0.0,0.0,0.0,0.0,0.0,0.0,0.0,0.0,0.0,0.0,0.0,0.0,0.0,0.0,0.0,0.0,0.0,0.0,0.0,0.0,0.0,0.0,0.0,0.0,0.0,0.0,0.0,0.0,0.0,0.0,0.0,0.0,0.0,0.0,0.0,0.0,0.0,0.0,0.0,0.0,0.0,0.0,0.0,-2.5521,0.0,0.0,0.0,0.0,0.0,0.0,0.0,0.0,0.0,0.0,0.0,0.0,0.0,0.0,0.0,0.0,0.0,0.0,0.0,0.0,0.0,0.0,0.0,0.0,0.0,0.0,0.0,0.0,0.0,0.0,0.0,0.0,0.0,0.0,0.0,0.0,0.0,0.0,0.0,0.0,0.0,0.0,0.0,0.0,-2.2356,0.0,0.0,0.0,0.0,0.0,0.0,0.0,0.0,0.0,0.0,0.0,0.0,0.0,0.0,0.0,0.0,0.0,0.0,0.0,0.0,0.0,0.0,0.0,0.0,0.0,0.0,0.0,0.0,0.0,0.0,0.0,0.0,0.0,0.0,0.0,0.0,0.0,0.0,0.0,0.0,0.0,0.0,0.0,0.0,0.0,0.0,0.0,0.0,0.0,0.0,0.0,0.0,0.0,0.0,0.0,0.0,0.0,0.0,0.0,0.0,0.0,0.0,0.0,0.0,0.0,-2.6659,-2.7366,-2.7616,-2.7454,-2.69,-2.6258,-2.5789,0.0,0.0,0.0,0.0,0.0,0.0,0.0,0.0,0.0,0.0,0.0,0.0,0.0,0.0,0.0,0.0,0.0,0.0,0.0,0.0,0.0,0.0,0.0,0.0,0.0,0.0,0.0,0.0,0.0,0.0,0.0,0.0,0.0,0.0,0.0,0.0,0.0,0.0,0.0,0.0,0.0,0.0,0.0,-2.2039,-2.2085,0.0,0.0,0.0,0.0,0.0,0.0,0.0,0.0,0.0,0.0,0.0,0.0,0.0,0.0,0.0,0.0,0.0,0.0,0.0,0.0,0.0,0.0,0.0,0.0,0.0,0.0,0.0,0.0,0.0,0.0,0.0,0.0,0.0,0.0,0.0,0.0,0.0,0.0,0.0,0.0,0.0,0.0,-2.4539,-2.4601,0.0,0.0,0.0,0.0,0.0,0.0,0.0,0.0,0.0,0.0,0.0,0.0,0.0,0.0,-2.7851,-2.7512,-2.7382,-2.7459,-2.6392,-2.5964,-2.5953,-2.6035,-2.5727,-2.5009,-2.5633,0.0,-2.655,-2.5942,0.0,0.0,0.0,0.0,0.0,0.0,0.0,0.0,0.0,0.0,0.0,0.0,0.0,0.0,0.0,0.0,0.0,0.0,0.0,0.0,0.0,0.0,0.0,0.0,0.0,0.0,0.0,0.0,0.0,0.0,0.0,0.0,0.0,0.0,0.0,0.0,0.0,0.0,0.0,0.0,0.0,0.0,0.0,0.0,0.0,0.0,0.0,0.0,0.0,0.0,0.0,0.0,0.0,0.0,0.0,0.0,0.0,0.0,0.0,0.0,0.0,0.0,0.0,0.0,0.0,0.0,0.0,0.0,0.0,0.0,0.0,0.0,0.0,0.0,0.0,0.0,0.0,0.0,0.0,0.0,0.0,0.0,0.0,0.0,0.0,-2.4834,-2.5353,-2.5497,-2.6114,-2.6766,0.0,0.0,0.0,0.0,0.0,0.0,0.0,0.0,0.0,-2.5813,-2.6561,-2.6948,-2.679,-2.6419,-2.6749,-2.7824,-2.7004,-2.6896,-2.7397,-2.7386,-2.713,-2.6724,-2.6638,-2.6738,-2.6948,-2.6069,-2.5914,-2.6314,0.0,0.0,0.0,0.0,0.0,0.0,0.0,0.0,0.0,0.0,0.0,0.0,0.0,0.0,0.0,0.0,0.0,0.0,0.0,0.0,0.0,0.0,0.0,0.0,0.0,0.0,0.0,0.0,0.0,0.0,0.0,0.0,0.0,0.0,0.0,0.0,0.0,0.0,0.0,0.0,0.0,0.0,0.0,0.0,0.0,0.0,0.0,0.0,0.0,0.0,0.0,0.0,0.0,0.0,0.0,0.0,0.0,0.0,0.0,0.0,0.0,0.0,0.0,0.0,0.0,0.0,0.0,0.0,0.0,0.0,0.0,0.0,0.0,0.0,0.0,0.0,0.0,0.0,0.0,0.0,0.0,0.0,0.0,-2.5685,-2.6171,-2.6554,-2.7123,-2.7635,0.0,0.0,0.0,0.0,0.0,0.0,-2.5814,-2.7368,-2.747,-2.5655,-2.659,-2.6948,-2.6517,-2.5978,-2.6422,-2.7787,-2.7195,-2.7272,-2.7962,-2.7863,-2.7863,-2.7765,-2.7183,-2.684,-2.6786,-2.6066,-2.5946,-2.619,-2.6864,-2.7508,0.0,-2.7765,-2.7487,-2.7272,0.0,0.0,0.0,0.0,0.0,0.0,0.0,0.0,0.0,0.0,0.0,0.0,0.0,0.0,0.0,0.0,0.0,0.0,0.0,0.0,0.0,0.0,0.0,0.0,0.0,0.0,0.0,0.0,0.0,0.0,0.0,0.0,0.0,0.0,0.0,0.0,0.0,0.0,0.0,0.0,0.0,0.0,0.0,0.0,0.0,0.0,0.0,0.0,0.0,0.0,0.0,0.0,0.0,0.0,0.0,0.0,0.0,0.0,0.0,0.0,0.0,0.0,0.0,0.0,0.0,0.0,0.0,0.0,0.0,0.0,0.0,0.0,0.0,0.0,0.0,0.0,0.0,0.0,0.0,-2.7923,-2.8072,0.0,0.0,0.0,0.0,-2.7198,-2.7888,-2.7859,-2.6505,-2.6549,-2.6779,-2.7063,-2.7195,-2.7535,-2.8391,-2.748,-2.7161,-2.7239,-2.6394,-2.5965,-2.6055,-2.6055,-2.6055,-2.6055,-2.5965,-2.5965,-2.5965,-2.5913,-2.6419,-2.7118,-2.7206,-2.7732,-2.8339,-2.7579,-2.7261,-2.7106,0.0,0.0,0.0,0.0,0.0,0.0,0.0,0.0,0.0,0.0,0.0,0.0,0.0,0.0,0.0,0.0,0.0,0.0,0.0,0.0,0.0,0.0,0.0,0.0,0.0,0.0,0.0,0.0,0.0,0.0,0.0,0.0,0.0,0.0,0.0,0.0,0.0,0.0,0.0,0.0,0.0,0.0,0.0,0.0,0.0,0.0,0.0,0.0,0.0,0.0,0.0,0.0,0.0,0.0,0.0,0.0,0.0,0.0,0.0,0.0,0.0,0.0,0.0,0.0,0.0,0.0,0.0,0.0,0.0,0.0,0.0,0.0,0.0,0.0,0.0,0.0,0.0,0.0,0.0,-2.6925,-2.7924,0.0,0.0,-2.7822,-2.7766,-2.6785,-2.7267,-2.7181,-2.614,-2.7173,-2.7337,-2.6394,-2.6928,-2.7095,-2.6829,-2.679,-2.7121,-2.7741,-2.7073,-2.7127,-2.7672,-2.7034,-2.6765,-2.6765,-2.6765,-2.6765,-2.6765,-2.6765,-2.6597,-2.6315,-2.6315,-2.6764,-2.72,-2.695,-2.7059,-2.722,0.0,0.0,0.0,0.0,0.0,0.0,0.0,0.0,0.0,0.0,0.0,0.0,0.0,0.0,0.0,0.0,0.0,0.0,0.0,0.0,0.0,0.0,0.0,0.0,0.0,0.0,0.0,0.0,0.0,0.0,0.0,0.0,0.0,0.0,0.0,0.0,0.0,0.0,0.0,0.0,0.0,0.0,-2.205,0.0,0.0,0.0,0.0,0.0,0.0,0.0,0.0,0.0,0.0,0.0,0.0,0.0,0.0,0.0,0.0,0.0,0.0,0.0,0.0,0.0,0.0,0.0,0.0,0.0,0.0,0.0,0.0,0.0,0.0,0.0,0.0,0.0,0.0,0.0,-2.6616,-2.6588,-2.7763,-2.8092,-2.7039,-2.7611,-2.7554,-2.6367,-2.6833,-2.6915,-2.6194,-2.7244,-2.7399,-2.6433,-2.6971,-2.6971,-2.6341,-2.6651,-2.7169,-2.7796,-2.7474,-2.7631,-2.8175,-2.7536,-2.7262,-2.7262,-2.7262,-2.7262,-2.7262,-2.7262,-2.69,-2.6341,-2.6341,-2.6527,-2.6806,-2.6806,-2.6993,-2.7262,0.0,0.0,0.0,0.0,0.0,0.0,0.0,0.0,0.0,0.0,0.0,0.0,0.0,0.0,0.0,0.0,0.0,0.0,0.0,0.0,0.0,0.0,0.0,0.0,0.0,0.0,0.0,0.0,0.0,0.0,0.0,0.0,0.0,0.0,0.0,0.0,0.0,0.0,0.0,0.0,0.0,0.0,-2.2543,0.0,0.0,0.0,0.0,0.0,0.0,0.0,0.0,0.0,0.0,0.0,0.0,0.0,0.0,0.0,0.0,0.0,0.0,0.0,0.0,0.0,0.0,0.0,0.0,0.0,0.0,0.0,0.0,0.0,0.0,0.0,0.0,0.0,-2.6268,-2.628,-2.6462,-2.6964,-2.755,-2.7426,-2.6573,-2.7682,-2.7798,-2.6076,-2.6704,-2.6997,-2.6651,-2.6589,-2.6796,-2.7251,-2.7262,-2.7262,-2.7262,-2.7262,-2.7262,-2.7262,-2.7272,-2.7282,-2.7282,-2.7293,-2.7303,-2.7303,-2.7303,-2.7303,-2.7303,-2.7303,-2.7303,-2.7303,-2.7272,-2.7262,-2.7262,-2.7262,-2.7262,-2.7262,0.0,0.0,0.0,0.0,0.0,0.0,0.0,0.0,0.0,0.0,0.0,0.0,0.0,0.0,0.0,0.0,0.0,0.0,0.0,0.0,0.0,0.0,0.0,0.0,0.0,0.0,0.0,0.0,0.0,0.0,0.0,0.0,0.0,0.0,0.0,0.0,0.0,0.0,0.0,0.0,0.0,0.0,-2.2725,0.0,0.0,0.0,0.0,0.0,0.0,0.0,0.0,0.0,0.0,0.0,0.0,0.0,0.0,0.0,0.0,0.0,0.0,0.0,0.0,0.0,0.0,0.0,0.0,0.0,0.0,0.0,0.0,0.0,0.0,0.0,0.0,-2.631,-2.6422,-2.6411,-2.6417,-2.6213,-2.7498,-2.7749,-2.6203,-2.7244,-2.7616,-2.6464,-2.6961,-2.7212,-2.7065,-2.7076,-2.7127,-2.7251,-2.7262,-2.7262,-2.7262,-2.7262,-2.7262,-2.7262,-2.7583,-2.7738,-2.7759,-2.809,-2.8245,-2.8245,-2.8245,-2.8245,-2.8245,-2.8245,-2.8245,-2.8173,-2.7521,-2.7262,-2.7262,-2.7262,-2.7262,-2.7262,0.0,0.0,0.0,0.0,0.0,0.0,0.0,0.0,0.0,0.0,0.0,0.0,0.0,0.0,0.0,0.0,0.0,0.0,0.0,0.0,0.0,0.0,0.0,0.0,0.0,0.0,0.0,0.0,0.0,0.0,0.0,0.0,0.0,0.0,0.0,0.0,0.0,0.0,0.0,0.0,0.0,0.0,-2.3107,-2.2755,-2.2814,-2.3172,-2.3082,-2.316,-2.3243,-2.3504,0.0,0.0,0.0,0.0,0.0,0.0,0.0,0.0,0.0,0.0,0.0,0.0,0.0,0.0,0.0,0.0,0.0,0.0,0.0,0.0,0.0,0.0,0.0,0.0,-2.6256,-2.6331,-2.6523,-2.6373,-2.6186,-2.5934,-2.7012,-2.7298,-2.6256,-2.7041,-2.7408,-2.6952,-2.7107,-2.7262,-2.7262,-2.7262,-2.7262,-2.7262,-2.7262,-2.7345,-2.7541,-2.7541,-2.7634,-2.7831,-2.809,-2.8214,-2.8224,-2.8493,-2.8618,0.0,-2.8618,-2.8618,-2.8618,-2.8618,-2.8618,0.0,0.0,0.0,0.0,0.0,-2.7821,-2.7821,0.0,0.0,0.0,0.0,0.0,0.0,0.0,0.0,0.0,0.0,0.0,0.0,0.0,0.0,0.0,0.0,0.0,0.0,0.0,0.0,0.0,0.0,0.0,0.0,0.0,0.0,0.0,0.0,0.0,0.0,0.0,0.0,0.0,0.0,0.0,0.0,0.0,0.0,0.0,0.0,0.0,0.0,-2.3503,-2.3232,-2.3406,-2.3667,-2.359,-2.3764,-2.411,-2.4206,0.0,0.0,0.0,0.0,0.0,0.0,0.0,0.0,0.0,0.0,0.0,0.0,0.0,0.0,0.0,0.0,0.0,0.0,0.0,0.0,0.0,0.0,0.0,0.0,-2.5958,-2.6113,-2.6579,-2.6289,-2.6041,-2.6041,-2.6403,-2.6641,-2.6641,-2.7024,-2.7262,-2.7262,-2.7262,-2.7262,-2.7262,0.0,0.0,0.0,0.0,-2.7552,-2.7997,-2.7997,-2.8204,-2.8618,-2.8659,-2.869,-2.869,-2.8742,-2.8773,-2.8773,-2.8773,-2.8773,-2.8773,-2.8773,-2.8773,-2.8763,-2.8649,-2.8618,-2.8618,-2.8618,-2.8618,0.0,0.0,0.0,0.0,0.0,0.0,0.0,0.0,0.0,0.0,0.0,0.0,0.0,0.0,0.0,0.0,0.0,0.0,0.0,0.0,0.0,0.0,0.0,0.0,0.0,0.0,0.0,0.0,0.0,0.0,0.0,0.0,0.0,0.0,0.0,0.0,0.0,0.0,0.0,0.0,0.0,0.0,0.0,-2.3503,-2.358,-2.3493,-2.3319,-2.358,-2.358,-2.3406,-2.4024,-2.3937,-2.3764,-2.4282,0.0,0.0,0.0,0.0,0.0,0.0,0.0,0.0,0.0,0.0,0.0,0.0,0.0,0.0,0.0,0.0,0.0,0.0,0.0,0.0,-2.6464,-2.6434,-2.6599,-2.7055,-2.7044,-2.6993,-2.6993,-2.7076,-2.7127,-2.7127,-2.721,-2.7262,-2.7262,-2.7262,-2.7262,-2.7262,-2.7262,0.0,-2.7779,-2.779,-2.8017,-2.8473,-2.8483,-2.8524,-2.8618,0.0,0.0,-2.9187,-2.9559,-2.9725,-2.9725,-2.9725,-2.9725,-2.9725,-2.9725,-2.9725,-2.9653,-2.8907,-2.8618,-2.8618,-2.8618,-2.8618,-2.8618,0.0,0.0,0.0,0.0,0.0,0.0,0.0,0.0,0.0,0.0,0.0,0.0,0.0,0.0,0.0,0.0,0.0,0.0,0.0,0.0,0.0,0.0,0.0,0.0,0.0,0.0,0.0,0.0,0.0,0.0,0.0,0.0,0.0,0.0,0.0,0.0,0.0,0.0,0.0,0.0,0.0,0.0,-2.4286,-2.3662,-2.3406,-2.3319,-2.358,-2.358,-2.3493,-2.3851,-2.3937,-2.3851,-2.411,-2.4196,-2.4206,0.0,0.0,0.0,0.0,0.0,0.0,0.0,0.0,0.0,0.0,0.0,0.0,0.0,0.0,-2.6227,0.0,0.0,-2.6641,-2.6879,-2.691,-2.6993,-2.7231,-2.7262,-2.7262,-2.7262,-2.7262,-2.7262,-2.7262,-2.7262,-2.7262,-2.7262,-2.7469,-2.7593,-2.7593,-2.781,-2.8038,-2.8266,-2.8266,-2.8493,-2.8959,-2.8959,-2.9073,-2.9311,-2.9777,-2.9994,-3.0015,-3.047,-3.0688,-3.0688,-3.0688,-3.0688,-3.0688,-3.0688,-3.0688,-3.0636,-3.018,-2.9715,-2.9301,-2.9301,-2.9301,-2.9301,0.0,0.0,0.0,0.0,0.0,0.0,0.0,0.0,0.0,0.0,0.0,0.0,0.0,0.0,0.0,0.0,0.0,0.0,0.0,0.0,0.0,0.0,0.0,0.0,0.0,0.0,0.0,0.0,0.0,0.0,0.0,0.0,0.0,0.0,0.0,0.0,0.0,0.0,0.0,0.0,0.0,0.0,-2.5098,-2.393,-2.3575,-2.3751,-2.3849,-2.3927,-2.4005,-2.4015,-2.42,-2.4374,-2.419,-2.4277,-2.4472,-2.4548,-2.4635,0.0,0.0,0.0,0.0,0.0,0.0,0.0,0.0,0.0,-2.6041,-2.6123,-2.6444,-2.6703,-2.6703,-2.7013,-2.7262,-2.7262,-2.7262,-2.7262,-2.7262,-2.7262,-2.7262,-2.7262,-2.7262,-2.7262,-2.7262,-2.7262,-2.7293,-2.7376,-2.7717,-2.7966,-2.8059,-2.8411,-2.8659,-2.8742,-2.8752,-2.9021,-2.957,-2.957,-2.9808,-3.0263,-3.0646,-3.0822,-3.0833,-3.1205,-3.1381,-3.1381,-3.1381,-3.1381,-3.1381,-3.1381,-3.1381,-3.1381,-3.1381,-3.0915,-3.0263,-3.0263,-3.0263,-3.0263,0.0,0.0,0.0,0.0,0.0,0.0,0.0,0.0,0.0,0.0,0.0,0.0,0.0,0.0,0.0,0.0,0.0,0.0,0.0,0.0,0.0,0.0,0.0,0.0,0.0,0.0,0.0,0.0,0.0,0.0,0.0,0.0,0.0,0.0,0.0,0.0,0.0,0.0,0.0,0.0,0.0,0.0,-2.5168,-2.5068,-2.4846,-2.4653,-2.4937,-2.4846,-2.4744,-2.4937,-2.5028,-2.5118,-2.53,-2.54,-2.5501,-2.565,0.0,-2.574,0.0,0.0,0.0,-2.5865,-2.5875,-2.5989,0.0,0.0,-2.661,-2.7024,-2.7148,-2.7179,-2.7179,-2.722,-2.7262,-2.7262,-2.7262,-2.7262,-2.7262,-2.7262,-2.7262,-2.7262,-2.7262,-2.7262,-2.7262,-2.7262,-2.7427,-2.7821,-2.7893,-2.81,-2.8514,-2.8587,-2.8804,-2.9218,-2.9228,-2.9653,-3.0522,-3.0532,-3.076,-3.1215,-3.1278,-3.1298,-3.1298,-3.135,-3.1381,-3.1381,-3.1381,-3.1381,-3.1381,-3.1381,-3.1381,-3.1381,-3.1381,-3.1319,-3.1215,-3.1215,-3.1215,-3.1215,0.0,0.0,0.0,0.0,0.0,0.0,0.0,0.0,0.0,0.0,0.0,0.0,0.0,0.0,0.0,0.0,0.0,0.0,0.0,0.0,0.0,0.0,0.0,0.0,0.0,0.0,0.0,0.0,0.0,0.0,0.0,0.0,0.0,0.0,0.0,0.0,0.0,0.0,0.0,0.0,0.0,0.0,-2.6412,-2.6235,-2.6141,-2.5977,-2.5554,-2.528,0.0,0.0,-2.5543,-2.5523,-2.5361,-2.5543,-2.5715,-2.5715,-2.5795,0.0,-2.6206,0.0,0.0,0.0,-2.6682,-2.6734,-2.6931,-2.6972,-2.7024,-2.722,-2.7262,-2.7262,-2.7262,-2.7262,-2.7262,0.0,-2.7262,-2.7262,-2.7262,-2.7262,-2.7355,-2.7614,-2.7645,-2.7645,-2.7645,-2.7645,-2.7831,-2.8286,-2.8576,-2.8804,-2.9001,-2.927,-2.9632,-3.0098,-3.0108,-3.0419,-3.1081,-3.1091,-3.1184,-3.1381,-3.164,-3.1764,-3.1774,-3.2043,-3.2168,-3.2168,-3.2168,-3.2168,-3.2168,-3.2168,-3.2168,-3.2168,-3.2168,-3.2168,-3.2106,-3.1578,-3.1381,-3.1381,0.0,0.0,0.0,0.0,0.0,0.0,0.0,0.0,0.0,0.0,0.0,0.0,0.0,0.0,0.0,0.0,0.0,0.0,0.0,0.0,0.0,0.0,0.0,0.0,0.0,0.0,0.0,0.0,0.0,0.0,0.0,0.0,0.0,0.0,0.0,0.0,0.0,0.0,0.0,0.0,0.0,0.0,-2.7262,-2.689,-2.6805,-2.6819,-2.6166,-2.5839,0.0,0.0,-2.6095,-2.6166,-2.5818,-2.5911,-2.6268,-2.6085,-2.6176,-2.633,-2.6672,0.0,0.0,-2.7262,-2.7262,-2.7262,-2.7262,-2.7262,-2.7262,-2.7262,-2.7262,-2.7262,-2.7262,-2.7262,0.0,-2.7262,-2.7262,-2.7303,-2.7427,-2.7438,-2.7614,-2.8059,-2.811,-2.8162,-2.8297,-2.8183,-2.8307,-2.8773,-2.9114,-2.9415,-2.9673,-3.0005,-3.0398,-3.0864,-3.0874,-3.1102,-3.1557,-3.1557,-3.1629,-3.1754,-3.2075,-3.223,-3.224,-3.2582,-3.2727,-3.2727,-3.2727,-3.2727,-3.2727,-3.2727,-3.2727,-3.2727,-3.2727,-3.2727,-3.2654,-3.1992,-3.1754,-3.1754,0.0,0.0,0.0,0.0,0.0,0.0,0.0,0.0,0.0,0.0,0.0,0.0,0.0,0.0,0.0,0.0,0.0,0.0,0.0,0.0,0.0,0.0,0.0,0.0,0.0,0.0,0.0,0.0,0.0,0.0,0.0,0.0,0.0,0.0,0.0,0.0,0.0,0.0,0.0,0.0,0.0,0.0,-2.7262,-2.6688,-2.6699,-2.69,-2.687,0.0,0.0,0.0,-2.704,-2.722,-2.6945,-2.704,0.0,-2.722,-2.722,0.0,0.0,0.0,-2.7262,-2.7262,-2.7262,-2.7262,-2.7262,-2.7262,-2.7262,-2.7262,-2.7262,-2.7262,-2.7262,-2.7262,-2.7262,-2.7262,-2.7262,-2.7407,-2.7841,-2.7903,-2.8079,-2.8535,-2.8597,-2.8773,0.0,-2.8856,-2.8783,-2.9249,-2.9301,-2.9694,-3.0594,-3.0657,-3.0874,-3.134,-3.136,-3.1567,-3.2012,-3.2023,-3.225,-3.2685,-3.2706,-3.2716,-3.2716,-3.2727,-3.2727,-3.2727,-3.2727,-3.2727,-3.2727,-3.2727,-3.2727,-3.2727,-3.2727,-3.2727,-3.2727,-3.2696,-3.2685,-3.2685,0.0,0.0,0.0,0.0,0.0,0.0,0.0,0.0,0.0,0.0,0.0,0.0,0.0,0.0,0.0,0.0,0.0,0.0,0.0,0.0,0.0,0.0,0.0,0.0,0.0,0.0,0.0,0.0,0.0,0.0,0.0,0.0,0.0,0.0,0.0,0.0,0.0,0.0,0.0,0.0,0.0,0.0,-2.7262,-2.7071,-2.7071,-2.7177,0.0,0.0,0.0,0.0,0.0,0.0,-2.6996,0.0,0.0,-2.7262,0.0,0.0,0.0,0.0,-2.7262,-2.7262,-2.7262,-2.7262,-2.7262,-2.7262,-2.7262,-2.7262,-2.7262,-2.7262,-2.7262,-2.7262,-2.7262,-2.7262,-2.751,-2.7759,-2.7903,-2.8183,-2.8556,-2.9021,-2.9073,0.0,0.0,0.0,0.0,-2.9725,-3.0046,-3.0356,-3.0667,-3.0977,-3.135,-3.1805,-3.1816,-3.2033,-3.2489,-3.2499,-3.2571,-3.2727,-3.2727,-3.2727,-3.2727,-3.2727,-3.2727,-3.2727,-3.2727,-3.2727,-3.2727,-3.2727,-3.2727,-3.2727,-3.2727,-3.2727,-3.2727,-3.2727,-3.2727,-3.2727,0.0,0.0,0.0,0.0,0.0,0.0,0.0,0.0,0.0,0.0,0.0,0.0,0.0,0.0,0.0,0.0,0.0,0.0,0.0,0.0,0.0,0.0,0.0,0.0,0.0,0.0,0.0,0.0,0.0,0.0,0.0,0.0,0.0,0.0,0.0,0.0,0.0,0.0,0.0,0.0,0.0,0.0,-2.7262,-2.7071,-2.7167,0.0,0.0,0.0,0.0,0.0,0.0,0.0,0.0,0.0,0.0,0.0,0.0,0.0,0.0,-2.7262,-2.7262,-2.7262,-2.7262,-2.7262,-2.7262,-2.7262,-2.7262,-2.7262,-2.7262,-2.7303,-2.7469,-2.7489,-2.7552,-2.7717,-2.7986,-2.8235,-2.839,-2.8669,-2.9032,-2.9497,-2.9704,0.0,0.0,0.0,0.0,-3.0232,-3.0667,-3.0998,-3.1164,-3.1454,-3.1816,-3.2271,-3.2282,-3.2426,-3.2727,-3.2727,-3.2727,-3.2727,-3.2727,-3.2727,-3.2727,-3.2727,-3.2727,-3.2727,-3.2727,-3.2727,-3.2747,-3.2903,-3.2965,-3.2975,-3.3141,-3.3213,-3.3213,-3.3213,-3.3213,-3.3161,0.0,0.0,0.0,0.0,0.0,0.0,0.0,0.0,0.0,0.0,0.0,0.0,0.0,0.0,0.0,0.0,0.0,0.0,0.0,0.0,0.0,0.0,0.0,0.0,0.0,0.0,0.0,0.0,0.0,0.0,0.0,0.0,0.0,0.0,0.0,0.0,0.0,0.0,0.0,0.0,0.0,0.0,-2.7231,-2.6774,0.0,0.0,0.0,0.0,0.0,0.0,0.0,0.0,0.0,0.0,0.0,0.0,0.0,-2.7262,-2.7262,-2.7262,-2.7262,-2.7262,-2.7262,-2.7262,-2.7262,-2.7262,-2.7262,-2.7262,-2.7282,-2.7427,0.0,0.0,-2.81,-2.8545,-2.8628,-2.8804,-2.9239,-2.9321,-2.9508,0.0,0.0,0.0,0.0,0.0,0.0,-3.0791,0.0,-3.1598,-3.2012,-3.2064,-3.2282,-3.2716,-3.2727,-3.2727,-3.2727,-3.2727,-3.2727,-3.2727,-3.2727,-3.2747,-3.2768,-3.2768,-3.2778,-3.2799,-3.2799,-3.2799,-3.283,-3.3244,-3.342,-3.3461,-3.3896,-3.4072,-3.4072,-3.4072,-3.4072,-3.3948,0.0,0.0,0.0,0.0,0.0,0.0,0.0,0.0,0.0,0.0,0.0,0.0,0.0,0.0,0.0,0.0,0.0,0.0,0.0,0.0,0.0,0.0,0.0,0.0,0.0,0.0,0.0,0.0,0.0,0.0,0.0,0.0,0.0,0.0,0.0,0.0,0.0,0.0,0.0,0.0,0.0,0.0,-2.6786,0.0,0.0,0.0,0.0,0.0,0.0,0.0,0.0,0.0,0.0,0.0,-2.7262,0.0,0.0,-2.7262,-2.7262,-2.7262,-2.7262,-2.7262,-2.7262,-2.7262,-2.7262,-2.7262,-2.7262,-2.7262,-2.7521,-2.779,0.0,0.0,0.0,-2.8597,-2.8897,0.0,-2.929,-2.9601,0.0,0.0,0.0,-3.0822,-3.1174,-3.1609,0.0,0.0,-3.1805,-3.1919,-3.2033,-3.2364,-3.2613,-3.2727,-3.2727,-3.2727,-3.2727,-3.2727,-3.2727,-3.2727,-3.2727,-3.2903,-3.3213,-3.3213,-3.3399,-3.372,-3.372,-3.372,-3.3741,-3.3844,-3.3896,-3.3906,-3.402,-3.4072,-3.4072,-3.4072,-3.4072,-3.4041,0.0,0.0,0.0,0.0,0.0,0.0,0.0,0.0,0.0,0.0,0.0,0.0,0.0,0.0,0.0,0.0,0.0,0.0,0.0,0.0,0.0,0.0,0.0,0.0,0.0,0.0,0.0,0.0,0.0,0.0,0.0,0.0,0.0,0.0,0.0,0.0,0.0,0.0,0.0,0.0,0.0,0.0,0.0,0.0,0.0,0.0,0.0,0.0,0.0,0.0,0.0,-2.7262,-2.7262,-2.7262,-2.7262,-2.7262,0.0,-2.7262,-2.7262,-2.7262,-2.7262,-2.7262,-2.7262,-2.7262,-2.7262,-2.7262,-2.7314,-2.751,-2.7748,0.0,0.0,0.0,0.0,0.0,0.0,0.0,-2.9611,-3.0005,-3.0398,0.0,-3.104,0.0,-3.164,-3.2075,-3.2344,0.0,-3.2344,-3.2344,-3.2344,-3.2592,-3.2727,-3.2727,-3.2727,-3.2727,-3.2727,-3.2913,-3.3016,-3.3016,-3.3223,-3.3441,-3.3679,-3.3679,-3.3824,-3.4072,0.0,-3.4072,-3.4082,-3.4289,-3.4372,-3.4383,-3.459,-3.4662,-3.4662,-3.4662,-3.4662,-3.4662,0.0,0.0,0.0,0.0,0.0,0.0,0.0,0.0,0.0,0.0,0.0,0.0,0.0,0.0,0.0,0.0,0.0,0.0,0.0,0.0,0.0,0.0,0.0,0.0,0.0,0.0,0.0,0.0,0.0,0.0,0.0,0.0,0.0,0.0,0.0,0.0,0.0,0.0,0.0,0.0,0.0,0.0,0.0,0.0,0.0,0.0,0.0,0.0,0.0,0.0,-2.7262,-2.7262,-2.7262,-2.7262,-2.7262,-2.7262,-2.7262,-2.7262,-2.7262,-2.7262,-2.7262,-2.7262,-2.7262,-2.7262,-2.7262,-2.7303,-2.7458,-2.7841,0.0,0.0,-2.9156,0.0,-2.9528,-2.9932,0.0,-2.9994,-2.9994,-3.0387,-3.0708,-3.077,-3.1526,-3.2064,-3.2126,-3.2489,-3.2727,-3.2727,-3.2612,-3.2612,-3.2727,-3.2727,-3.2727,-3.2727,-3.2612,-3.2643,-3.282,-3.3192,-3.341,-3.3472,-3.3875,-3.4103,-3.4165,-3.4165,-3.4196,-3.4248,0.0,0.0,-3.4279,-3.4683,-3.4848,-3.4879,-3.5273,-3.5418,-3.5418,-3.5418,-3.5418,-3.5418,0.0,0.0,0.0,0.0,0.0,0.0,0.0,0.0,0.0,0.0,0.0,0.0,0.0,0.0,0.0,0.0,0.0,0.0,0.0,0.0,0.0,0.0,0.0,0.0,0.0,0.0,0.0,0.0,0.0,0.0,0.0,0.0,0.0,0.0,0.0,0.0,0.0,0.0,0.0,0.0,0.0,0.0,0.0,0.0,0.0,0.0,0.0,0.0,0.0,0.0,-2.7262,-2.7262,-2.7262,-2.7262,-2.7262,-2.7262,-2.7262,-2.7262,-2.7262,-2.7262,-2.7262,-2.7262,-2.7262,-2.7262,-2.7262,-2.7541,0.0,0.0,0.0,-2.9114,-2.927,-2.9622,0.0,-2.9984,0.0,0.0,0.0,0.0,-3.0833,0.0,0.0,0.0,0.0,0.0,0.0,0.0,0.0,0.0,-3.2737,-3.2727,-3.2727,-3.2727,-3.2487,-3.2662,-3.3254,-3.3337,-3.3565,-3.3948,-3.4031,-3.4269,-3.4641,-3.4641,-3.4838,-3.519,0.0,0.0,-3.519,-3.5273,-3.5304,-3.5314,-3.5387,-3.5418,-3.5418,-3.5418,-3.5418,-3.5418,0.0,0.0,0.0,0.0,0.0,0.0,0.0,0.0,0.0,0.0,0.0,0.0,0.0,0.0,0.0,0.0,0.0,0.0,0.0,0.0,0.0,0.0,0.0,0.0,0.0,0.0,0.0,0.0,0.0,0.0,0.0,0.0,0.0,0.0,0.0,0.0,0.0,0.0,0.0,0.0,0.0,0.0,0.0,0.0,0.0,0.0,0.0,0.0,0.0,0.0,-2.7262,-2.7262,-2.7262,-2.7262,-2.7262,-2.7262,-2.7262,-2.7262,-2.7262,-2.7262,-2.7262,-2.7262,-2.7262,-2.7262,-2.7262,0.0,0.0,0.0,0.0,-2.9373,-2.9622,0.0,0.0,0.0,0.0,0.0,0.0,0.0,0.0,0.0,0.0,0.0,0.0,0.0,0.0,0.0,0.0,0.0,-3.2487,-3.2487,-3.2715,-3.3058,-3.2942,-3.3159,-3.3731,-3.3979,-3.4207,-3.4434,-3.4662,-3.489,-3.5107,-3.5107,-3.5221,-3.5418,0.0,0.0,-3.5418,-3.5418,-3.5418,-3.5418,-3.5418,-3.5418,-3.5418,-3.5418,-3.5418,-3.5418,0.0,0.0,0.0,0.0,0.0,0.0,0.0,0.0,0.0,0.0,0.0,0.0,0.0,0.0,0.0,0.0,0.0,0.0,0.0,0.0,0.0,0.0,0.0,0.0,0.0,0.0,0.0,0.0,0.0,0.0,0.0,0.0,0.0,0.0,0.0,0.0,0.0,0.0,0.0,0.0,0.0,0.0,0.0,0.0,0.0,0.0,0.0,0.0,0.0,0.0,-2.7262,-2.7262,-2.7262,-2.7262,-2.7262,-2.7262,-2.7262,-2.7262,-2.7262,-2.7262,-2.7262,-2.7262,-2.7262,-2.7262,-2.7262,-2.7676,0.0,0.0,0.0,0.0,0.0,0.0,0.0,0.0,0.0,0.0,0.0,0.0,0.0,0.0,0.0,0.0,0.0,0.0,0.0,0.0,0.0,0.0,0.0,-3.2391,-3.2711,-3.3513,-3.3524,-3.3741,-3.4207,-3.4579,-3.4807,-3.49,-3.5252,-3.5418,-3.5418,-3.5418,-3.5418,-3.5418,0.0,0.0,0.0,-3.5418,-3.5418,-3.5438,-3.5531,-3.5573,-3.5583,-3.5676,-3.5718,-3.5718,0.0,0.0,0.0,0.0,0.0,0.0,0.0,0.0,0.0,0.0,0.0,0.0,0.0,0.0,0.0,0.0,0.0,0.0,0.0,0.0,0.0,0.0,0.0,0.0,0.0,0.0,0.0,0.0,0.0,0.0,0.0,0.0,0.0,0.0,0.0,0.0,0.0,0.0,0.0,0.0,0.0,0.0,0.0,0.0,0.0,0.0,0.0,0.0,0.0,0.0,0.0,-2.7262,-2.7262,-2.7262,-2.7262,-2.7262,0.0,0.0,-2.7262,-2.7262,-2.7262,-2.7262,-2.7262,-2.7262,-2.7262,0.0,0.0,0.0,-2.9321,-2.9942,0.0,0.0,0.0,0.0,0.0,0.0,0.0,0.0,0.0,0.0,0.0,0.0,0.0,0.0,0.0,0.0,0.0,0.0,0.0,-3.2626,-3.2946,-3.3989,-3.3762,-3.3988,-3.4693,-3.4745,-3.4962,-3.5366,-3.5407,-3.5418,-3.5418,-3.5418,-3.5418,-3.5418,0.0,0.0,0.0,-3.5418,-3.5418,-3.5469,-3.5883,-3.6049,-3.6101,-3.6515,-3.668,-3.668,0.0,0.0,0.0,0.0,0.0,0.0,0.0,0.0,0.0,0.0,0.0,0.0,0.0,0.0,0.0,0.0,0.0,0.0,0.0,0.0,0.0,0.0,0.0,0.0,0.0,0.0,0.0,0.0,0.0,0.0,0.0,0.0,0.0,0.0,0.0,0.0,0.0,0.0,0.0,0.0,0.0,0.0,0.0,0.0,0.0,0.0,0.0,0.0,0.0,0.0,0.0,0.0,-2.7262,-2.7262,0.0,0.0,-2.7262,-2.7262,-2.7262,-2.7262,-2.7262,-2.7262,-2.7262,-2.7262,-2.7262,0.0,0.0,-2.8618,-2.9352,-2.9994,-2.9994,-2.9994,0.0,0.0,0.0,0.0,0.0,0.0,0.0,0.0,0.0,0.0,0.0,0.0,0.0,0.0,0.0,0.0,0.0,-3.3201,-3.3534,-3.4465,-3.4366,-3.4582,-3.5159,-3.5159,-3.5242,-3.5418,-3.5418,-3.5418,-3.5418,-3.5418,-3.5418,-3.5418,0.0,0.0,0.0,-3.5718,-3.5832,-3.5883,-3.6349,-3.6525,-3.6546,-3.6732,-3.6804,-3.6804,0.0,0.0,0.0,0.0,0.0,0.0,0.0,0.0,0.0,0.0,0.0,0.0,0.0,0.0,0.0,0.0,0.0,0.0,0.0,0.0,0.0,0.0,0.0,0.0,0.0,0.0,0.0,0.0,0.0,0.0,0.0,0.0,0.0,0.0,0.0,0.0,0.0,0.0,0.0,0.0,0.0,0.0,0.0,0.0,0.0,0.0,0.0,0.0,0.0,0.0,0.0,0.0,0.0,0.0,0.0,0.0,-2.7262,-2.7262,-2.7262,-2.7262,-2.7262,-2.7262,-2.7262,-2.7262,0.0,0.0,0.0,-2.8587,-2.9239,-2.9829,-2.9973,-2.9994,-2.9994,-2.9994,-2.9994,-2.9994,0.0,0.0,0.0,0.0,0.0,0.0,0.0,0.0,0.0,0.0,0.0,0.0,0.0,-3.4032,-3.4379,-3.4941,-3.4962,-3.5107,-3.5418,-3.5418,-3.5418,-3.5418,-3.5418,-3.5418,-3.5418,-3.5418,-3.5418,0.0,0.0,0.0,0.0,-3.6121,-3.6318,-3.6359,-3.6825,-3.7011,-3.7022,-3.7156,-3.7208,-3.7208,0.0,0.0,0.0,0.0,0.0,0.0,0.0,0.0,0.0,0.0,0.0,0.0,0.0,0.0,0.0,0.0,0.0,0.0,0.0,0.0,0.0,0.0,0.0,0.0,0.0,0.0,0.0,0.0,0.0,0.0,0.0,0.0,0.0,0.0,0.0,0.0,0.0,0.0,0.0,0.0,0.0,0.0,0.0,0.0,0.0,0.0,0.0,0.0,0.0,0.0,0.0,0.0,0.0,0.0,0.0,0.0,-2.7262,-2.7262,-2.7262,-2.7262,-2.7262,-2.7262,-2.7262,-2.7262,0.0,0.0,0.0,-2.8514,-2.899,-2.9446,-2.9911,-2.9994,-2.9994,-2.9994,-2.9994,-2.9994,-2.9994,0.0,0.0,0.0,0.0,0.0,0.0,0.0,0.0,0.0,0.0,0.0,0.0,0.0,-3.5407,-3.5418,-3.5418,-3.5418,-3.5418,-3.5418,-3.5418,-3.5418,-3.5418,-3.5418,-3.5418,-3.5418,0.0,0.0,0.0,0.0,0.0,-3.6608,-3.6794,-3.6846,-3.7301,-3.7488,-3.7539,-3.8005,-3.8171,-3.8171,0.0,0.0,0.0,0.0,0.0,0.0,0.0,0.0,0.0,0.0,0.0,0.0,0.0,0.0,0.0,0.0,0.0,0.0,0.0,0.0,0.0,0.0,0.0,0.0,0.0,0.0,0.0,0.0,0.0,0.0,0.0,0.0,0.0,0.0,0.0,0.0,0.0,0.0,0.0,0.0,0.0,0.0,0.0,0.0,0.0,0.0,0.0,0.0,0.0,0.0,0.0,0.0,0.0,0.0,0.0,0.0,0.0,0.0,-2.7262,-2.7262,-2.7262,-2.7262,-2.7262,-2.7262,-2.7262,0.0,0.0,0.0,0.0,-2.9446,-2.9911,-2.9994,-2.9994,-2.9994,-2.9994,-2.9994,0.0,0.0,0.0,0.0,0.0,0.0,0.0,0.0,0.0,0.0,0.0,0.0,0.0,0.0,-3.5418,-3.5418,-3.5418,-3.5418,-3.5418,-3.5418,-3.5418,-3.5418,-3.5418,-3.5418,-3.5418,-3.5418,0.0,0.0,0.0,0.0,0.0,-3.7084,-3.727,-3.7322,-3.7788,-3.7964,-3.7984,-3.8129,-3.8181,-3.8181,0.0,0.0,0.0,0.0,0.0,0.0,0.0,0.0,0.0,0.0,0.0,0.0,0.0,0.0,0.0,0.0,0.0,0.0,0.0,0.0,0.0,0.0,0.0,0.0,0.0,0.0,0.0,0.0,0.0,0.0,0.0,0.0,0.0,0.0,0.0,0.0,0.0,0.0,0.0,0.0,0.0,0.0,0.0,0.0,0.0,0.0,0.0,0.0,0.0,0.0,0.0,0.0,0.0,0.0,0.0,0.0,0.0,0.0,0.0,-2.7262,-2.7262,-2.7262,-2.7262,0.0,0.0,0.0,0.0,0.0,0.0,0.0,-2.988,-2.9994,-2.9994,-2.9994,-2.9994,-2.9994,-2.9994,0.0,0.0,0.0,0.0,0.0,0.0,0.0,0.0,0.0,0.0,0.0,0.0,0.0,-3.5418,-3.5418,-3.5418,-3.5294,-3.517,-3.517,-3.517,-3.5046,-3.517,-3.517,-3.518,0.0,0.0,0.0,0.0,0.0,0.0,-3.756,-3.7757,-3.7777,-3.8078,-3.8181,-3.8181,-3.8181,-3.8181,-3.8181,0.0,0.0,0.0,0.0,0.0,0.0,0.0,0.0,0.0,0.0,0.0,0.0,0.0,0.0,0.0,0.0,0.0,0.0,0.0,0.0,0.0,0.0,0.0,0.0,0.0,0.0,0.0,0.0,0.0,0.0,0.0,0.0,0.0,0.0,0.0,0.0,0.0,0.0,0.0,0.0,0.0,0.0,0.0,0.0,0.0,0.0,0.0,0.0,0.0,0.0,0.0,0.0,0.0,0.0,0.0,0.0,0.0,0.0,0.0,0.0,0.0,0.0,0.0,0.0,0.0,0.0,0.0,0.0,0.0,0.0,0.0,-2.9994,-2.9994,-2.9994,-2.9994,-2.9994,-2.9994,0.0,0.0,0.0,0.0,0.0,0.0,0.0,0.0,0.0,0.0,0.0,0.0,0.0,0.0,-3.5418,-3.5418,-3.5294,-3.4922,-3.4922,-3.4673,-3.4423,-3.4797,-3.4922,-3.4942,-3.5779,0.0,0.0,0.0,0.0,0.0,-3.8005,-3.8181,-3.8181,-3.8181,-3.8181,-3.8181,-3.8181,-3.8181,-3.8181,0.0,0.0,0.0,0.0,0.0,0.0,0.0,0.0,0.0,0.0,0.0,0.0,0.0,0.0,0.0,0.0,0.0,0.0,0.0,0.0,0.0,0.0,0.0,0.0,0.0,0.0,0.0,0.0,0.0,0.0,0.0,0.0,0.0,0.0,0.0,0.0,0.0,0.0,0.0,0.0,0.0,0.0,0.0,0.0,0.0,0.0,-2.47,0.0,0.0,0.0,0.0,0.0,0.0,0.0,0.0,0.0,0.0,0.0,0.0,0.0,0.0,0.0,0.0,0.0,0.0,0.0,0.0,0.0,0.0,0.0,0.0,-2.9994,-2.9994,-2.9994,-2.9994,-2.9994,-2.9994,0.0,0.0,0.0,0.0,0.0,0.0,0.0,0.0,0.0,0.0,0.0,0.0,0.0,0.0,-3.5418,-3.5418,-3.5294,-3.4922,-3.4922,-3.4673,-3.4423,-3.5046,-3.517,-3.4942,-3.5779,0.0,0.0,0.0,0.0,-3.8026,-3.814,-3.8181,-3.8181,-3.8181,-3.8181,-3.8181,-3.8181,-3.8181,-3.8181,0.0,0.0,0.0,0.0,0.0,0.0,0.0,0.0,0.0,0.0,0.0,0.0,0.0,0.0,0.0,0.0,0.0,0.0,0.0,0.0,0.0,0.0,0.0,0.0,0.0,0.0,0.0,0.0,0.0,0.0,0.0,0.0,0.0,0.0,0.0,0.0,0.0,0.0,0.0,0.0,0.0,0.0,0.0,0.0,0.0,0.0,-2.4775,-2.4705,0.0,-2.543,-2.5875,-2.633,0.0,0.0,0.0,0.0,0.0,0.0,0.0,0.0,0.0,0.0,0.0,0.0,0.0,0.0,0.0,0.0,0.0,0.0,0.0,0.0,0.0,-2.9994,-2.9994,0.0,0.0,0.0,0.0,0.0,0.0,0.0,0.0,0.0,0.0,0.0,0.0,0.0,0.0,0.0,0.0,0.0,-3.5046,-3.4922,-3.4922,-3.4797,-3.4548,-3.4173,-3.4548,-3.4784,-3.4745,-3.558,0.0,0.0,0.0,0.0,-3.7904,-3.7904,-3.8037,-3.8181,-3.8181,-3.8181,-3.8181,-3.8181,-3.8181,-3.8181,0.0,0.0,0.0,0.0,0.0,0.0,0.0,0.0,0.0,0.0,0.0,0.0,0.0,0.0,0.0,0.0,0.0,0.0,0.0,0.0,0.0,0.0,0.0,0.0,0.0,0.0,0.0,0.0,0.0,0.0,0.0,0.0,0.0,0.0,0.0,0.0,0.0,0.0,0.0,0.0,0.0,0.0,0.0,0.0,0.0,0.0,0.0,0.0,0.0,-2.5078,-2.5523,-2.5958,-2.6423,0.0,0.0,0.0,0.0,0.0,0.0,0.0,0.0,-2.7262,-2.7262,0.0,0.0,0.0,0.0,0.0,0.0,0.0,0.0,0.0,0.0,0.0,0.0,0.0,0.0,0.0,0.0,0.0,0.0,0.0,0.0,0.0,0.0,0.0,0.0,0.0,0.0,0.0,0.0,0.0,-3.4662,-3.4423,-3.4922,-3.4548,-3.4173,-3.3796,-3.3922,-3.416,-3.4596,-3.543,0.0,0.0,0.0,0.0,-3.7203,-3.7203,-3.7482,-3.7904,-3.7904,-3.8037,-3.8181,-3.8181,-3.8048,-3.777,0.0,0.0,0.0,0.0,0.0,0.0,0.0,0.0,0.0,0.0,0.0,0.0,0.0,0.0,0.0,0.0,0.0,0.0,0.0,0.0,0.0,0.0,0.0,0.0,0.0,0.0,0.0,0.0,0.0,0.0,0.0,0.0,0.0,0.0,0.0,0.0,0.0,0.0,0.0,0.0,0.0,0.0,0.0,0.0,0.0,0.0,0.0,0.0,0.0,-2.5319,-2.5523,-2.5958,-2.6423,0.0,0.0,0.0,0.0,0.0,-2.7262,-2.7262,-2.7262,-2.7262,-2.7262,-2.7262,0.0,0.0,0.0,0.0,0.0,0.0,0.0,0.0,0.0,0.0,0.0,0.0,0.0,0.0,0.0,0.0,0.0,0.0,0.0,0.0,0.0,0.0,0.0,0.0,0.0,0.0,0.0,0.0,-3.4153,-3.4017,-3.4922,-3.4298,-3.3796,-3.3418,-3.4047,-3.4402,-3.4596,-3.543,-3.6002,0.0,0.0,-3.6519,-3.5695,-3.5695,-3.5957,-3.6228,-3.6228,-3.7069,-3.8181,-3.8181,-3.7348,-3.6093,0.0,0.0,0.0,0.0,0.0,0.0,0.0,0.0,0.0,0.0,0.0,0.0,0.0,0.0,0.0,0.0,0.0,0.0,0.0,0.0,0.0,0.0,0.0,0.0,0.0,0.0,0.0,0.0,0.0,0.0,0.0,0.0,0.0,0.0,0.0,0.0,0.0,0.0,0.0,0.0,0.0,0.0,0.0,0.0,0.0,0.0,0.0,0.0,0.0,0.0,-2.5316,-2.5916,-2.6123,0.0,0.0,0.0,0.0,0.0,-2.7262,-2.7262,-2.7262,-2.7262,-2.7262,0.0,0.0,0.0,0.0,0.0,0.0,0.0,0.0,0.0,0.0,0.0,0.0,0.0,0.0,0.0,0.0,0.0,0.0,0.0,0.0,0.0,0.0,0.0,0.0,0.0,0.0,0.0,0.0,0.0,-3.2346,-3.2483,-3.3524,-3.3019,-3.3155,-3.367,-3.3796,-3.375,-3.3471,-3.3793,-3.3956,-3.3742,0.0,-3.3872,-3.3586,-3.3872,-3.4149,-3.4424,-3.469,-3.511,-3.5802,-3.5802,-3.5383,-3.4552,0.0,0.0,0.0,0.0,0.0,0.0,0.0,0.0,0.0,0.0,0.0,0.0,0.0,0.0,0.0,0.0,0.0,0.0,0.0,0.0,0.0,0.0,0.0,0.0,0.0,0.0,0.0,0.0,0.0,0.0,0.0,0.0,0.0,0.0,0.0,0.0,0.0,0.0,0.0,0.0,0.0,0.0,0.0,0.0,0.0,0.0,0.0,0.0,0.0,0.0,0.0,0.0,0.0,0.0,0.0,-2.7262,-2.7262,-2.7262,-2.7262,-2.7262,-2.7262,0.0,0.0,0.0,0.0,0.0,0.0,0.0,0.0,0.0,0.0,0.0,0.0,0.0,0.0,0.0,0.0,0.0,0.0,0.0,0.0,0.0,0.0,0.0,0.0,0.0,0.0,0.0,0.0,0.0,0.0,0.0,-3.0807,-3.0945,-3.1982,-3.1735,-3.2119,-3.3272,-3.3019,-3.2542,-3.1998,-3.1998,-3.1886,-3.1508,-3.1508,-3.1499,-3.1491,-3.1764,-3.2184,-3.2604,-3.2874,-3.3152,-3.3568,-3.3152,-3.3152,-3.3161,0.0,0.0,0.0,0.0,0.0,0.0,0.0,0.0,0.0,0.0,0.0,0.0,0.0,0.0,0.0,0.0,0.0,0.0,0.0,0.0,0.0,0.0,0.0,0.0,0.0,0.0,0.0,0.0,0.0,0.0,0.0,0.0,0.0,0.0,0.0,0.0,0.0,0.0,0.0,0.0,0.0,0.0,0.0,0.0,0.0,0.0,0.0,0.0,0.0,0.0,0.0,0.0,0.0,0.0,0.0,-2.7262,-2.7262,-2.7262,-2.7262,-2.7262,-2.7262,0.0,0.0,0.0,0.0,0.0,0.0,0.0,0.0,0.0,0.0,0.0,0.0,0.0,0.0,0.0,0.0,0.0,0.0,0.0,0.0,0.0,0.0,0.0,0.0,0.0,0.0,0.0,0.0,0.0,0.0,0.0,0.0,-2.9909,-3.0945,-3.054,-3.0798,-3.1451,-3.1442,-3.1091,-3.0522,-3.0522,-3.0935,-3.1508,-3.1508,-3.0935,-2.994,-2.9949,-3.0225,-3.0643,-3.0643,-3.1764,-3.3031,-3.164,-3.1358,-3.1508,0.0,0.0,0.0,0.0,0.0,0.0,0.0,0.0,0.0,0.0,0.0,0.0,0.0,0.0,0.0,0.0,0.0,0.0,0.0,0.0,0.0,0.0,0.0,0.0,0.0,0.0,0.0,0.0,0.0,0.0,0.0,0.0,0.0,0.0,0.0,0.0,0.0,0.0,0.0,0.0,0.0,0.0,0.0,0.0,0.0,0.0,0.0,0.0,0.0,0.0,0.0,0.0,0.0,0.0,0.0,-2.7262,-2.7262,-2.7262,-2.7262,-2.7262,-2.7262,0.0,0.0,0.0,0.0,0.0,0.0,0.0,0.0,0.0,0.0,0.0,0.0,0.0,0.0,0.0,0.0,0.0,0.0,0.0,0.0,0.0,0.0,0.0,0.0,0.0,0.0,0.0,0.0,0.0,0.0,0.0,0.0,-2.8362,-2.9117,-2.9117,-2.8854,-2.8715,-2.9631,-2.9641,-2.902,-2.902,-2.8863,-2.8683,-2.8683,-2.8403,-2.8122,-2.8259,-2.8539,-2.8683,-2.8827,-2.9536,-3.0376,-2.9679,-2.983,-2.9989,0.0,0.0,0.0,0.0,0.0,0.0,0.0,0.0,0.0,0.0,0.0,0.0,0.0,0.0,0.0,0.0,0.0,0.0,0.0,0.0,0.0,0.0,0.0,0.0,0.0,0.0,0.0,0.0,0.0,0.0,0.0,0.0,0.0,0.0,0.0,0.0,0.0,0.0,0.0,0.0,0.0,0.0,0.0,0.0,0.0,0.0,0.0,0.0,0.0,0.0,0.0,0.0,0.0,0.0,0.0,0.0,-2.7262,-2.7167,-2.7167,-2.7071,-2.7071,-2.7071,0.0,0.0,0.0,0.0,0.0,0.0,0.0,0.0,0.0,0.0,0.0,0.0,0.0,0.0,0.0,0.0,0.0,0.0,0.0,0.0,0.0,0.0,0.0,0.0,0.0,0.0,0.0,0.0,0.0,0.0,0.0,0.0,-2.7692,-2.7559,-2.7169,-2.6635,-2.7531,-2.7757,-2.7385,-2.7501,-2.7446,-2.6991,-2.6991,-2.6991,-2.6991,-2.7274,-2.7412,-2.7412,-2.7703,-2.7985,-2.8411,-2.8411,-2.8563,-2.8859,0.0,0.0,0.0,0.0,0.0,0.0,0.0,0.0,0.0,0.0,0.0,0.0,0.0,0.0,0.0,0.0,0.0,0.0,0.0,0.0,0.0,0.0,0.0,0.0,0.0,0.0,0.0,0.0,0.0,0.0,0.0,0.0,0.0,0.0,0.0,0.0,0.0,0.0,0.0,0.0,0.0,0.0,0.0,0.0,0.0,0.0,0.0,0.0,0.0,0.0,0.0,0.0,0.0,0.0,0.0,-2.7262,-2.7081,-2.69,-2.69,-2.6699,-2.6496,0.0,0.0,0.0,0.0,0.0,0.0,0.0,0.0,0.0,0.0,0.0,0.0,0.0,0.0,0.0,0.0,0.0,0.0,0.0,0.0,0.0,0.0,0.0,0.0,0.0,0.0,0.0,0.0,0.0,0.0,0.0,0.0,0.0,-2.6658,-2.5996,-2.5599,-2.5599,-2.5518,-2.5703,-2.6025,-2.6354,-2.6683,-2.6991,-2.6991,-2.6991,-2.6991,-2.6991,-2.6991,-2.6991,-2.6991,-2.7274,-2.755,-2.755,-2.7848,-2.8137,0.0,0.0,0.0,0.0,0.0,0.0,0.0,0.0,0.0,0.0,0.0,0.0,0.0,0.0,0.0,0.0,0.0,0.0,0.0,0.0,0.0,0.0,0.0,0.0,0.0,0.0,0.0,0.0,0.0,0.0,0.0,0.0,0.0,0.0,0.0,0.0,0.0,0.0,0.0,0.0,0.0,0.0,0.0,0.0,0.0,0.0,0.0,0.0,0.0,0.0,0.0,0.0,0.0,0.0,0.0,-2.7262,-2.7262,-2.7177,-2.6996,0.0,0.0,0.0,0.0,0.0,0.0,0.0,0.0,0.0,0.0,0.0,0.0,0.0,0.0,0.0,0.0,0.0,0.0,0.0,0.0,0.0,0.0,0.0,0.0,0.0,0.0,0.0,0.0,0.0,0.0,0.0,0.0,0.0,0.0,0.0,-2.5861,-2.5734,-2.5464,-2.5202,-2.5608,-2.5922,-2.6025,-2.6354,-2.6683,-2.6991,-2.6991,-2.6991,-2.6991,-2.6991,-2.6991,-2.6991,-2.6991,-2.7274,-2.755,-2.755,-2.7848,-2.8137,0.0,0.0,0.0,0.0,0.0,0.0,0.0,0.0,0.0,0.0,0.0,0.0,0.0,0.0,0.0,0.0,0.0,0.0,0.0,0.0,0.0,0.0,0.0,0.0,0.0,0.0,0.0,0.0,0.0,0.0,0.0,0.0,0.0,0.0,0.0,0.0,0.0,0.0,0.0,0.0,0.0,0.0,0.0,0.0,0.0,0.0,0.0,0.0,0.0,0.0,0.0,0.0,0.0,0.0,0.0,-2.6976,-2.688,-2.6774,0.0,0.0,0.0,0.0,0.0,0.0,0.0,0.0,0.0,0.0,0.0,0.0,0.0,0.0,0.0,0.0,0.0,0.0,0.0,0.0,0.0,0.0,0.0,0.0,0.0,0.0,0.0,0.0,0.0,0.0,0.0,0.0,0.0,0.0,0.0,0.0,-2.5599,-2.5464,-2.5389,-2.5249,-2.5769,-2.6083,-2.6222,-2.6552,-2.68,-2.6991,-2.6991,-2.6991,-2.6991,-2.6991,-2.6991,-2.6991,-2.6991,-2.7136,-2.7412,-2.7412,-2.7565,-2.771,0.0,0.0,0.0,0.0,0.0,0.0,0.0,0.0,0.0,0.0,0.0,0.0,0.0,0.0,0.0,0.0,0.0,0.0,0.0,0.0,0.0,0.0,0.0,0.0,0.0,0.0,0.0,0.0,0.0,0.0,0.0,0.0,0.0,0.0,0.0,0.0,0.0,0.0,0.0,0.0,0.0,0.0,0.0,0.0,0.0,0.0,0.0,0.0,0.0,0.0,0.0,0.0,0.0,0.0,-2.6496,-2.6496,-2.6304,0.0,0.0,0.0,0.0,0.0,0.0,0.0,0.0,0.0,0.0,0.0,0.0,0.0,0.0,0.0,0.0,0.0,0.0,0.0,0.0,0.0,0.0,0.0,0.0,0.0,0.0,0.0,0.0,0.0,0.0,0.0,0.0,0.0,0.0,0.0,0.0,0.0,-2.5599,-2.5194,-2.5213,0.0,-2.5864,-2.6186,-2.6515,-2.6844,-2.6991,-2.6991,-2.6991,-2.6991,-2.6991,-2.6991,-2.6991,-2.6991,-2.6991,-2.6991,-2.6991,-2.6991,-2.6991,-2.6991,0.0,0.0,0.0,0.0,0.0,0.0,0.0,0.0,0.0,0.0,0.0,0.0,0.0,0.0,0.0,0.0,0.0,0.0,0.0,0.0,0.0,0.0,0.0,0.0,0.0,0.0,0.0,0.0,0.0,0.0,0.0,0.0,0.0,0.0,0.0,0.0,0.0,0.0,0.0,0.0,0.0,0.0,0.0,0.0,0.0,0.0,0.0,0.0,0.0,0.0,0.0,0.0,-2.637,-2.64,-2.6197,-2.64,-2.6496,0.0,0.0,0.0,0.0,0.0,0.0,0.0,0.0,0.0,0.0,0.0,0.0,0.0,0.0,0.0,0.0,0.0,0.0,0.0,0.0,0.0,0.0,0.0,0.0,0.0,0.0,0.0,0.0,0.0,0.0,0.0,0.0,0.0,0.0,0.0,0.0,-2.5194,-2.5194,-2.5194,-2.5213,0.0,-2.5864,-2.6186,-2.6515,-2.6844,-2.6991,-2.6991,-2.6991,-2.6991,-2.6991,-2.6991,-2.6991,-2.6991,-2.6991,-2.6991,-2.6991,-2.6991,-2.6991,-2.6991,0.0,0.0,0.0,0.0,0.0,0.0,0.0,0.0,0.0,0.0,0.0,0.0,0.0,0.0,0.0,0.0,0.0,0.0,0.0,0.0,0.0,0.0,0.0,0.0,0.0,0.0,0.0,0.0,0.0,0.0,0.0,0.0,0.0,0.0,0.0,0.0,0.0,0.0,0.0,0.0,0.0,0.0,0.0,0.0,0.0,0.0,0.0,0.0,0.0,0.0,0.0,0.0,0.0,0.0,-2.5917,-2.612,-2.612,0.0,0.0,0.0,0.0,0.0,0.0,0.0,0.0,0.0,0.0,0.0,0.0,0.0,0.0,0.0,0.0,0.0,0.0,0.0,0.0,0.0,0.0,0.0,0.0,0.0,0.0,0.0,0.0,0.0,0.0,0.0,0.0,0.0,0.0,0.0,-2.5329,-2.5059,-2.5059,-2.5059,-2.5293,-2.5761,-2.5937,-2.6266,-2.6742,-2.691,-2.6991,-2.6991,-2.6991,-2.6991,-2.6991,-2.6991,-2.6991,-2.6991,-2.6991,-2.6991,-2.6991,-2.6991,-2.6991,-2.6991,0.0,0.0,0.0,0.0,0.0,0.0,0.0,0.0,0.0,0.0,0.0,0.0,0.0,0.0,0.0,0.0,0.0,0.0,0.0,0.0,0.0,0.0,0.0,0.0,0.0,0.0,0.0,0.0,0.0,0.0,0.0,0.0,0.0,0.0,0.0,0.0,0.0,0.0,0.0,0.0,0.0,0.0,0.0,0.0,0.0,0.0,0.0,0.0,0.0,0.0,0.0,0.0,0.0,0.0,-2.5742,-2.5742,-2.5742,-2.5742,0.0,0.0,0.0,0.0,0.0,0.0,0.0,0.0,0.0,0.0,0.0,0.0,0.0,0.0,0.0,0.0,0.0,0.0,0.0,0.0,0.0,0.0,0.0,0.0,0.0,0.0,0.0,0.0,0.0,0.0,0.0,0.0,-2.5194,-2.5464,-2.5194,-2.5059,-2.5059,-2.5059,-2.5381,-2.6018,-2.6127,-2.6464,-2.6991,-2.6991,-2.6991,-2.6991,-2.6991,-2.6991,-2.6991,-2.6991,-2.6991,-2.6991,-2.6991,-2.6991,-2.6991,-2.6991,-2.6991,-2.6991,0.0,0.0,0.0,0.0,0.0,0.0,0.0,0.0,0.0,0.0,0.0,0.0,0.0,0.0,0.0,0.0,0.0,0.0,0.0,0.0,0.0,0.0,0.0,0.0,0.0,0.0,0.0,0.0,0.0,0.0,0.0,0.0,0.0,0.0,0.0,0.0,0.0,0.0,0.0,0.0,0.0,0.0,0.0,0.0,0.0,0.0,0.0,0.0,0.0,0.0,0.0,0.0,0.0,0.0,0.0,0.0,0.0,0.0,0.0,0.0,0.0,0.0,0.0,0.0,0.0,0.0,0.0,0.0,0.0,0.0,0.0,0.0,0.0,0.0,0.0,0.0,0.0,0.0,0.0,0.0,0.0,0.0,0.0,0.0,0.0,0.0,0.0,0.0,0.0,-2.5059,-2.5059,-2.5194,-2.5059,-2.5059,-2.5059,-2.5059,-2.5381,-2.6025,-2.6588,-2.6903,-2.6991,-2.6991,-2.6991,-2.6991,-2.6991,-2.6991,-2.6991,-2.6991,-2.6991,-2.6991,-2.6991,-2.6991,-2.6991,-2.6991,-2.6991,-2.6991,0.0,0.0,0.0,0.0,0.0,0.0,0.0,0.0,0.0,0.0,0.0,0.0,0.0,0.0,0.0,0.0,0.0,0.0,0.0,0.0,0.0,0.0,0.0,0.0,0.0,0.0,0.0,0.0,0.0,0.0,0.0,-2.4049,-2.4135,0.0,0.0,0.0,0.0,0.0,0.0,0.0,0.0,0.0,0.0,0.0,0.0,0.0,0.0,0.0,0.0,0.0,0.0,0.0,0.0,0.0,0.0,0.0,0.0,0.0,0.0,0.0,0.0,0.0,0.0,0.0,0.0,0.0,0.0,0.0,0.0,0.0,0.0,0.0,0.0,0.0,0.0,0.0,0.0,0.0,0.0,0.0,0.0,0.0,0.0,0.0,0.0,0.0,0.0,0.0,-2.503,-2.5059,-2.5059,-2.5059,-2.5059,-2.5059,-2.5059,-2.5059,-2.5381,-2.6025,-2.6676,-2.6991,-2.6991,-2.6991,-2.6991,-2.6991,-2.6991,-2.6991,-2.6991,-2.6991,-2.6991,-2.6991,-2.6991,-2.6991,-2.6991,-2.6991,-2.6991,-2.6991,0.0,0.0,0.0,0.0,0.0,0.0,0.0,0.0,0.0,0.0,0.0,0.0,0.0,0.0,0.0,0.0,0.0,0.0,0.0,0.0,0.0,0.0,0.0,0.0,0.0,0.0,0.0,0.0,0.0,0.0,-2.3135,-2.3135,-2.3193,0.0,-2.3643,0.0,0.0,0.0,0.0,0.0,0.0,0.0,0.0,0.0,0.0,0.0,0.0,0.0,0.0,0.0,0.0,0.0,0.0,0.0,0.0,0.0,0.0,0.0,0.0,0.0,0.0,0.0,0.0,0.0,0.0,0.0,0.0,0.0,0.0,0.0,0.0,0.0,0.0,0.0,0.0,0.0,0.0,0.0,0.0,0.0,0.0,0.0,0.0,0.0,0.0,0.0,0.0,0.0,-2.5037,-2.5059,-2.5059,-2.5059,-2.5059,-2.5059,-2.5059,-2.522,-2.5542,-2.6025,-2.6676,-2.6991,-2.6991,-2.6991,-2.6991,-2.6991,-2.6991,-2.6991,-2.6991,-2.6991,-2.6991,-2.6991,-2.6991,-2.6991,-2.6991,-2.6991,-2.6991,-2.6991,0.0,0.0,0.0,0.0,0.0,0.0,0.0,0.0,0.0,0.0,0.0,0.0,0.0,0.0,0.0,0.0,0.0,0.0,0.0,0.0,0.0,0.0,0.0,0.0,0.0,0.0,0.0,0.0,0.0,0.0,-2.3135,-2.3135,-2.3359,-2.375,-2.3779,-2.4014,-2.4414,0.0,0.0,0.0,0.0,0.0,0.0,0.0,0.0,0.0,0.0,0.0,0.0,0.0,0.0,0.0,0.0,0.0,0.0,0.0,0.0,0.0,0.0,0.0,0.0,0.0,0.0,0.0,0.0,0.0,0.0,0.0,0.0,0.0,0.0,0.0,0.0,0.0,0.0,0.0,0.0,0.0,0.0,0.0,0.0,0.0,0.0,0.0,0.0,0.0,0.0,0.0,-2.5037,-2.5059,-2.5059,-2.5059,-2.5059,-2.5059,-2.5059,-2.5659,-2.5981,-2.6025,-2.6676,-2.6991,-2.6991,-2.6991,-2.6991,-2.6991,-2.6991,-2.6991,-2.6991,-2.6991,-2.6991,-2.6991,-2.6991,-2.6991,-2.6991,-2.6991,-2.6991,-2.6991,0.0,0.0,0.0,0.0,0.0,0.0,0.0,0.0,0.0,0.0,0.0,0.0,0.0,-2.1387,-2.1758,-2.2031,0.0,0.0,0.0,0.0,0.0,0.0,0.0,0.0,0.0,0.0,0.0,0.0,0.0,-2.3135,-2.3144,-2.3428,-2.3643,-2.3799,-2.4072,-2.4434,-2.4863,-2.5312,0.0,0.0,0.0,0.0,0.0,0.0,0.0,0.0,0.0,0.0,0.0,0.0,0.0,0.0,0.0,0.0,0.0,0.0,0.0,0.0,0.0,0.0,0.0,0.0,0.0,0.0,0.0,0.0,0.0,0.0,0.0,0.0,0.0,0.0,0.0,0.0,0.0,0.0,0.0,0.0,0.0,0.0,0.0,0.0,0.0,0.0,0.0,0.0,0.0,0.0,-2.5052,-2.5059,-2.5059,-2.5059,-2.5059,-2.5059,-2.5059,-2.5696,-2.6018,-2.6025,-2.6676,-2.6991,-2.6991,-2.6991,-2.6991,-2.6991,-2.6991,-2.6991,-2.6991,-2.6991,-2.6991,-2.6991,-2.6991,-2.6991,-2.6991,-2.6991,-2.6991,-2.6991,0.0,0.0,0.0,0.0,0.0,0.0,0.0,0.0,0.0,0.0,0.0,0.0,0.0,0.0,-2.2266,-2.2685,-2.2978,-2.3135,-2.3135,0.0,0.0,0.0,0.0,0.0,0.0,0.0,0.0,0.0,0.0,0.0,0.0,0.0,-2.3867,-2.4014,-2.4443,0.0,0.0,0.0,0.0,-2.5742,0.0,0.0,-2.5742,0.0,0.0,0.0,0.0,0.0,0.0,0.0,0.0,0.0,0.0,0.0,0.0,0.0,0.0,0.0,0.0,0.0,0.0,0.0,0.0,0.0,0.0,0.0,0.0,0.0,0.0,0.0,0.0,0.0,0.0,0.0,0.0,0.0,0.0,0.0,0.0,0.0,0.0,0.0,0.0,0.0,0.0,0.0,0.0,0.0,-2.5059,-2.5059,-2.5059,-2.5059,-2.5059,-2.5059,-2.5059,-2.5696,-2.6018,-2.6025,-2.6676,-2.6991,-2.6991,-2.6991,-2.6991,-2.6991,-2.6991,-2.6991,-2.6991,-2.6991,-2.6991,-2.6991,-2.6991,-2.6991,-2.6991,-2.6991,-2.6991,-2.6991,0.0,0.0,0.0,0.0,0.0,0.0,0.0,0.0,0.0,0.0,0.0,0.0,0.0,0.0,0.0,-2.3018,-2.3047,-2.3047,-2.3047,-2.3047,0.0,0.0,0.0,0.0,0.0,0.0,0.0,0.0,0.0,0.0,0.0,0.0,-2.4043,0.0,-2.4893,-2.5088,-2.5117,0.0,0.0,-2.5742,0.0,-2.5742,0.0,0.0,0.0,0.0,-2.5742,-2.5742,0.0,0.0,0.0,0.0,0.0,0.0,0.0,0.0,0.0,0.0,0.0,0.0,0.0,0.0,0.0,0.0,0.0,0.0,0.0,0.0,0.0,0.0,0.0,0.0,0.0,0.0,0.0,0.0,0.0,0.0,0.0,0.0,0.0,0.0,0.0,0.0,0.0,0.0,0.0,-2.5044,-2.5059,-2.5059,-2.5059,-2.5059,-2.5059,-2.5059,-2.5059,-2.5696,-2.6018,-2.6025,-2.6676,-2.6991,-2.6991,-2.6991,-2.6991,-2.6991,-2.6991,-2.6991,-2.6991,-2.6991,-2.6991,-2.6991,-2.6991,-2.6991,-2.6991,-2.6991,-2.6991,-2.6991,0.0,0.0,0.0,0.0,0.0,0.0,0.0,0.0,0.0,0.0,0.0,0.0,0.0,-2.0571,-2.1203,-2.2041,-2.2059,-2.2059,-2.2059,-2.2687,-2.3135,-2.3135,-2.3135,-2.3135,0.0,0.0,0.0,0.0,0.0,0.0,0.0,0.0,0.0,0.0,-2.5352,-2.5557,-2.5557,-2.5684,0.0,0.0,0.0,-2.5742,0.0,0.0,0.0,0.0,0.0,-2.5742,0.0,0.0,-2.5742,-2.5742,0.0,0.0,0.0,0.0,0.0,0.0,-2.5073,0.0,0.0,0.0,0.0,0.0,0.0,0.0,0.0,0.0,0.0,0.0,0.0,0.0,0.0,0.0,0.0,0.0,0.0,0.0,0.0,0.0,0.0,0.0,0.0,0.0,0.0,0.0,-2.4466,-2.481,-2.5044,-2.5059,-2.5059,-2.5059,-2.5059,-2.5059,-2.5059,-2.5696,-2.6018,-2.6025,-2.6676,-2.6991,-2.6991,-2.6991,-2.6991,-2.6991,-2.6991,-2.6991,-2.6991,-2.6991,-2.6991,-2.6991,-2.6991,-2.6991,-2.6991,-2.6991,-2.6991,-2.6991,0.0,0.0,0.0,0.0,0.0,0.0,0.0,0.0,0.0,0.0,0.0,0.0,0.0,-2.0103,-2.0413,-2.1051,-2.1051,-2.1051,-2.1051,-2.1961,-2.2511,-2.2511,-2.2511,-2.2511,-2.2511,0.0,0.0,0.0,0.0,0.0,0.0,0.0,0.0,0.0,0.0,0.0,0.0,0.0,0.0,0.0,-2.5538,0.0,0.0,-2.5538,-2.5635,0.0,0.0,0.0,-2.5635,-2.5226,-2.502,0.0,0.0,0.0,0.0,0.0,0.0,0.0,0.0,0.0,0.0,0.0,0.0,0.0,0.0,-2.3528,0.0,0.0,0.0,0.0,0.0,0.0,0.0,0.0,0.0,0.0,0.0,0.0,0.0,0.0,0.0,0.0,0.0,0.0,0.0,0.0,-2.4386,-2.4715,-2.5037,-2.5059,-2.5059,-2.5059,-2.5059,-2.5059,-2.5059,-2.5696,-2.6018,-2.6025,-2.6676,-2.6991,-2.6991,-2.6991,-2.6991,-2.6991,-2.6991,-2.6991,-2.6991,-2.6991,-2.6991,-2.6991,-2.6991,-2.6991,-2.6991,-2.6991,-2.6991,-2.6991,0.0,0.0,0.0,0.0,0.0,0.0,0.0,0.0,0.0,0.0,0.0,0.0,0.0,-1.996,-1.996,-2.0051,-2.0051,-2.0076,-2.0119,-2.1032,-2.1598,-2.1644,-2.1644,-2.1554,-2.1554,-2.121,0.0,0.0,0.0,0.0,0.0,0.0,0.0,0.0,0.0,0.0,0.0,0.0,0.0,-2.544,-2.5333,-2.544,0.0,0.0,-2.5333,0.0,-2.5488,-2.54,-2.5204,-2.4316,-2.4017,0.0,0.0,0.0,0.0,0.0,-2.4272,0.0,0.0,0.0,0.0,0.0,0.0,0.0,-2.3311,-2.2869,-2.2644,0.0,0.0,0.0,0.0,0.0,0.0,0.0,0.0,0.0,0.0,0.0,0.0,0.0,0.0,0.0,0.0,0.0,-2.3676,-2.4005,-2.4364,-2.4715,-2.5037,-2.5059,-2.5059,-2.5059,-2.5059,-2.5059,-2.5059,-2.5659,-2.5981,-2.6025,-2.6639,-2.6954,-2.6991,-2.6991,-2.6991,-2.6991,-2.6991,-2.6991,-2.6991,-2.6991,-2.6991,-2.6991,-2.6991,-2.6991,-2.6991,-2.6991,-2.6991,-2.6991,0.0,0.0,0.0,0.0,0.0,0.0,0.0,0.0,0.0,0.0,0.0,0.0,0.0,0.0,-1.8149,-1.8972,-1.9055,-1.9184,-1.9475,-2.0323,-2.1017,-2.1328,-2.1062,-2.0967,-2.0967,-2.0685,-2.0718,0.0,0.0,0.0,0.0,0.0,0.0,0.0,0.0,0.0,0.0,0.0,0.0,-2.4196,-2.4922,0.0,0.0,-2.5137,-2.4618,-2.4134,-2.4052,-2.3551,-2.2877,0.0,-2.3182,-2.3286,0.0,0.0,0.0,0.0,0.0,0.0,0.0,0.0,0.0,0.0,0.0,0.0,-2.2093,-2.232,-2.2644,0.0,0.0,0.0,0.0,0.0,0.0,0.0,0.0,0.0,0.0,0.0,0.0,0.0,0.0,0.0,0.0,0.0,-2.334,-2.3662,-2.424,-2.4715,-2.5037,-2.5059,-2.5059,-2.5059,-2.5059,-2.5059,-2.5059,-2.5432,-2.5754,-2.6018,-2.6413,-2.6735,-2.6991,-2.6991,-2.6991,-2.6991,-2.6991,-2.6991,-2.6991,-2.6991,-2.6991,-2.6991,-2.6991,-2.6991,-2.6991,-2.6991,-2.6991,-2.6991,0.0,0.0,0.0,0.0,0.0,0.0,0.0,0.0,0.0,0.0,0.0,0.0,0.0,0.0,0.0,-1.7836,-1.8183,-1.8356,-1.8417,-1.927,-1.9918,-1.9998,-1.991,-1.982,-1.982,-1.9707,-1.9794,-2.0181,0.0,0.0,0.0,0.0,0.0,0.0,0.0,0.0,0.0,0.0,-2.4927,-2.459,-2.481,0.0,-2.3898,-2.4099,-2.3701,-2.3057,-2.3142,-2.2363,-2.1557,-2.1846,-2.2017,0.0,0.0,-2.288,-2.3411,0.0,-2.2798,-2.2871,0.0,0.0,0.0,-2.2387,0.0,0.0,0.0,-2.1653,-2.1987,0.0,0.0,0.0,0.0,0.0,0.0,0.0,0.0,0.0,0.0,0.0,0.0,0.0,0.0,0.0,0.0,0.0,-2.331,-2.3801,-2.4291,-2.4715,-2.5037,-2.5059,-2.5059,-2.5059,-2.5059,-2.5059,-2.5059,-2.5374,-2.5696,-2.6018,-2.6347,-2.6676,-2.6991,-2.6991,-2.6991,-2.6991,-2.6991,-2.6991,-2.6991,-2.6991,-2.6991,-2.6991,-2.6991,-2.6991,-2.6991,-2.6991,-2.6991,-2.6991,0.0,0.0,0.0,0.0,0.0,0.0,0.0,0.0,0.0,0.0,0.0,0.0,0.0,0.0,0.0,0.0,0.0,-1.774,0.0,0.0,-1.8775,-1.8835,-1.8743,-1.8743,-1.8743,-1.8644,-1.887,-1.934,0.0,0.0,0.0,0.0,0.0,0.0,0.0,0.0,0.0,0.0,0.0,-2.4479,0.0,-2.3414,-2.2528,-2.284,-2.2598,-2.2116,-2.1866,-2.1286,-2.0582,-2.0714,0.0,-2.105,-2.1159,-2.2016,0.0,0.0,0.0,0.0,0.0,0.0,0.0,0.0,0.0,-2.2425,0.0,0.0,0.0,0.0,0.0,0.0,0.0,0.0,0.0,0.0,0.0,0.0,0.0,0.0,0.0,0.0,0.0,0.0,0.0,0.0,-2.3354,-2.3947,-2.4291,-2.462,-2.4949,-2.5022,-2.5059,-2.5059,-2.5059,-2.5059,-2.5059,-2.5308,-2.563,-2.6018,-2.6281,-2.661,-2.6991,-2.6991,-2.6991,-2.6991,-2.6991,-2.6991,-2.6991,-2.6991,-2.6991,-2.6991,-2.6991,-2.6991,-2.6991,-2.6991,-2.6991,-2.6991,0.0,0.0,0.0,0.0,0.0,0.0,0.0,0.0,0.0,0.0,0.0,0.0,0.0,0.0,0.0,0.0,0.0,0.0,-1.7897,0.0,0.0,-1.8407,-1.8213,-1.8116,-1.8116,-1.79,-1.7914,-1.8171,-1.8969,0.0,0.0,0.0,0.0,0.0,-2.1183,0.0,0.0,0.0,-2.1454,0.0,-2.1814,-2.2886,0.0,-2.2495,-2.1448,-2.0651,-1.9647,-1.9373,-1.9598,0.0,-1.9936,-2.005,0.0,-2.0501,0.0,0.0,0.0,0.0,0.0,0.0,0.0,0.0,-2.1432,0.0,0.0,0.0,0.0,0.0,0.0,0.0,0.0,0.0,0.0,0.0,0.0,0.0,0.0,0.0,0.0,0.0,0.0,0.0,0.0,0.0,0.0,-2.3625,-2.3954,-2.4284,-2.4605,-2.4898,-2.5059,-2.5059,-2.5059,-2.5059,-2.5059,-2.5096,-2.5418,-2.6018,-2.6054,-2.6391,-2.6991,-2.6991,-2.6991,-2.6991,-2.6991,-2.6991,-2.6991,-2.6991,-2.6991,-2.6991,-2.6991,-2.6991,-2.6991,-2.6991,-2.6991,-2.6991,0.0,0.0,0.0,0.0,0.0,0.0,0.0,0.0,0.0,0.0,0.0,0.0,0.0,0.0,0.0,0.0,0.0,0.0,0.0,0.0,0.0,-1.7891,-1.7799,-1.7799,-1.7799,-1.7694,-1.7694,-1.7799,-1.8101,0.0,0.0,0.0,0.0,0.0,-1.9926,0.0,-2.0949,0.0,0.0,0.0,0.0,0.0,0.0,-2.1421,-2.0596,-1.9779,-1.9354,-1.9259,-1.9366,0.0,-1.97,0.0,0.0,0.0,0.0,0.0,0.0,0.0,0.0,0.0,0.0,0.0,0.0,0.0,0.0,0.0,-2.1211,0.0,0.0,0.0,0.0,0.0,0.0,0.0,0.0,0.0,0.0,0.0,0.0,0.0,0.0,0.0,0.0,0.0,0.0,0.0,0.0,-2.4027,-2.454,-2.4701,-2.4862,-2.5052,-2.5059,-2.5059,-2.5059,-2.5059,-2.5286,-2.574,-2.593,-2.6259,-2.6713,-2.6903,-2.6991,-2.6991,-2.6991,-2.6991,-2.6991,-2.6991,-2.6991,-2.6991,-2.6991,-2.6991,-2.6991,-2.6991,-2.6991,-2.6991,0.0,0.0,0.0,0.0,0.0,0.0,-1.6606,-1.6711,-1.6877,0.0,0.0,0.0,-1.7129,-1.734,0.0,0.0,0.0,-1.7799,0.0,0.0,-1.7582,0.0,0.0,0.0,0.0,-1.7582,-1.7582,-1.7582,-1.7582,-1.7582,0.0,0.0,0.0,0.0,0.0,-1.9498,-1.9797,0.0,0.0,-2.1496,-2.0965,-2.0723,-2.0702,-2.0345,-1.996,-1.9366,-1.9366,-1.9366,-1.9366,-1.9366,-1.9482,0.0,-1.97,0.0,0.0,0.0,0.0,0.0,-2.0859,0.0,0.0,0.0,0.0,0.0,0.0,0.0,0.0,0.0,0.0,0.0,0.0,0.0,0.0,0.0,0.0,0.0,0.0,0.0,0.0,0.0,0.0,0.0,0.0,0.0,0.0,0.0,-2.3545,0.0,-2.4408,-2.4518,-2.4723,-2.5044,-2.5059,-2.5059,-2.5059,-2.5059,-2.5213,-2.5535,-2.5864,-2.6186,-2.6515,-2.6844,-2.6991,-2.6991,-2.6991,-2.6991,-2.6991,-2.6991,-2.6991,-2.6991,-2.6991,-2.6991,-2.6991,-2.6991,-2.6991,-2.6991,0.0,-1.5832,0.0,0.0,0.0,0.0,-1.6621,-1.6468,-1.6373,0.0,0.0,0.0,0.0,0.0,0.0,0.0,0.0,-1.7582,-1.7582,0.0,-1.7582,0.0,0.0,0.0,0.0,0.0,-1.7582,-1.7582,-1.7582,-1.7582,0.0,0.0,0.0,0.0,0.0,-1.8637,-1.8911,-1.9031,-1.9199,-1.9468,-1.9482,-1.9482,-1.9482,0.0,-1.9475,-1.9366,-1.9366,0.0,0.0,-1.9366,-1.9366,0.0,0.0,0.0,0.0,0.0,0.0,0.0,0.0,0.0,0.0,0.0,0.0,0.0,0.0,0.0,-2.0838,0.0,0.0,0.0,0.0,0.0,0.0,0.0,0.0,0.0,0.0,0.0,0.0,0.0,0.0,0.0,0.0,0.0,0.0,-2.3128,-2.342,-2.3742,-2.4079,-2.4401,-2.4723,-2.5044,-2.5059,-2.5059,-2.5059,-2.5059,-2.5213,-2.5535,-2.5864,-2.6186,-2.6515,-2.6844,-2.6991,-2.6991,-2.6991,-2.6991,-2.6991,-2.6991,-2.6991,-2.6991,-2.6991,-2.6991,-2.6991,-2.6991,-2.6991,-2.6991,0.0,0.0,0.0,0.0,0.0,0.0,-1.6619,-1.6827,0.0,0.0,0.0,0.0,0.0,0.0,-1.7475,0.0,0.0,-1.7582,-1.7582,-1.7582,0.0,0.0,0.0,-1.7582,0.0,0.0,-1.7582,-1.7582,-1.7789,-1.7889,0.0,0.0,0.0,0.0,0.0,-1.8938,0.0,0.0,0.0,0.0,0.0,-1.9486,-1.9633,0.0,0.0,-1.9392,-1.9586,-1.9653,0.0,-1.9873,-1.994,-1.994,-1.994,-1.994,-1.994,-2.0291,-2.0267,0.0,0.0,0.0,-2.027,-2.027,0.0,0.0,0.0,0.0,0.0,0.0,0.0,0.0,0.0,0.0,0.0,0.0,0.0,0.0,0.0,0.0,0.0,0.0,0.0,0.0,0.0,0.0,0.0,-2.3106,-2.3208,-2.342,0.0,-2.4071,-2.4393,-2.4723,-2.4942,-2.5059,-2.5059,-2.5059,-2.511,-2.522,-2.5761,-2.6076,-2.62,-2.6742,-2.6991,-2.6991,-2.6991,-2.6991,-2.6991,-2.6991,-2.6991,-2.6991,-2.6991,-2.6991,-2.6991,-2.6991,-2.6991,-2.6991,-1.6707,0.0,0.0,0.0,0.0,0.0,0.0,0.0,0.0,0.0,-1.7468,0.0,-1.7582,0.0,-1.7749,0.0,-1.7842,-1.7903,-1.7903,-1.7809,0.0,-1.7749,-1.7642,0.0,0.0,0.0,0.0,-1.7749,0.0,-1.8203,0.0,0.0,0.0,0.0,0.0,0.0,0.0,0.0,-1.9366,0.0,0.0,-1.9693,0.0,0.0,-1.9673,0.0,0.0,-1.9953,-1.9987,-2.0174,-2.0234,-2.0234,-2.0234,-2.0234,-2.0234,-2.0476,-2.0455,-2.0305,-2.0536,-2.0399,0.0,0.0,-2.0247,0.0,0.0,0.0,0.0,0.0,0.0,0.0,0.0,0.0,0.0,0.0,0.0,0.0,0.0,0.0,0.0,0.0,0.0,0.0,0.0,0.0,-2.3106,-2.3106,-2.3106,-2.3252,0.0,0.0,-2.4232,-2.4554,-2.4883,-2.5059,-2.5059,-2.5059,-2.5059,-2.5066,-2.571,-2.6018,-2.6039,-2.6691,-2.6991,-2.6991,-2.6991,-2.6991,-2.6991,-2.6991,-2.6991,-2.6991,-2.6991,-2.6991,-2.6991,-2.6991,-2.6991,-2.6991,-1.6747,0.0,0.0,0.0,-1.6747,0.0,0.0,0.0,-1.7268,0.0,-1.7595,-1.7602,-1.7602,-1.7883,-1.807,-1.807,-1.833,0.0,-1.849,-1.8223,0.0,0.0,-1.7789,-1.7622,-1.7622,0.0,0.0,0.0,0.0,0.0,0.0,0.0,0.0,0.0,-1.9239,0.0,-1.9366,-1.9366,-1.9372,-1.9412,-1.9706,-1.9993,-2.0254,-2.0254,0.0,-2.0274,-2.0261,-2.0254,-2.0261,-2.0274,-2.0274,-2.0274,-2.0274,-2.0274,-2.0274,-2.0274,-2.0267,-2.0254,-2.0254,-2.0241,-2.0234,-2.0234,0.0,0.0,0.0,0.0,-2.0718,0.0,0.0,0.0,0.0,0.0,0.0,0.0,0.0,0.0,0.0,0.0,0.0,0.0,0.0,0.0,0.0,-2.3098,-2.3106,-2.3106,-2.3106,0.0,0.0,0.0,0.0,-2.454,-2.4862,-2.5037,-2.5059,-2.5059,-2.5059,-2.5066,-2.571,-2.6018,-2.6039,-2.6691,-2.6991,-2.6991,-2.6991,-2.6991,-2.6991,-2.6991,-2.6991,-2.6991,-2.6991,-2.6991,-2.6991,-2.6991,-2.6991,-2.6991,-1.7251,-1.7355,-1.7355,0.0,-1.7355,-1.7382,0.0,0.0,0.0,0.0,-1.7782,-1.7929,-1.7929,-1.8196,-1.8377,-1.8377,-1.8444,0.0,0.0,0.0,0.0,-1.8377,-1.8303,-1.8257,-1.8257,-1.8337,0.0,-1.8377,0.0,0.0,-1.8818,0.0,0.0,0.0,0.0,0.0,-1.9366,-1.9366,-1.9492,-1.9713,-2.0007,-2.0301,0.0,0.0,-2.0695,-2.0855,-2.0641,-2.0561,-2.0595,-2.0808,-2.0882,-2.0882,-2.0882,-2.0882,-2.0882,-2.0882,-2.0728,-2.0561,-2.0561,-2.0401,-2.0234,-2.0234,-2.0234,-2.0234,0.0,0.0,0.0,0.0,0.0,0.0,0.0,0.0,0.0,0.0,0.0,0.0,0.0,0.0,0.0,0.0,0.0,0.0,-2.2718,-2.2967,-2.3106,-2.3106,-2.3106,0.0,0.0,0.0,0.0,-2.4196,-2.4525,-2.481,-2.5052,-2.5059,-2.5059,-2.5066,-2.571,-2.6018,-2.6039,-2.6691,-2.6991,-2.6991,-2.6991,-2.6991,-2.6991,-2.6991,-2.6991,-2.6991,-2.6991,-2.6991,-2.6991,-2.6991,-2.6991,-2.6991,-1.7371,0.0,0.0,-1.6935,0.0,0.0,-1.6829,0.0,0.0,-1.7122,-1.7265,0.0,-1.734,-1.7142,-1.6964,-1.6964,-1.7187,0.0,0.0,0.0,0.0,-1.8677,-1.7987,-1.7916,-1.849,-1.8611,0.0,-1.8677,0.0,0.0,-1.9118,0.0,0.0,0.0,0.0,-1.9366,0.0,-1.9506,-1.98,-2.0201,-2.0361,0.0,0.0,-2.0862,-2.0969,-2.1089,-2.0922,-2.0862,-2.0889,-2.1056,-2.1109,-2.1109,-2.1109,-2.1109,-2.1109,-2.1109,-2.0995,-2.0862,-2.0862,-2.0742,-2.0615,-2.0615,-2.0615,-2.0615,-2.0615,-2.0615,-2.0661,0.0,0.0,0.0,0.0,0.0,0.0,0.0,0.0,0.0,0.0,0.0,0.0,0.0,0.0,0.0,-2.2356,-2.2792,-2.3106,-2.3106,0.0,0.0,0.0,0.0,0.0,-2.4071,-2.4401,-2.473,-2.5052,-2.5059,-2.5059,-2.5066,-2.571,-2.6018,-2.6039,-2.6691,-2.6991,-2.6991,-2.6991,-2.6991,-2.6991,-2.6991,-2.6991,-2.6991,-2.6991,-2.6991,-2.6991,-2.6991,-2.6991,-2.6991,0.0,0.0,0.0,0.0,0.0,0.0,0.0,-1.68,0.0,-1.6192,0.0,-1.6375,-1.6375,-1.5719,-1.5189,0.0,0.0,-1.6137,-1.7203,-1.6054,-1.6292,-1.8741,-1.7427,-1.7391,-1.8664,-1.8871,0.0,0.0,0.0,0.0,-1.9366,-1.9366,0.0,0.0,0.0,0.0,0.0,-1.9793,-2.0207,0.0,-2.0715,-2.0882,-2.1109,-2.1109,-2.1109,-2.1109,-2.1109,-2.1109,-2.1109,-2.1109,-2.1109,-2.1109,-2.1109,-2.1109,-2.1109,-2.1109,-2.1109,-2.1109,-2.1109,-2.1109,-2.1109,-2.1109,-2.1109,-2.1109,-2.1109,-2.1109,-2.1109,-2.1109,-2.1109,0.0,0.0,0.0,0.0,0.0,0.0,0.0,0.0,0.0,0.0,0.0,0.0,0.0,0.0,0.0,0.0,0.0,0.0,0.0,0.0,0.0,0.0,-2.4071,-2.4357,0.0,-2.5052,0.0,-2.5059,-2.5066,-2.571,-2.6018,-2.6039,-2.6691,-2.6991,-2.6991,-2.6991,-2.6991,-2.6991,-2.6991,-2.6991,-2.6991,-2.6991,-2.6991,-2.6991,-2.6991,-2.6991,-2.6991,0.0,0.0,0.0,0.0,0.0,0.0,0.0,-1.5044,-1.5011,-1.4981,-1.5227,0.0,-1.538,-1.5531,-1.5664,-1.5664,-1.5889,0.0,0.0,0.0,0.0,-1.8288,-1.7793,-1.8127,-1.9573,-1.9386,-1.9292,0.0,-1.9339,-1.9366,-1.9366,-1.9366,0.0,0.0,0.0,0.0,-2.01,-2.0401,0.0,-2.0702,-2.0935,-2.1062,-2.1109,-2.1109,-2.1109,-2.1109,-2.1109,-2.1109,-2.1109,-2.1109,-2.1109,-2.1109,-2.1109,-2.1109,-2.1109,-2.1109,-2.1109,-2.1109,-2.1109,-2.1109,-2.1109,-2.1109,-2.1109,-2.1109,-2.1109,-2.1109,-2.1109,-2.1109,-2.1109,-2.1109,-2.1109,0.0,0.0,0.0,0.0,0.0,0.0,0.0,0.0,0.0,0.0,0.0,0.0,0.0,0.0,0.0,0.0,0.0,0.0,0.0,0.0,0.0,0.0,0.0,0.0,0.0,0.0,-2.5066,-2.571,-2.6018,-2.6039,-2.6691,-2.6991,-2.6991,-2.6991,-2.6991,-2.6991,-2.6991,-2.6991,-2.6991,-2.6991,-2.6991,-2.6991,-2.6991,-2.6991,-2.6991,0.0,0.0,0.0,0.0,0.0,0.0,0.0,-1.3447,0.0,-1.4043,-1.437,-1.4555,-1.4666,-1.4264,-1.4014,-1.4014,-1.4107,-1.4413,-1.5027,-1.4538,-1.5032,-1.7016,-1.6284,0.0,-1.7815,0.0,-1.7997,-1.8728,-1.8728,-1.9092,-1.9813,-1.9813,0.0,0.0,0.0,-2.0187,0.0,0.0,0.0,-2.0915,-2.1049,-2.1109,-2.1109,-2.1109,-2.1203,-2.1336,-2.1336,-2.1436,-2.1516,-2.1209,-2.1109,-2.1109,-2.1109,-2.1109,-2.1109,-2.1109,-2.1109,-2.1109,-2.1109,-2.1109,-2.1109,-2.1109,-2.1109,-2.1109,-2.1109,-2.1109,-2.1109,-2.1109,-2.1109,-2.1109,-2.1109,-2.1109,0.0,0.0,0.0,0.0,0.0,0.0,0.0,0.0,0.0,0.0,0.0,0.0,0.0,0.0,0.0,0.0,0.0,0.0,0.0,0.0,0.0,0.0,0.0,0.0,0.0,-2.5066,-2.571,-2.6018,-2.6039,-2.6691,-2.6991,-2.6991,-2.6991,-2.6991,-2.6991,-2.6991,-2.6991,-2.6991,-2.6991,-2.6991,-2.6991,-2.6991,-2.6991,-2.6991,0.0,-1.3601,0.0,0.0,-1.3173,0.0,0.0,-1.2509,-1.2231,-1.3263,-1.3432,-1.3619,-1.377,-1.296,-1.2361,-1.2361,-1.2398,-1.2792,-1.3789,-1.2919,-1.3422,-1.5799,-1.4876,-1.4847,-1.622,-1.6177,-1.6646,0.0,-1.8006,-1.8716,0.0,-2.0079,0.0,0.0,0.0,0.0,0.0,0.0,-2.0902,-2.1109,-2.1109,-2.1149,-2.1203,-2.1203,-2.139,-2.165,-2.165,-2.179,-2.1917,-2.145,-2.1296,-2.1296,-2.1296,-2.1296,-2.1296,-2.1296,-2.1296,-2.1296,-2.1296,-2.1296,-2.1283,-2.1223,-2.1203,-2.1189,-2.1122,-2.1109,-2.1109,-2.1109,-2.1109,-2.1109,-2.1109,-2.1109,0.0,0.0,0.0,0.0,0.0,0.0,0.0,0.0,0.0,0.0,0.0,0.0,0.0,0.0,0.0,0.0,-2.2856,-2.2988,0.0,0.0,0.0,-2.4261,-2.5052,0.0,-2.5059,0.0,-2.571,-2.6018,-2.6039,-2.6691,-2.6991,-2.6991,-2.6991,-2.6991,-2.6991,-2.6991,-2.6991,-2.6991,-2.6991,-2.6991,-2.6991,-2.6991,-2.6991,-2.6991,0.0,0.0,0.0,0.0,0.0,0.0,0.0,-1.3108,-1.2194,-1.2147,-1.2287,-1.241,-1.243,-1.2574,-1.254,-1.254,-1.269,-1.2787,-1.2914,-1.2783,-1.3434,-1.4981,-1.4671,-1.5077,-1.6466,-1.6257,-1.6151,0.0,0.0,-1.8131,-1.8015,-1.949,0.0,0.0,0.0,0.0,0.0,-2.1069,-2.1082,-2.1109,-2.1109,-2.1269,-2.151,-2.151,-2.169,-2.1944,-2.1944,-2.1964,-2.1977,-2.1924,-2.1904,-2.1904,-2.1904,-2.1904,-2.1904,-2.1904,-2.1904,-2.1904,-2.1904,-2.1904,-2.1844,-2.1577,-2.151,-2.1443,-2.1169,-2.1109,-2.1109,-2.1109,-2.1109,-2.1109,-2.1109,-2.1109,-2.1109,0.0,0.0,0.0,0.0,0.0,0.0,0.0,0.0,0.0,0.0,0.0,0.0,0.0,0.0,-2.2111,-2.223,-2.2487,-2.2899,-2.3674,0.0,-2.3726,-2.5052,-2.4781,0.0,-2.5066,-2.571,-2.6018,-2.6039,-2.6691,-2.6991,-2.6991,-2.6991,-2.6991,-2.6991,-2.6991,-2.6991,-2.6991,-2.6991,-2.6991,-2.6991,-2.6991,-2.6991,-2.6991,0.0,0.0,0.0,0.0,0.0,0.0,0.0,-1.2771,-1.2434,-1.2361,-1.2414,-1.2503,-1.2613,-1.2686,-1.2726,-1.2726,-1.2795,-1.2836,-1.2836,-1.2836,-1.3095,-1.3617,-1.3544,-1.3761,-1.4271,-1.4194,-1.4533,0.0,0.0,-1.6519,-1.7309,-1.792,0.0,0.0,0.0,-2.0226,-2.1122,-2.1303,-2.1376,-2.139,-2.157,-2.1704,-2.181,-2.181,-2.1991,-2.2245,-2.2245,-2.2358,-2.2512,-2.2512,-2.2278,-2.1984,-2.1984,-2.1984,-2.1984,-2.1984,-2.1984,-2.1984,-2.1984,-2.1984,-2.1957,-2.1844,-2.181,-2.1784,-2.1663,-2.1637,-2.1637,-2.1637,-2.1496,-2.1376,-2.1376,-2.1229,-2.1109,0.0,0.0,0.0,0.0,0.0,0.0,0.0,0.0,0.0,0.0,0.0,0.0,0.0,0.0,0.0,-2.2111,-2.2237,-2.2645,-2.3275,0.0,-2.3461,-2.4367,-2.4503,-2.4596,-2.4652,-2.5519,-2.5979,-2.5891,-2.6634,-2.6838,-2.6692,-2.6692,-2.6546,-2.6246,-2.6538,-2.6692,-2.6692,-2.6845,-2.6991,-2.6991,-2.6991,-2.6991,-2.6991,-1.1837,0.0,-1.232,0.0,-1.2381,-1.2402,-1.2454,-1.2568,-1.2645,-1.2645,-1.2645,-1.2694,-1.2824,-1.2836,-1.2836,-1.2836,-1.2836,-1.2836,-1.2836,-1.2836,-1.2836,-1.2836,-1.2836,0.0,-1.2836,-1.2836,-1.3223,-1.4263,-1.4651,0.0,0.0,0.0,0.0,0.0,-1.8992,-1.9677,-2.0732,-2.1421,-2.1677,-2.1697,-2.1904,-2.2038,-2.2111,-2.2111,-2.2291,-2.2545,-2.2545,-2.2686,-2.2859,-2.2859,-2.2585,-2.2245,-2.2245,-2.2245,-2.2245,-2.2245,-2.2245,-2.2245,-2.2245,-2.2245,-2.2225,-2.2131,-2.2111,-2.2091,-2.2004,-2.1984,-2.1984,-2.1984,-2.1824,-2.1677,-2.1677,-2.151,-2.1343,0.0,0.0,0.0,0.0,0.0,0.0,0.0,0.0,-2.1109,-2.1109,0.0,0.0,0.0,0.0,0.0,-2.1734,-2.1859,0.0,0.0,0.0,0.0,0.0,-2.4095,-2.4243,-2.4414,-2.529,-2.5754,-2.5776,-2.6394,-2.6538,-2.6246,-2.6246,-2.6093,-2.5793,-2.6093,-2.6246,-2.6246,-2.6692,-2.6838,-2.6838,-2.6991,-2.6991,-2.6838,-1.1795,-1.2051,-1.2361,-1.2532,-1.256,-1.2621,-1.2804,-1.2832,-1.2832,-1.2832,-1.2832,-1.2836,-1.2836,-1.2836,-1.2836,-1.2836,-1.2836,-1.2836,-1.2836,-1.2836,-1.2836,0.0,0.0,-1.2836,-1.2836,-1.2836,-1.2836,-1.2836,0.0,0.0,-1.461,0.0,-1.6754,-1.7114,-1.8794,-1.9559,-1.9583,-2.1319,-2.1984,-2.1984,-2.1984,-2.2158,-2.2412,-2.2412,-2.2599,-2.2859,-2.2859,-2.2859,-2.2859,-2.2859,-2.2859,-2.2853,-2.2853,-2.2853,-2.2853,-2.2853,-2.2853,-2.2853,-2.2853,-2.2853,-2.2779,-2.2485,-2.2412,-2.2338,-2.2051,-2.1984,-2.1984,-2.1984,-2.1984,-2.1984,-2.1984,-2.1977,-2.1884,-2.159,0.0,0.0,0.0,0.0,0.0,0.0,-2.1109,-2.1109,-2.1109,0.0,0.0,0.0,0.0,0.0,0.0,0.0,0.0,-2.249,-2.2116,0.0,-2.3952,-2.3543,-2.3694,-2.4414,-2.4729,-2.5037,-2.5338,-2.5653,-2.58,-2.58,-2.58,-2.58,-2.58,-2.58,-2.58,-2.5793,-2.6246,-2.6392,-2.6392,-2.6838,-2.6692,-2.6392,-1.1581,-1.1934,-1.2295,-1.2346,-1.262,-1.2771,-1.2828,-1.2938,-1.3011,-1.3011,-1.3124,-1.3202,-1.3202,-1.2982,-1.2836,0.0,-1.2946,-1.3011,0.0,-1.3128,-1.3202,-1.3202,-1.3202,-1.3202,-1.3202,-1.3202,-1.3202,-1.3202,0.0,0.0,0.0,-1.4178,-1.487,-1.5998,-1.6464,-1.7299,-1.8117,-1.8901,-1.914,-1.9293,-2.0576,-2.1121,-2.1333,-2.2303,-2.2779,-2.2859,-2.2859,-2.2859,-2.2859,-2.2859,-2.2859,-2.2859,-2.2859,-2.2859,-2.2859,-2.2859,-2.2859,-2.2859,-2.2859,-2.2859,-2.2839,-2.2746,-2.2719,-2.2699,-2.2605,-2.2585,-2.2585,-2.2585,-2.2418,-2.2278,-2.2278,-2.2118,-2.1957,-2.1864,0.0,0.0,0.0,0.0,0.0,0.0,-2.1229,-2.1109,0.0,-2.1109,0.0,0.0,0.0,0.0,0.0,0.0,0.0,0.0,-2.2178,0.0,-2.327,-2.3406,-2.3666,-2.4045,-2.4551,-2.5149,-2.5653,-2.5751,-2.5653,-2.5373,-2.5373,-2.5226,-2.5072,-2.5226,-2.5373,-2.5373,-2.5807,-2.5946,-2.5946,-2.6093,-2.6093,-2.5946,-1.1359,-1.1837,-1.2196,-1.239,-1.2535,-1.2825,-1.3027,-1.3128,-1.3197,-1.3197,-1.3299,-1.3372,-1.3372,-1.3173,0.0,-1.3039,-1.3137,0.0,-1.3197,-1.3307,-1.3372,-1.3372,-1.3372,-1.3372,-1.3372,0.0,0.0,-1.3372,-1.3372,-1.3372,-1.3372,-1.3372,-1.3912,-1.4723,-1.5338,-1.605,-1.7015,-1.7787,-1.802,-1.8175,-1.9299,-2.0069,-2.078,-2.1861,-2.2612,-2.3053,-2.316,-2.3207,-2.3207,-2.3207,-2.3207,-2.3061,-2.249,-2.2344,-2.2445,-2.2789,-2.2441,-2.2022,-2.2022,-2.1603,-2.1183,-2.1183,-2.1183,-2.1183,-2.1183,-2.1183,-2.1183,-2.1183,-2.104,-2.0922,-2.0922,-2.1198,-2.1462,-2.1359,0.0,-2.2111,-2.1997,0.0,0.0,0.0,0.0,0.0,0.0,-2.1436,0.0,0.0,0.0,0.0,0.0,0.0,0.0,-2.2138,-2.2325,0.0,-2.2859,-2.3248,-2.3559,-2.3774,-2.4412,-2.4995,-2.5359,-2.5359,-2.5219,-2.4938,-2.4938,-2.4784,-2.4636,-2.4931,-2.4938,-2.5079,-2.5366,-2.5513,-2.5653,-2.58,-2.5653,-2.5513,-1.1147,-1.1548,0.0,0.0,-1.2573,0.0,-1.3344,-1.338,-1.3388,-1.3388,-1.3401,-1.3409,-1.3409,-1.3409,-1.3409,-1.3409,0.0,0.0,0.0,-1.3401,-1.3409,-1.3409,-1.3409,0.0,-1.3409,-1.3409,-1.3409,-1.3409,-1.3409,-1.3409,-1.3409,-1.3409,-1.3409,-1.355,-1.509,-1.5718,-1.5871,-1.7457,-1.8115,-1.8126,-1.8266,-1.9117,-2.0429,-2.082,-2.1776,-2.31,-2.3377,-2.3476,-2.3476,-2.3476,-2.3476,-2.3184,-2.1576,-2.1138,-2.1329,-2.238,-2.1647,-2.0515,-2.0515,-1.9518,-1.8379,-1.8379,-1.8379,-1.8379,-1.8379,-1.8379,-1.8379,-1.8379,-1.8379,-1.8379,-1.8379,-1.9507,-2.0413,-2.0303,-2.1359,-2.2217,-2.2084,0.0,0.0,0.0,0.0,0.0,0.0,-2.1984,-2.1984,0.0,0.0,0.0,0.0,0.0,-2.2158,-2.2412,-2.2438,-2.2592,-2.2893,-2.318,-2.3487,-2.3808,-2.4369,-2.4636,-2.4636,-2.4636,-2.4636,-2.4636,-2.4636,-2.4636,-2.4636,-2.4636,-2.4636,-2.4636,-2.5079,-2.5233,-2.5233,-2.5506,-2.5513,-2.5233,0.0,0.0,-1.1887,-1.2338,-1.262,-1.2905,-1.3364,-1.349,-1.3579,-1.3579,-1.3693,-1.3774,-1.3774,-1.3774,-1.3774,-1.3774,-1.3656,-1.3579,-1.3579,-1.3705,-1.3774,-1.3774,-1.3774,-1.3774,-1.3774,-1.3774,-1.3774,-1.3774,-1.3774,-1.3774,-1.3774,-1.3774,-1.3774,-1.3778,-1.424,-1.4398,-1.4403,-1.4867,-1.5114,-1.525,-1.6382,-1.7191,-1.7784,-1.8982,-1.9581,-1.9881,-2.0082,-2.0104,-2.0104,-2.0104,-2.0104,-1.996,-1.9525,-1.9525,-1.9503,-1.9813,-1.9513,-1.909,-1.909,-1.8806,-1.8379,-1.8379,-1.8379,-1.8379,-1.8379,-1.8379,-1.8379,-1.8379,-1.8379,-1.8379,-1.8379,-1.8664,-1.9206,-2.0269,-2.0814,-2.1346,-2.2523,-2.2458,-2.2318,0.0,-2.2118,-2.1984,-2.1984,-2.1984,-2.1984,0.0,0.0,0.0,0.0,0.0,-2.2585,-2.2425,-2.2639,-2.2906,-2.3213,-2.3293,-2.3587,-2.4108,-2.4462,-2.4636,-2.4636,-2.4636,-2.4636,-2.4636,-2.4636,-2.4636,-2.4636,-2.4636,-2.4636,-2.4636,-2.4636,-2.4784,-2.4784,-2.4784,-2.4784,-2.4784,-1.1148,-1.13,-1.16,-1.2091,-1.238,-1.2824,-1.332,-1.3556,-1.3762,-1.3762,-1.3843,-1.39,-1.39,-1.39,-1.3937,-1.4022,-1.3863,-1.3762,-1.3762,-1.3851,-1.39,-1.39,-1.39,-1.39,-1.39,-1.39,-1.39,-1.39,-1.39,-1.39,-1.39,-1.39,-1.39,-1.39,-1.39,-1.3949,-1.4026,-1.4026,-1.4131,-1.4294,-1.5156,-1.594,-1.6783,-1.7752,-1.8518,-1.9121,-1.9228,-1.9265,-1.9265,-1.9265,-1.9265,-1.9123,-1.8382,-1.8234,-1.8085,-1.7341,-1.7419,-1.7758,-1.7758,-1.7235,-1.6549,-1.6453,-1.6358,-1.6282,-1.6282,-1.6282,-1.6282,-1.6282,-1.6282,-1.6282,-1.6282,-1.6846,-1.7549,-1.839,-1.9089,-1.9924,-2.0762,-2.0634,-2.0817,-2.1518,-2.1384,-2.17,-2.2385,-2.2385,-2.2385,-2.2385,0.0,0.0,-2.2619,-2.2772,-2.2786,-2.2625,-2.2779,-2.3013,-2.3327,-2.3594,-2.3955,-2.4402,-2.4563,-2.4636,-2.4636,-2.4636,-2.4636,-2.4636,-2.4636,-2.4636,-2.4636,-2.4636,-2.4636,-2.4636,-2.4636,-2.4636,-2.4636,-2.4636,-2.4636,-2.4636,-1.1226,-1.1229,-1.1413,-1.197,-1.2273,-1.26,-1.3163,-1.3491,-1.3797,-1.3797,-1.3822,-1.3838,-1.3842,-1.3842,-1.4046,-1.4205,-1.4071,-1.3981,-1.3981,-1.3981,-1.3981,-1.3981,-1.3981,-1.3981,-1.3981,-1.3981,-1.3981,-1.3981,-1.3981,-1.3981,-1.3981,-1.3981,-1.3981,-1.3981,-1.3981,-1.4071,-1.4217,-1.4217,-1.4314,-1.4473,-1.4473,-1.5223,-1.6444,-1.6763,-1.7577,-1.8798,-1.8989,-1.9057,-1.9057,-1.9057,-1.9057,-1.8905,-1.7398,-1.7098,-1.6793,-1.5424,-1.5647,-1.6421,-1.6393,-1.548,-1.4395,-1.4253,-1.4095,-1.3977,-1.3949,-1.3945,-1.3937,-1.3908,-1.39,-1.39,-1.39,-1.4888,-1.5872,-1.6013,-1.7268,-1.8105,-1.8385,0.0,-1.8804,-2.0069,-2.0491,-2.1044,-2.2441,-2.2722,-2.2859,-2.2859,-2.2859,0.0,0.0,-2.2859,-2.2886,-2.2933,-2.2933,-2.31,-2.3454,-2.3995,-2.4389,-2.4636,-2.4636,-2.4636,-2.4636,-2.4636,-2.4636,-2.4636,-2.4636,-2.4636,-2.4636,-2.4636,-2.4636,-2.4636,-2.4636,-2.4636,-2.4636,-2.4636,-2.4636,-2.4636,-1.1525,-1.1548,-1.1698,-1.2155,-1.2158,-1.2448,-1.3178,-1.3161,-1.3256,-1.3551,-1.3382,-1.3473,-1.3773,-1.3773,-1.3928,-1.4391,-1.4367,-1.4347,-1.4347,-1.4347,-1.4347,-1.4347,-1.4347,-1.4347,-1.4347,-1.4347,-1.4347,-1.4347,-1.4347,-1.4347,-1.4347,-1.4347,-1.4347,-1.4347,-1.4347,-1.4367,-1.4391,-1.4391,-1.4497,-1.4667,-1.4667,-1.4904,-1.5341,-1.537,-1.5531,-1.5684,-1.5714,-1.5722,-1.5722,-1.5722,-1.5722,-1.5727,-1.542,-1.5424,-1.5271,-1.5117,-1.5076,-1.5303,-1.5002,-1.4699,-1.4424,-1.4395,-1.4371,-1.431,-1.4168,-1.4136,-1.4091,-1.3932,-1.39,-1.39,-1.39,-1.4043,-1.4604,-1.5872,-1.6291,-1.6846,-1.8245,0.0,-1.8525,-1.8659,-1.9785,-2.0629,-2.0906,-2.216,-2.2859,-2.2859,-2.2859,-2.2859,-2.2859,-2.2859,-2.2986,-2.3247,-2.3253,-2.3521,-2.4062,-2.4402,-2.4596,-2.4636,-2.4636,-2.4636,-2.4636,-2.4636,-2.4636,-2.4636,-2.4636,-2.4636,-2.4636,-2.4636,-2.4636,-2.4636,-2.4636,-2.4636,-2.4636,-2.4636,-2.4636,-2.4636,-1.1606,-1.1619,-1.1619,-1.1907,-1.2117,-1.2456,-1.3032,-1.3179,-1.3288,-1.3734,-1.3356,-1.3256,-1.3405,-1.3553,-1.3737,-1.4121,-1.4279,-1.4319,-1.4712,-1.4538,-1.4432,-1.4432,-1.4432,-1.4432,-1.4432,-1.4432,-1.4432,-1.4432,-1.4432,-1.4432,-1.4432,-1.4432,-1.4432,-1.4432,-1.4432,-1.4485,-1.4582,-1.4582,-1.4684,-1.4846,-1.4846,-1.4895,-1.4964,-1.4964,-1.4964,-1.4964,-1.4964,-1.4964,-1.4964,-1.4964,-1.4964,-1.4964,-1.4964,-1.4964,-1.4964,-1.4964,-1.4964,-1.4948,-1.4871,-1.4716,-1.4582,-1.4582,-1.4505,-1.4412,-1.433,-1.4314,-1.429,-1.4205,-1.4188,-1.416,-1.4066,-1.405,-1.4305,-1.4763,-1.4888,0.0,0.0,-1.6004,-1.6287,-1.7127,-1.783,-1.853,-1.9367,-2.0063,-2.0479,-2.0479,-2.1183,-2.1672,-2.1963,-2.2684,-2.3253,-2.3554,-2.3721,-2.3928,-2.4202,-2.4489,-2.4636,-2.4636,-2.4636,-2.4636,-2.4636,-2.4636,-2.4636,-2.4636,-2.4636,-2.4636,-2.4636,-2.4636,-2.4636,-2.4636,-2.4636,-2.4636,-2.4636,-2.4636,-2.4636,-2.4636,-1.167,-1.1697,-1.1721,-1.1721,-1.2105,-1.2472,-1.2916,-1.2907,-1.3162,-1.3614,-1.3196,-1.3068,-1.3218,-1.3218,-1.3416,-1.3995,-1.401,-1.4213,-1.4649,-1.441,-1.4259,-1.4554,-1.4408,-1.4408,-1.4554,-1.4408,-1.4408,-1.4554,-1.4554,-1.4554,-1.4554,-1.4554,-1.4554,-1.4554,-1.4554,-1.4635,-1.4769,-1.4769,-1.4846,-1.4964,-1.4964,-1.4964,-1.4964,-1.4964,-1.4964,-1.4964,-1.4964,-1.4964,-1.4964,-1.4964,-1.4964,-1.4964,-1.4964,-1.4964,-1.4964,-1.4964,-1.4964,-1.4964,-1.4964,-1.4871,-1.4769,-1.4769,-1.4663,-1.4546,-1.4505,-1.4497,-1.4481,-1.444,-1.4432,-1.4391,-1.4261,-1.4237,-1.4192,-1.4046,0.0,0.0,0.0,-1.4026,-1.4453,-1.5587,-1.5969,-1.6661,-1.784,-1.8362,-1.8487,-1.8541,-1.9537,-2.0473,-2.1112,-2.2275,-2.313,-2.3861,-2.4088,-2.4235,-2.4302,-2.4523,-2.4636,-2.4636,-2.4636,-2.4636,-2.4636,-2.4636,-2.4636,-2.4636,-2.4636,-2.4636,-2.4636,-2.4636,-2.4636,-2.4636,-2.4636,-2.4636,-2.4636,-2.4636,-2.4636,-2.4636,-1.1816,-1.1932,-1.203,-1.203,-1.2037,-1.2192,-1.2639,-1.2477,-1.2578,-1.2881,-1.2696,-1.2625,-1.3087,-1.3087,-1.3249,-1.3722,-1.3722,-1.3729,-1.374,-1.3718,-1.4164,-1.4927,-1.4629,-1.4629,-1.4927,-1.4629,-1.4629,-1.4927,-1.4927,-1.4927,-1.4927,-1.4927,-1.4927,-1.4927,-1.4927,-1.4931,-1.4948,-1.4948,-1.4956,-1.4964,-1.4964,-1.4964,-1.4964,-1.4964,-1.4964,-1.4964,-1.4964,-1.4964,-1.4964,-1.4964,-1.4964,-1.4964,-1.4964,-1.4964,-1.4964,-1.4964,-1.4964,-1.4964,-1.4964,-1.4956,-1.4948,-1.4948,-1.4935,-1.4883,-1.4724,-1.4688,-1.4639,-1.4469,-1.4432,-1.4428,-1.4416,-1.4412,-1.4408,-1.4395,0.0,0.0,-1.4391,-1.4391,-1.4391,-1.4539,-1.5686,-1.6509,-1.6854,-1.7991,-1.8662,-1.887,-1.9031,-1.9626,-2.1252,-2.1402,-2.2256,-2.4162,-2.4195,-2.4335,-2.4603,-2.4623,-2.4636,-2.4636,-2.4636,-2.4636,-2.4636,-2.4636,-2.4636,-2.4636,-2.4636,-2.4636,-2.4636,-2.4636,-2.4636,-2.4636,-2.4636,-2.4636,-2.4636,-2.4636,-2.4636,-2.4636,-1.1976,-1.202,-1.206,-1.206,-1.2142,-1.2354,-1.2796,-1.2626,-1.2574,-1.3038,-1.2776,-1.2501,-1.2656,-1.2656,-1.2969,-1.3278,-1.3278,-1.3432,-1.374,-1.374,-1.3895,-1.4199,-1.4049,-1.4053,-1.4203,-1.4053,-1.4053,-1.4203,-1.4203,-1.4203,-1.4203,-1.4203,-1.4203,-1.4203,-1.4203,-1.4203,-1.4203,-1.4203,-1.4203,-1.4203,-1.4203,-1.4357,-1.4669,-1.4669,-1.4818,-1.4964,-1.4964,-1.4964,-1.4964,-1.4964,-1.4964,-1.4964,-1.4964,-1.4964,-1.4964,-1.4964,-1.4964,-1.4964,-1.4964,-1.4964,-1.4964,-1.4964,-1.4964,-1.4948,-1.4883,-1.4866,-1.4846,-1.4777,-1.4761,-1.4728,-1.4623,-1.4603,-1.4566,-1.4452,0.0,-1.4432,-1.4432,-1.4432,-1.4432,-1.4432,-1.4805,-1.5229,-1.5302,-1.5678,-1.6099,-1.6172,-1.7058,-1.7849,-1.8722,-2.0643,-2.227,-2.2965,-2.3875,-2.4523,-2.4636,-2.4636,-2.4636,-2.4636,-2.4636,-2.4636,-2.4636,-2.4636,-2.4636,-2.4636,-2.4636,-2.4636,-2.4636,-2.4636,-2.4636,-2.4636,-2.4636,-2.4636,-2.4636,-2.4636,-2.4636,-2.4636,-1.2135,-1.2169,-1.2199,-1.2199,-1.2288,-1.2508,-1.2803,-1.2587,-1.2656,-1.2811,-1.2656,-1.2501,-1.2501,-1.2501,-1.2656,-1.2969,-1.2965,-1.2965,-1.3278,-1.3278,-1.3432,-1.374,-1.3586,-1.3586,-1.374,-1.3586,-1.3586,-1.374,-1.374,-1.374,-1.374,-1.374,-1.374,-1.374,-1.374,-1.374,-1.374,-1.374,-1.374,-1.374,-1.374,-1.3898,-1.4207,-1.4207,-1.4357,-1.4661,-1.4661,-1.4661,-1.4661,-1.4661,-1.4661,-1.4814,-1.4814,-1.4968,-1.4964,-1.4964,-1.4964,-1.4964,-1.4964,-1.4964,-1.4964,-1.4964,-1.4964,-1.4964,-1.4964,-1.4964,-1.4964,-1.4964,-1.4964,-1.4927,-1.481,-1.4789,-1.4749,-1.4619,-1.4598,-1.4598,-1.4598,-1.4598,-1.4598,-1.4598,-1.455,-1.4542,-1.4594,-1.455,-1.4542,-1.4594,-1.5637,-1.6437,-1.7175,-1.987,-2.1619,-2.2223,-2.3277,-2.4031,-2.4636,-2.4636,-2.4636,-2.4636,-2.4636,-2.4636,-2.4636,-2.4636,-2.4636,-2.4636,-2.4636,-2.4636,-2.4636,-2.4636,-2.4636,-2.4636,-2.4636,-2.4636,-2.4636,-2.4636,-2.4636,-2.4636,-1.2291,-1.2406,-1.2501,-1.2501,-1.2501,-1.2501,-1.2501,-1.2501,-1.2501,-1.2501,-1.2501,-1.2501,-1.2501,-1.2501,-1.2501,-1.2501,-1.2501,-1.2501,-1.2501,-1.2501,-1.2811,-1.3586,-1.3278,-1.3278,-1.374,-1.3278,-1.3278,-1.374,-1.374,-1.374,-1.374,-1.374,-1.374,-1.374,-1.374,-1.374,-1.374,-1.374,-1.374,-1.374,-1.374,-1.374,-1.374,-1.374,-1.374,-1.374,-1.374,-1.374,-1.374,-1.374,-1.4053,-1.4365,-1.4365,-1.4665,-1.4964,-1.4964,-1.4964,-1.4964,-1.4964,-1.4964,-1.4964,-1.4964,-1.4964,-1.4964,-1.4964,-1.4964,-1.4964,-1.4964,-1.4964,-1.4964,-1.4964,-1.4964,-1.4964,-1.4964,-1.4964,-1.4964,-1.4964,-1.4964,-1.4964,-1.4964,-1.4814,-1.4777,-1.4948,-1.481,-1.4781,-1.4952,-1.4964,-1.5731,-1.725,-1.891,-2.0564,-2.2073,-2.2223,-2.298,-2.4636,-2.4636,-2.4636,-2.4636,-2.4636,-2.4636,-2.4636,-2.4636,-2.4636,-2.4636,-2.4636,-2.4636,-2.4636,-2.4636,-2.4636,-2.4636,-2.4636,-2.4636,-2.4636,-2.4636,-2.4636,-2.4636,-1.2437,-1.2474,-1.2501,-1.2501,-1.2501,-1.2501,-1.2501,-1.2501,-1.2501,-1.2501,-1.2501,-1.2501,-1.2501,-1.2501,-1.2501,-1.2501,-1.2501,-1.2501,-1.2501,-1.2501,-1.2656,-1.2811,-1.2811,-1.2811,-1.2811,-1.2811,-1.2811,-1.2811,-1.2811,-1.2811,-1.2811,-1.2811,-1.2811,-1.2811,-1.2811,-1.2811,-1.2811,-1.2811,-1.2811,-1.2811,-1.2811,-1.2965,-1.3278,-1.3278,-1.3432,-1.374,-1.374,-1.374,-1.374,-1.374,-1.3744,-1.3898,-1.4365,-1.4515,-1.4669,-1.4968,-1.4964,-1.4964,-1.4964,-1.4964,-1.4964,-1.4964,-1.4964,-1.4964,-1.4964,-1.4964,-1.4964,-1.4964,-1.4964,-1.4964,-1.4964,-1.4964,-1.4964,-1.4964,-1.4964,-1.4964,-1.4964,-1.4964,-1.4964,-1.4964,-1.4919,-1.4911,-1.496,-1.4919,-1.4911,-1.496,-1.4964,-1.5271,-1.5727,-1.7245,-1.8309,-1.8759,-2.1014,-2.2372,-2.2974,-2.4031,-2.4636,-2.4636,-2.4636,-2.4636,-2.4636,-2.4636,-2.4636,-2.4636,-2.4636,-2.4636,-2.4636,-2.4636,-2.4636,-2.4636,-2.4636,-2.4636,-2.4636,-2.4636,-2.4636,-2.4636,-1.2501,-1.2501,-1.2501,-1.2501,-1.2501,-1.2501,-1.2501,-1.2501,-1.2501,-1.2501,-1.2501,-1.2501,-1.2501,-1.2501,-1.2501,-1.2501,-1.2501,-1.2501,-1.2501,-1.2501,-1.2501,-1.2501,-1.2501,-1.2501,-1.2501,-1.2501,-1.2501,-1.2501,-1.2501,-1.2501,-1.2501,-1.2501,-1.2501,-1.2501,-1.2501,-1.2501,-1.2501,-1.2501,-1.2501,-1.2501,-1.2501,-1.2656,-1.2811,-1.2811,-1.2965,-1.3278,-1.3278,-1.3278,-1.3278,-1.3278,-1.3278,-1.3586,-1.4053,-1.4053,-1.4207,-1.4665,-1.4818,-1.4818,-1.4964,-1.4964,-1.4964,-1.4964,-1.4964,-1.4964,-1.4964,-1.4964,-1.4964,-1.4964,-1.4964,-1.4964,-1.4964,-1.4964,-1.4964,-1.4964,-1.4964,-1.4964,-1.4964,-1.4964,-1.4964,-1.4964,-1.4964,-1.4964,-1.4964,-1.4964,-1.4964,-1.4964,-1.4964,-1.4964,-1.4964,-1.588,-1.6793,-1.7402,-1.9364,-2.087,-2.2223,-2.3129,-2.4031,-2.4636,-2.4636,-2.4636,-2.4636,-2.4636,-2.4636,-2.4636,-2.4636,-2.4636,-2.4636,-2.4636,-2.4636,-2.4636,-2.4636,-2.4636,-2.4636,-2.4636,-2.4636,-2.4636,-1.2501,-1.2501,-1.2501,-1.2501,-1.2501,-1.2501,-1.2501,-1.2501,-1.2501,-1.2501,-1.2501,-1.2501,-1.2501,-1.2501,-1.2501,-1.2501,-1.2501,-1.2501,-1.2501,-1.2501,-1.2501,-1.2501,-1.2501,-1.2501,-1.2501,-1.2501,-1.2501,-1.2501,-1.2501,-1.2501,-1.2501,-1.2501,-1.2501,-1.2501,-1.2501,-1.2501,-1.2501,-1.2501,-1.2501,-1.2501,-1.2501,-1.2501,-1.2501,-1.2501,-1.2501,-1.2501,-1.2501,-1.2501,-1.2501,-1.2501,-1.2811,-1.3123,-1.3586,-1.3586,-1.3744,-1.4211,-1.4365,-1.4361,-1.4814,-1.4814,-1.4814,-1.4814,-1.4968,-1.4964,-1.4964,-1.4964,-1.4964,-1.4964,-1.4964,-1.4964,-1.4964,-1.4964,-1.4964,-1.4964,-1.4964,-1.4964,-1.4964,-1.4964,-1.4964,-1.4964,-1.4964,-1.4964,-1.4964,-1.4964,-1.4964,-1.4964,-1.4964,-1.4964,-1.4964,-1.4964,-1.5727,-1.7098,-1.7402,-1.8759,-2.1769,-2.2073,-2.2974,-2.4636,-2.4636,-2.4636,-2.4636,-2.4636,-2.4636,-2.4636,-2.4636,-2.4636,-2.4636,-2.4636,-2.4636,-2.4636,-2.4636,-2.4636,-2.4636,-2.4636,-2.4636,-2.4636,-1.2501,-1.2501,-1.2501,-1.2501,-1.2501,-1.2501,-1.2501,-1.2501,-1.2501,-1.2501,-1.2501,-1.2501,-1.2501,-1.2501,-1.2501,-1.2501,-1.2501,-1.2501,-1.2501,-1.2501,-1.2501,-1.2501,-1.2501,-1.2501,-1.2501,-1.2501,-1.2501,-1.2501,-1.2501,-1.2501,-1.2501,-1.2501,-1.2501,-1.2501,-1.2501,-1.2501,-1.2501,-1.2501,-1.2501,-1.2501,-1.2501,-1.2501,-1.2501,-1.2501,-1.2501,-1.2501,-1.2501,-1.2501,-1.2501,-1.2501,-1.2501,-1.2656,-1.312,-1.3278,-1.3278,-1.374,-1.3898,-1.3895,-1.3895,-1.4045,-1.4045,-1.4045,-1.4207,-1.4669,-1.4968,-1.4964,-1.4964,-1.4964,-1.4964,-1.4964,-1.4964,-1.4964,-1.4964,-1.4964,-1.4964,-1.4964,-1.4964,-1.4964,-1.4964,-1.4964,-1.4964,-1.4964,-1.4964,-1.4964,-1.4964,-1.4964,-1.4964,-1.4964,-1.4964,-1.4964,-1.5117,-1.5573,-1.6793,-1.7702,-1.8456,-2.087,-2.2974,-2.4636,-2.4636,-2.4636,-2.4636,-2.4636,-2.4636,-2.4636,-2.4636,-2.4636,-2.4636,-2.4636,-2.4636,-2.4636,-2.4636,-2.4636,-2.4636,-2.4636,-2.4636,-2.4636,-1.0164,-1.0785,-1.1253,-1.1253,-1.203,-1.2501,-1.2501,-1.2501,-1.2501,-1.2501,-1.2501,-1.2501,-1.2501,-1.2501,-1.2501,-1.2501,-1.2501,-1.2501,-1.2501,-1.2501,-1.2501,-1.2501,-1.2501,-1.2501,-1.2501,-1.2501,-1.2501,-1.2501,-1.2501,-1.2501,-1.2501,-1.2501,-1.2501,-1.2501,-1.2501,-1.2501,-1.2501,-1.2501,-1.2501,-1.2501,-1.2501,-1.2501,-1.2501,-1.2501,-1.2501,-1.2501,-1.2501,-1.2501,-1.2501,-1.2501,-1.2501,-1.2501,-1.2811,-1.2811,-1.2965,-1.3278,-1.3432,-1.3432,-1.3586,-1.374,-1.374,-1.374,-1.3895,-1.4053,-1.4353,-1.4661,-1.4968,-1.4818,-1.4814,-1.4964,-1.4964,-1.4964,-1.4964,-1.4964,-1.4964,-1.4964,-1.4964,-1.4964,-1.4964,-1.4964,-1.4964,-1.4964,-1.4964,-1.4964,-1.4964,-1.4964,-1.4964,-1.4964,-1.4964,-1.4964,-1.4964,-1.4964,-1.588,-1.664,-1.7402,-1.9062,-2.0714,-2.2372,-2.3883,-2.4636,-2.4636,-2.4636,-2.4636,-2.4636,-2.4636,-2.4636,-2.4636,-2.4636,-2.4179,-2.3426,-2.3426,-2.2974,-2.2372,-2.2372,-2.2372,-2.2372,-0.7515,-0.8606,-0.9695,-1.0006,-1.1098,-1.2189,-1.2501,-1.2501,-1.2501,-1.2501,-1.2501,-1.2501,-1.2501,-1.2501,-1.2501,-1.2501,-1.2501,-1.2501,-1.2501,-1.2501,-1.2501,-1.2501,-1.2501,-1.2501,-1.2501,-1.2501,-1.2501,-1.2501,-1.2501,-1.2501,-1.2501,-1.2501,-1.2501,-1.2501,-1.2501,-1.2501,-1.2501,-1.2501,-1.2501,-1.2501,-1.2501,-1.2501,-1.2501,-1.2501,-1.2501,-1.2501,-1.2501,-1.2501,-1.2501,-1.2501,-1.2501,-1.2501,-1.2501,-1.2501,-1.2501,-1.2965,-1.2969,-1.312,-1.3432,-1.3432,-1.3432,-1.3432,-1.3586,-1.3586,-1.3586,-1.4199,-1.4661,-1.4519,-1.4665,-1.4968,-1.4964,-1.4964,-1.4964,-1.4964,-1.4964,-1.4964,-1.4964,-1.4964,-1.4964,-1.4964,-1.4964,-1.4964,-1.4964,-1.4964,-1.4964,-1.4964,-1.4964,-1.4964,-1.4964,-1.4964,-1.4964,-1.4964,-1.4964,-1.5573,-1.6945,-1.725,-1.8006,-1.9364,-2.2372,-2.3729,-2.3729,-2.3729,-2.3729,-2.3729,-2.4031,-2.4031,-2.3729,-2.4031,-2.3277,-2.1769,-2.1769,-2.102,-1.9811,-1.9811,-1.9811,-1.9811,-0.7515,-0.7671,-0.8292,-0.9695,-1.0164,-1.0785,-1.2347,-1.2501,-1.2501,-1.2501,-1.2501,-1.2501,-1.2501,-1.2501,-1.2501,-1.2501,-1.2501,-1.2501,-1.2501,-1.2501,-1.2501,-1.2501,-1.2501,-1.2501,-1.2501,-1.2501,-1.2501,-1.2501,-1.2501,-1.2501,-1.2501,-1.2501,-1.2501,-1.2501,-1.2501,-1.2501,-1.2501,-1.2501,-1.2501,-1.2501,-1.2501,-1.2501,-1.2501,-1.2501,-1.2501,-1.2501,-1.2501,-1.2501,-1.2501,-1.2501,-1.2501,-1.2501,-1.2501,-1.2501,-1.2501,-1.2501,-1.2656,-1.2656,-1.2656,-1.2656,-1.2656,-1.2656,-1.2965,-1.312,-1.2811,-1.3274,-1.4049,-1.4365,-1.4365,-1.4515,-1.4968,-1.4964,-1.4964,-1.4964,-1.4964,-1.4964,-1.4964,-1.4964,-1.4964,-1.4964,-1.4964,-1.4964,-1.4964,-1.4964,-1.4964,-1.4964,-1.4964,-1.4964,-1.4964,-1.4964,-1.4964,-1.4964,-1.4964,-1.5117,-1.5271,-1.664,-1.7555,-1.7707,-1.9515,-2.0414,-2.0414,-2.0414,-2.0414,-2.0564,-2.1918,-2.1775,-2.0564,-2.1918,-2.1619,-2.0113,-2.0113,-1.9962,-1.9811,-1.9811,-1.9811,-1.9811,-0.4705,-0.5484,-0.6263,-0.7041,-0.7978,-0.9229,-1.0785,-1.1098,-1.1411,-1.2347,-1.2501,-1.2501,-1.2501,-1.2501,-1.2501,-1.2501,-1.2501,-1.2501,-1.2501,-1.2501,-1.2501,-1.2501,-1.2501,-1.2501,-1.2501,-1.2501,-1.2501,-1.2501,-1.2501,-1.2501,-1.2501,-1.2501,-1.2501,-1.2501,-1.2501,-1.2501,-1.2501,-1.2501,-1.2501,-1.2501,-1.2501,-1.2501,-1.2501,-1.2501,-1.2501,-1.2501,-1.2501,-1.2501,-1.2501,-1.2501,-1.2501,-1.2501,-1.2501,-1.2501,-1.2501,-1.2501,-1.2501,-1.2501,-1.2501,-1.2501,-1.2501,-1.2501,-1.2656,-1.2656,-1.2501,-1.2811,-1.3278,-1.3898,-1.4053,-1.4203,-1.4814,-1.4814,-1.4665,-1.4665,-1.4814,-1.4968,-1.4665,-1.4814,-1.4964,-1.4964,-1.4964,-1.4964,-1.4964,-1.4964,-1.4964,-1.4964,-1.4964,-1.4964,-1.4964,-1.4964,-1.4964,-1.4964,-1.4964,-1.4964,-1.4964,-1.5727,-1.6033,-1.6033,-1.6788,-1.7996,-1.9811,-1.9811,-1.9811,-1.9811,-2.0564,-2.0414,-1.9811,-2.0569,-1.9962,-1.8456,-1.8456,-1.7849,-1.7088,-1.7088,-1.7088,-1.7088]}]]